[[{"header":{"parameterUnit":"m.s-1","parameterCategory":1,"la1":30.6,"la2":28.766,"lo1":-90.7593,"lo2":-88.6598,"dy":0.0162,"dx":0.0183,"nx":116,"ny":114,"refTime":"2023-11-05T00:00:00:Z","depth":0,"parameterNumber":2,"parameterNumberName":"U-component_of_WINDS"},"data":[0.0,0.0,0.0,0.0,0.0,0.0,0.0,0.0,0.0,0.0,0.0,0.0,0.0,0.0,0.0,0.0,0.0,0.0,0.0,0.0,0.0,0.0,0.0,0.0,0.0,0.0,0.0,0.0,0.0,0.0,0.0,0.0,0.0,0.0,0.0,0.0,0.0,0.0,0.0,0.0,0.0,0.0,0.0,0.0,0.0,0.0,0.0,0.0,0.0,0.0,0.0,0.0,0.0,0.0,0.0,0.0,0.0,0.0,0.0,0.0,0.0,0.0,0.0,0.0,0.0,0.0,0.0,0.0,0.0,0.0,0.0,0.0,0.0,0.0,0.0,0.0,0.0,0.0,0.0,0.0,0.0,0.0,0.0,0.0,0.0,0.0,0.0,0.0,0.0,0.0,0.0,0.0,0.0,0.0,0.0,0.0,0.0,0.0,0.0,0.0,0.0,0.0,0.0,0.0,0.0,0.0,0.0,0.0,0.0,0.0,0.0,0.0,0.0,0.0,0.0,0.0,0.0,0.0,0.0,0.0,0.0,0.0,0.0,0.0,0.0,0.0,0.0,0.0,0.0,0.0,0.0,0.0,0.0,0.0,0.0,0.0,0.0,0.0,0.0,0.0,0.0,0.0,0.0,0.0,0.0,0.0,0.0,0.0,0.0,0.0,0.0,0.0,0.0,0.0,0.0,0.0,0.0,0.0,0.0,0.0,0.0,0.0,0.0,0.0,0.0,0.0,0.0,0.0,0.0,0.0,0.0,0.0,0.0,0.0,0.0,0.0,0.0,0.0,0.0,0.0,0.0,0.0,0.0,0.0,0.0,0.0,0.0,0.0,0.0,0.0,0.0,0.0,0.0,0.0,0.0,0.0,0.0,0.0,0.0,0.0,0.0,0.0,0.0,0.0,0.0,0.0,0.0,0.0,0.0,0.0,0.0,0.0,0.0,0.0,0.0,0.0,0.0,0.0,0.0,0.0,0.0,0.0,0.0,0.0,0.0,0.0,0.0,0.0,0.0,0.0,0.0,0.0,0.0,0.0,0.0,0.0,0.0,0.0,0.0,0.0,0.0,0.0,0.0,0.0,0.0,0.0,0.0,0.0,0.0,0.0,0.0,0.0,0.0,0.0,0.0,0.0,0.0,0.0,0.0,0.0,0.0,0.0,0.0,0.0,0.0,0.0,0.0,0.0,0.0,0.0,0.0,0.0,0.0,0.0,0.0,0.0,0.0,0.0,0.0,0.0,0.0,0.0,0.0,0.0,0.0,0.0,0.0,0.0,0.0,0.0,0.0,0.0,0.0,0.0,0.0,0.0,0.0,0.0,0.0,0.0,0.0,0.0,0.0,0.0,0.0,0.0,0.0,0.0,0.0,0.0,0.0,0.0,0.0,0.0,0.0,0.0,0.0,0.0,0.0,0.0,0.0,0.0,0.0,0.0,0.0,0.0,0.0,0.0,0.0,0.0,0.0,0.0,0.0,0.0,0.0,0.0,0.0,0.0,0.0,0.0,0.0,0.0,0.0,0.0,0.0,0.0,0.0,0.0,0.0,0.0,0.0,0.0,0.0,0.0,0.0,0.0,0.0,0.0,0.0,0.0,0.0,0.0,0.0,0.0,0.0,0.0,0.0,0.0,0.0,0.0,0.0,0.0,0.0,0.0,0.0,0.0,0.0,0.0,0.0,0.0,0.0,0.0,0.0,0.0,0.0,0.0,0.0,0.0,0.0,0.0,0.0,0.0,0.0,0.0,0.0,0.0,0.0,0.0,0.0,0.0,0.0,0.0,0.0,0.0,0.0,0.0,0.0,0.0,0.0,0.0,0.0,0.0,0.0,0.0,0.0,0.0,0.0,0.0,0.0,0.0,0.0,0.0,0.0,0.0,0.0,0.0,0.0,0.0,0.0,0.0,0.0,0.0,0.0,0.0,0.0,0.0,0.0,0.0,0.0,0.0,0.0,0.0,0.0,0.0,0.0,0.0,0.0,0.0,0.0,0.0,0.0,0.0,0.0,0.0,0.0,0.0,0.0,0.0,0.0,0.0,0.0,0.0,0.0,0.0,0.0,0.0,0.0,0.0,0.0,0.0,0.0,0.0,0.0,0.0,0.0,0.0,0.0,0.0,0.0,0.0,0.0,0.0,0.0,0.0,0.0,0.0,0.0,0.0,0.0,0.0,0.0,0.0,0.0,0.0,0.0,0.0,0.0,0.0,0.0,0.0,0.0,0.0,0.0,0.0,0.0,0.0,0.0,0.0,0.0,0.0,0.0,0.0,0.0,0.0,0.0,0.0,0.0,0.0,0.0,0.0,0.0,0.0,0.0,0.0,0.0,0.0,0.0,0.0,0.0,0.0,0.0,0.0,0.0,0.0,0.0,0.0,0.0,0.0,0.0,0.0,0.0,0.0,0.0,0.0,0.0,0.0,0.0,0.0,0.0,0.0,0.0,0.0,0.0,0.0,0.0,0.0,0.0,0.0,0.0,0.0,0.0,0.0,0.0,0.0,0.0,0.0,0.0,0.0,0.0,0.0,0.0,0.0,0.0,0.0,0.0,0.0,0.0,0.0,0.0,0.0,0.0,0.0,0.0,0.0,0.0,0.0,0.0,0.0,0.0,0.0,0.0,0.0,0.0,0.0,0.0,0.0,0.0,0.0,0.0,0.0,0.0,0.0,0.0,0.0,0.0,0.0,0.0,0.0,0.0,0.0,0.0,0.0,0.0,0.0,0.0,0.0,0.0,0.0,0.0,0.0,0.0,0.0,0.0,0.0,0.0,0.0,0.0,0.0,0.0,0.0,0.0,0.0,0.0,0.0,0.0,0.0,0.0,0.0,0.0,0.0,0.0,0.0,0.0,0.0,0.0,0.0,0.0,0.0,0.0,0.0,0.0,0.0,0.0,0.0,0.0,0.0,0.0,0.0,0.0,0.0,0.0,0.0,0.0,0.0,0.0,0.0,0.0,0.0,0.0,0.0,0.0,0.0,0.0,0.0,0.0,0.0,0.0,0.0,0.0,0.0,0.0,0.0,0.0,0.0,0.0,0.0,0.0,0.0,0.0,0.0,0.0,0.0,0.0,0.0,0.0,0.0,0.0,0.0,0.0,0.0,0.0,0.0,0.0,0.0,0.0,0.0,0.0,0.0,0.0,0.0,0.0,0.0,0.0,0.0,0.0,0.0,0.0,0.0,0.0,0.0,0.0,0.0,0.0,0.0,0.0,0.0,0.0,0.0,0.0,0.0,0.0,0.0,0.0,0.0,0.0,0.0,0.0,0.0,0.0,0.0,0.0,0.0,0.0,0.0,0.0,0.0,0.0,0.0,0.0,0.0,0.0,0.0,0.0,0.0,0.0,0.0,0.0,0.0,0.0,0.0,0.0,0.0,0.0,0.0,0.0,0.0,0.0,0.0,0.0,0.0,0.0,0.0,0.0,0.0,0.0,0.0,0.0,0.0,0.0,0.0,0.0,0.0,0.0,0.0,0.0,0.0,0.0,0.0,0.0,0.0,0.0,0.0,0.0,0.0,0.0,0.0,0.0,0.0,0.0,0.0,0.0,0.0,0.0,0.0,0.0,0.0,0.0,0.0,0.0,0.0,0.0,0.0,0.0,0.0,0.0,0.0,0.0,0.0,0.0,0.0,0.0,0.0,0.0,0.0,0.0,0.0,0.0,0.0,0.0,0.0,0.0,0.0,0.0,0.0,0.0,0.0,0.0,0.0,0.0,0.0,0.0,0.0,0.0,0.0,0.0,0.0,0.0,0.0,0.0,0.0,0.0,0.0,0.0,0.0,0.0,0.0,0.0,0.0,0.0,0.0,0.0,0.0,0.0,0.0,0.0,0.0,0.0,0.0,0.0,0.0,0.0,0.0,0.0,0.0,0.0,0.0,0.0,0.0,0.0,0.0,0.0,0.0,0.0,0.0,0.0,0.0,0.0,0.0,0.0,0.0,0.0,0.0,0.0,0.0,0.0,0.0,0.0,0.0,0.0,0.0,0.0,0.0,0.0,0.0,0.0,0.0,0.0,0.0,0.0,0.0,0.0,0.0,0.0,0.0,0.0,0.0,0.0,0.0,0.0,0.0,0.0,0.0,0.0,0.0,0.0,0.0,0.0,0.0,0.0,0.0,0.0,0.0,0.0,0.0,0.0,0.0,0.0,0.0,0.0,0.0,0.0,0.0,0.0,0.0,0.0,0.0,0.0,0.0,0.0,0.0,0.0,0.0,0.0,0.0,0.0,0.0,0.0,0.0,0.0,0.0,0.0,0.0,0.0,0.0,0.0,0.0,0.0,0.0,0.0,0.0,0.0,0.0,0.0,0.0,0.0,0.0,0.0,0.0,0.0,0.0,0.0,0.0,0.0,0.0,0.0,0.0,0.0,0.0,0.0,0.0,0.0,0.0,0.0,0.0,0.0,0.0,0.0,0.0,0.0,0.0,0.0,0.0,0.0,0.0,0.0,0.0,0.0,0.0,0.0,0.0,0.0,0.0,0.0,0.0,0.0,0.0,0.0,0.0,0.0,0.0,0.0,0.0,0.0,0.0,0.0,0.0,0.0,0.0,0.0,0.0,0.0,0.0,0.0,0.0,0.0,0.0,0.0,0.0,0.0,0.0,0.0,0.0,0.0,0.0,0.0,0.0,0.0,0.0,0.0,0.0,0.0,0.0,0.0,0.0,0.0,0.0,0.0,0.0,0.0,0.0,0.0,0.0,0.0,0.0,0.0,0.0,0.0,0.0,0.0,0.0,0.0,0.0,0.0,0.0,0.0,0.0,0.0,0.0,0.0,0.0,0.0,0.0,0.0,0.0,0.0,0.0,0.0,0.0,0.0,0.0,0.0,0.0,0.0,0.0,0.0,0.0,0.0,0.0,0.0,0.0,0.0,0.0,0.0,0.0,0.0,0.0,0.0,0.0,0.0,0.0,0.0,0.0,0.0,0.0,0.0,0.0,0.0,0.0,0.0,0.0,0.0,0.0,0.0,0.0,0.0,0.0,0.0,0.0,0.0,0.0,0.0,0.0,0.0,0.0,0.0,0.0,0.0,0.0,0.0,0.0,0.0,0.0,0.0,0.0,0.0,0.0,0.0,0.0,0.0,0.0,0.0,0.0,0.0,0.0,0.0,0.0,0.0,0.0,0.0,0.0,0.0,0.0,0.0,0.0,0.0,0.0,0.0,0.0,0.0,0.0,0.0,0.0,0.0,0.0,0.0,0.0,0.0,0.0,0.0,0.0,0.0,0.0,0.0,0.0,0.0,0.0,0.0,0.0,0.0,0.0,0.0,0.0,0.0,0.0,0.0,0.0,0.0,0.0,0.0,0.0,0.0,0.0,0.0,0.0,0.0,0.0,0.0,0.0,0.0,0.0,0.0,0.0,0.0,0.0,0.0,0.0,0.0,0.0,0.0,0.0,0.0,0.0,0.0,0.0,0.0,0.0,0.0,0.0,0.0,0.0,0.0,0.0,0.0,0.0,0.0,0.0,0.0,0.0,0.0,0.0,0.0,0.0,0.0,0.0,0.0,0.0,0.0,0.0,0.0,0.0,0.0,0.0,0.0,0.0,0.0,0.0,0.0,0.0,0.0,0.0,0.0,0.0,0.0,0.0,0.0,0.0,0.0,0.0,0.0,0.0,0.0,0.0,0.0,0.0,0.0,0.0,0.0,0.0,0.0,0.0,0.0,0.0,0.0,0.0,0.0,0.0,0.0,0.0,0.0,0.0,0.0,0.0,0.0,0.0,0.0,0.0,0.0,0.0,0.0,0.0,0.0,0.0,0.0,0.0,0.0,0.0,0.0,0.0,0.0,0.0,0.0,0.0,0.0,0.0,0.0,0.0,0.0,0.0,0.0,0.0,0.0,0.0,0.0,0.0,0.0,0.0,0.0,0.0,0.0,0.0,0.0,0.0,0.0,0.0,0.0,0.0,0.0,0.0,0.0,0.0,0.0,0.0,0.0,0.0,0.0,0.0,0.0,0.0,0.0,0.0,0.0,0.0,0.0,0.0,0.0,0.0,0.0,0.0,0.0,0.0,0.0,0.0,0.0,0.0,0.0,0.0,0.0,0.0,0.0,0.0,0.0,0.0,0.0,0.0,0.0,0.0,0.0,0.0,0.0,0.0,-3.5858,0.0,0.0,0.0,0.0,0.0,0.0,0.0,0.0,0.0,0.0,0.0,0.0,0.0,0.0,0.0,0.0,0.0,0.0,0.0,0.0,0.0,0.0,0.0,0.0,0.0,0.0,0.0,0.0,0.0,0.0,0.0,0.0,0.0,0.0,0.0,0.0,0.0,0.0,0.0,0.0,0.0,0.0,0.0,0.0,0.0,0.0,0.0,0.0,0.0,0.0,0.0,0.0,0.0,0.0,0.0,0.0,0.0,0.0,0.0,0.0,0.0,0.0,0.0,0.0,0.0,0.0,0.0,0.0,0.0,0.0,0.0,0.0,0.0,0.0,0.0,0.0,0.0,0.0,0.0,0.0,0.0,0.0,0.0,0.0,0.0,0.0,0.0,0.0,0.0,0.0,0.0,0.0,0.0,0.0,0.0,0.0,0.0,0.0,0.0,0.0,0.0,0.0,0.0,0.0,0.0,0.0,0.0,0.0,0.0,0.0,0.0,0.0,0.0,0.0,0.0,0.0,-3.5805,0.0,0.0,0.0,0.0,0.0,0.0,0.0,0.0,0.0,0.0,0.0,0.0,0.0,0.0,0.0,0.0,0.0,0.0,0.0,0.0,0.0,0.0,0.0,0.0,0.0,0.0,0.0,0.0,0.0,0.0,0.0,0.0,0.0,0.0,0.0,0.0,0.0,0.0,0.0,0.0,0.0,0.0,0.0,0.0,0.0,0.0,0.0,0.0,0.0,0.0,0.0,0.0,0.0,0.0,0.0,0.0,0.0,0.0,0.0,0.0,0.0,0.0,0.0,0.0,0.0,0.0,0.0,0.0,0.0,0.0,0.0,0.0,0.0,0.0,0.0,0.0,0.0,0.0,0.0,0.0,0.0,0.0,0.0,0.0,0.0,0.0,0.0,0.0,0.0,0.0,0.0,0.0,0.0,0.0,0.0,0.0,0.0,0.0,0.0,0.0,0.0,0.0,0.0,0.0,0.0,0.0,0.0,0.0,-3.5663,-3.5671,-3.5671,-3.5671,-3.5639,-3.5599,-3.5629,-3.5663,-3.5686,-3.5794,0.0,0.0,0.0,0.0,0.0,0.0,0.0,0.0,0.0,0.0,0.0,0.0,0.0,0.0,0.0,0.0,0.0,0.0,0.0,0.0,0.0,0.0,0.0,0.0,0.0,0.0,0.0,0.0,0.0,0.0,0.0,0.0,0.0,0.0,0.0,0.0,0.0,0.0,-3.4694,-3.4753,-3.4764,-3.4832,-3.5297,0.0,0.0,0.0,0.0,0.0,0.0,0.0,0.0,0.0,0.0,0.0,0.0,0.0,0.0,0.0,0.0,0.0,0.0,0.0,0.0,0.0,0.0,0.0,0.0,0.0,0.0,0.0,0.0,0.0,0.0,0.0,0.0,0.0,0.0,0.0,0.0,0.0,0.0,0.0,0.0,0.0,0.0,0.0,-4.0436,-4.0533,0.0,0.0,0.0,0.0,0.0,0.0,0.0,0.0,0.0,0.0,0.0,0.0,0.0,-3.5765,-3.5862,-3.5691,-3.5616,-3.5616,-3.5544,-3.5534,-3.5534,-3.5534,-3.5522,-3.5521,-3.5522,0.0,-3.5616,-3.5636,0.0,0.0,0.0,0.0,0.0,0.0,0.0,0.0,0.0,0.0,0.0,0.0,0.0,0.0,0.0,0.0,0.0,0.0,0.0,0.0,0.0,0.0,0.0,0.0,0.0,0.0,0.0,0.0,0.0,0.0,0.0,0.0,0.0,0.0,0.0,0.0,-3.4478,-3.4353,-3.4196,-3.4353,-3.4412,-3.4434,-3.487,-3.513,-3.5289,-3.5439,0.0,0.0,0.0,0.0,0.0,0.0,0.0,0.0,0.0,0.0,0.0,0.0,0.0,0.0,0.0,0.0,0.0,0.0,0.0,0.0,0.0,0.0,0.0,0.0,0.0,0.0,0.0,0.0,0.0,0.0,0.0,0.0,0.0,0.0,0.0,0.0,0.0,0.0,0.0,-4.034,-4.0602,-4.0602,-4.061,-4.0635,0.0,0.0,0.0,0.0,0.0,0.0,0.0,0.0,0.0,-3.8855,-3.7649,-3.6991,-3.6991,-3.696,-3.6948,-3.6948,-3.6927,-3.6911,-3.6911,-3.6911,-3.6911,-3.6911,-3.6911,-3.6914,-3.6877,-3.5961,-3.5654,-3.5748,0.0,0.0,0.0,0.0,-3.5814,-3.5834,0.0,0.0,0.0,0.0,0.0,0.0,0.0,0.0,0.0,0.0,0.0,0.0,0.0,0.0,0.0,-3.479,0.0,0.0,0.0,0.0,0.0,0.0,0.0,0.0,0.0,0.0,0.0,-3.4402,-3.4624,-3.4646,-3.4444,-3.4641,-3.4624,-3.4414,-3.475,-3.4942,-3.5008,-3.5207,-3.5327,0.0,0.0,0.0,0.0,0.0,0.0,0.0,0.0,0.0,0.0,0.0,0.0,0.0,0.0,0.0,0.0,0.0,0.0,0.0,0.0,0.0,0.0,0.0,0.0,0.0,0.0,0.0,0.0,0.0,0.0,0.0,0.0,0.0,0.0,0.0,0.0,0.0,0.0,-4.0496,-4.0496,-4.0496,-4.0496,-4.0496,0.0,0.0,0.0,0.0,0.0,0.0,-4.0496,-3.9746,-3.9304,-3.9304,-3.8661,-3.8334,-3.8334,-3.8546,-3.8546,-3.8334,-3.8334,-3.8219,-3.8007,-3.8007,-3.8007,-3.8007,-3.8007,-3.8007,-3.788,-3.6471,-3.5903,-3.5931,-3.5732,-3.5682,-3.5703,-3.5678,-3.5686,-3.5703,0.0,0.0,0.0,0.0,0.0,0.0,0.0,0.0,0.0,0.0,0.0,0.0,0.0,0.0,-3.5593,-3.4769,-3.4694,-3.4694,0.0,0.0,0.0,0.0,0.0,0.0,0.0,0.0,0.0,-3.4959,-3.5799,-3.6189,-3.6156,-3.6203,-3.5762,-3.4972,-3.5311,-3.5169,-3.4714,-3.4724,-3.4898,-3.5122,0.0,0.0,0.0,0.0,0.0,0.0,0.0,0.0,0.0,0.0,0.0,0.0,0.0,0.0,0.0,0.0,0.0,0.0,0.0,0.0,0.0,0.0,0.0,0.0,0.0,0.0,0.0,0.0,0.0,0.0,0.0,0.0,0.0,0.0,0.0,0.0,0.0,0.0,0.0,-4.0496,-4.0496,0.0,0.0,0.0,0.0,-4.0496,-4.0496,-4.0496,-4.0496,-3.9746,-3.9304,-3.9304,-3.9265,-3.9227,-3.9227,-3.9996,-3.9996,-3.9227,-3.9227,-3.8796,-3.8007,-3.8007,-3.8007,-3.8007,-3.8007,-3.8007,-3.793,-3.7014,-3.671,-3.6748,-3.5926,-3.5638,-3.5693,-3.5626,-3.5657,-3.5693,0.0,0.0,0.0,0.0,0.0,0.0,0.0,0.0,0.0,0.0,0.0,0.0,0.0,-3.5619,-3.461,-3.4154,-3.4123,-3.4123,-3.4123,0.0,0.0,0.0,0.0,0.0,0.0,0.0,-3.5952,-3.5844,-3.6156,-3.6303,-3.6303,-3.6303,-3.6138,-3.5826,-3.5381,-3.5058,-3.4884,-3.4763,-3.4763,-3.487,-3.5025,-3.5166,0.0,0.0,0.0,0.0,0.0,0.0,0.0,0.0,0.0,0.0,0.0,0.0,0.0,0.0,0.0,0.0,0.0,0.0,0.0,0.0,0.0,0.0,0.0,0.0,0.0,0.0,0.0,0.0,0.0,0.0,0.0,0.0,0.0,0.0,0.0,0.0,0.0,-4.0496,-4.0496,0.0,-4.0496,-4.0496,-4.0727,-4.1296,-4.1335,-4.1585,-4.2143,-4.1893,-4.1739,-4.1739,-4.1739,-4.1739,-4.1739,-4.2027,-4.2027,-4.1739,-4.1739,-4.1585,-4.1277,-4.1277,-4.0989,-4.045,-4.045,-4.0123,-3.9534,-3.87,-3.8063,-3.7585,-3.7276,-3.7154,-3.7177,-3.7141,-3.7154,-3.71,0.0,0.0,0.0,0.0,0.0,0.0,0.0,0.0,0.0,0.0,0.0,-3.6848,-3.6599,-3.5063,-3.3981,-3.3815,-3.3807,-3.3807,-3.3807,0.0,0.0,0.0,0.0,0.0,0.0,-3.6266,-3.6703,-3.6703,-3.6982,-3.711,-3.711,-3.711,-3.6964,-3.667,-3.6101,-3.5683,-3.5399,-3.4971,-3.4693,-3.4551,-3.4716,-3.4851,-3.499,0.0,0.0,0.0,0.0,0.0,0.0,0.0,0.0,0.0,0.0,0.0,0.0,0.0,0.0,0.0,0.0,0.0,0.0,0.0,0.0,0.0,0.0,0.0,0.0,0.0,0.0,0.0,0.0,0.0,0.0,0.0,0.0,0.0,0.0,0.0,-4.0496,-4.0496,-4.0766,-4.0931,-4.0931,-4.12,-4.1623,-4.22,-4.2239,-4.2489,-4.3066,-4.3104,-4.3104,-4.3104,-4.3355,-4.3508,-4.3508,-4.3797,-4.3797,-4.3508,-4.3508,-4.3355,-4.3104,-4.3104,-4.2777,-4.2239,-4.2239,-4.1912,-4.1343,-4.0796,-4.0065,-3.92,-3.8334,-3.8007,-3.8007,-3.8007,-3.8007,-3.7911,0.0,0.0,0.0,0.0,0.0,0.0,0.0,0.0,0.0,0.0,-3.7683,-3.6586,-3.6328,-3.4798,-3.3807,-3.3807,-3.3807,-3.3807,-3.3807,-3.3825,0.0,0.0,0.0,0.0,-3.634,-3.7125,-3.7547,-3.7547,-3.8322,-3.8707,-3.8707,-3.8707,-3.8285,-3.7547,-3.7511,-3.707,-3.6266,-3.5408,-3.4747,-3.425,-3.4225,-3.439,-3.4714,0.0,0.0,0.0,0.0,0.0,0.0,0.0,0.0,0.0,0.0,0.0,0.0,0.0,0.0,0.0,0.0,0.0,0.0,0.0,0.0,0.0,0.0,0.0,0.0,0.0,0.0,0.0,0.0,0.0,0.0,0.0,0.0,0.0,-4.0496,-4.0516,-4.0535,-4.0535,-4.1316,-4.1846,-4.1846,-4.2604,-4.3104,-4.3143,-4.3143,-4.3143,-4.3181,-4.3181,-4.3181,-4.3181,-4.3932,-4.4335,-4.4335,-4.519,-4.519,-4.4335,-4.4335,-4.3932,-4.3181,-4.3181,-4.3162,-4.3143,-4.3143,-4.3124,-4.3104,-4.3104,-4.2604,-4.1596,-3.9084,-3.8104,-3.8084,-3.8084,-3.8065,-3.8046,0.0,0.0,0.0,0.0,0.0,0.0,0.0,0.0,0.0,0.0,-3.7399,-3.6376,-3.6317,-3.4798,-3.3807,-3.3807,-3.3807,-3.3807,-3.3807,0.0,0.0,0.0,0.0,0.0,-3.718,-3.7955,-3.8377,-3.8377,-3.8597,-3.8707,-3.8707,-3.8707,-3.8579,-3.834,-3.7768,-3.7382,-3.7125,-3.6285,-3.5864,-3.5625,-3.4612,-3.4265,-3.4379,0.0,0.0,0.0,0.0,0.0,0.0,0.0,0.0,0.0,0.0,0.0,0.0,0.0,0.0,0.0,0.0,0.0,0.0,0.0,0.0,0.0,0.0,0.0,0.0,0.0,0.0,0.0,0.0,0.0,0.0,0.0,0.0,-4.1219,-4.0593,-4.1046,-4.145,-4.145,-4.222,-4.2739,-4.2739,-4.297,-4.3335,-4.3932,-4.397,-4.4239,-4.4883,-4.4921,-4.4921,-4.4921,-4.5133,-4.5248,-4.5248,-4.5479,-4.5479,-4.5248,-4.5248,-4.5133,-4.4921,-4.4921,-4.4566,-4.397,-4.397,-4.3643,-4.3104,-4.3104,-4.297,-4.2604,-4.1277,-4.0373,-3.9804,-3.9804,-3.9438,-3.8931,0.0,0.0,0.0,0.0,0.0,0.0,0.0,0.0,0.0,0.0,-3.7092,-3.6156,-3.5807,-3.4596,-3.3807,-3.3807,-3.3807,-3.3935,-3.427,0.0,0.0,0.0,0.0,-3.8172,-3.8502,-3.8964,-3.9368,-3.9701,-3.9701,-3.9701,-3.9698,-3.9368,-3.9203,-3.9166,-3.8358,-3.7991,-3.7936,-3.7144,-3.6813,-3.6699,-3.5531,-3.4851,-3.4537,-3.4499,-3.4497,-3.454,-3.4822,-3.4935,-3.4972,-3.5239,0.0,0.0,0.0,0.0,0.0,0.0,0.0,0.0,0.0,0.0,0.0,0.0,0.0,0.0,0.0,0.0,0.0,0.0,0.0,0.0,0.0,0.0,0.0,0.0,-4.147,-4.1758,-4.1604,-4.2027,-4.2335,-4.2335,-4.3085,-4.3605,-4.3605,-4.3932,-4.4335,-4.4797,-4.4836,-4.5075,-4.5575,-4.5594,-4.5594,-4.5594,-4.5594,-4.5594,-4.5594,-4.5594,-4.5594,-4.5594,-4.5594,-4.5594,-4.5594,-4.5594,-4.5325,-4.4836,-4.4836,-4.4586,-4.4143,-4.4143,-4.3932,0.0,0.0,0.0,0.0,0.0,-4.0208,-3.9804,0.0,0.0,0.0,0.0,0.0,0.0,0.0,0.0,0.0,0.0,0.0,-3.5973,-3.5096,-3.427,-3.3807,-3.3807,-3.3807,-3.4192,0.0,0.0,0.0,-3.7621,-3.8414,-3.9166,-3.9879,-3.9992,-4.0396,-4.1095,-4.1095,-4.1095,-4.1077,-4.0377,-4.0029,-3.9992,-3.9184,-3.8836,-3.8781,-3.7988,-3.7639,-3.7566,-3.6762,-3.5917,-3.5069,-3.45,-3.4289,-3.4325,-3.4567,-3.4663,-3.4734,-3.5008,0.0,0.0,0.0,0.0,0.0,0.0,0.0,0.0,0.0,0.0,0.0,0.0,0.0,0.0,0.0,0.0,0.0,0.0,0.0,0.0,0.0,0.0,0.0,0.0,-4.2019,-4.2354,-4.3124,-4.3316,-4.3355,-4.3258,-4.3951,-4.4451,-4.4451,-4.5152,-4.5594,-4.5594,-4.5594,-4.5594,-4.5594,0.0,0.0,0.0,0.0,-4.5594,-4.5594,-4.5594,-4.5594,-4.5594,-4.5594,-4.5594,-4.5594,-4.5594,-4.5594,-4.5594,-4.5594,-4.5594,-4.5594,-4.5594,-4.5152,-4.4355,-4.3451,-4.2624,-4.1835,-4.0969,-4.065,-4.0631,0.0,0.0,0.0,0.0,0.0,0.0,0.0,0.0,0.0,-3.7603,-3.6813,-3.5973,-3.5096,-3.427,-3.3807,-3.3807,-3.3807,-3.4431,0.0,0.0,-3.7786,-3.8432,-3.9239,-3.9735,-3.99,-4.0543,-4.093,-4.1095,-4.1095,-4.1095,-4.1095,-4.093,-4.0873,-4.082,-4.0029,-3.9662,-3.9606,-3.8799,-3.8469,-3.8395,-3.7603,-3.6795,-3.5954,-3.5161,-3.4843,-3.4805,-3.4425,-3.4456,-3.4734,-3.5008,-3.5239,-3.5432,-3.5486,0.0,0.0,0.0,0.0,0.0,0.0,0.0,0.0,0.0,0.0,0.0,0.0,0.0,0.0,0.0,0.0,0.0,0.0,0.0,0.0,-4.272,-4.3393,-4.3874,-4.4047,-4.4662,-4.4863,-4.4143,-4.4816,-4.5344,-4.5344,-4.5498,-4.5594,-4.5594,-4.5594,-4.5594,-4.5594,-4.5594,-4.5594,-4.5594,-4.5594,-4.5594,-4.5594,-4.5594,-4.5594,-4.5594,0.0,0.0,-4.5594,-4.5594,-4.5594,-4.5594,-4.5594,-4.5594,-4.5594,-4.5594,-4.5498,-4.521,-4.3682,-4.3008,-4.2739,-4.1873,-4.1546,-4.145,0.0,0.0,0.0,0.0,0.0,0.0,0.0,0.0,0.0,0.0,-3.6556,-3.5807,-3.4527,-3.4045,-3.3807,-3.3807,-3.4578,0.0,0.0,-3.7422,-3.845,-3.9276,-3.968,-4.0267,-4.1075,-4.1497,-4.1901,-4.2304,-4.2304,-4.2304,-4.2286,-4.1901,-4.1699,-4.168,-4.0855,-4.0286,-3.9863,-3.946,-3.9074,-3.867,-3.8267,-3.7863,-3.7367,-3.6105,-3.5646,-3.5574,-3.5045,-3.4965,-3.5112,-3.5096,-3.519,-3.532,-3.5453,-3.6654,-3.7966,0.0,0.0,0.0,0.0,0.0,0.0,0.0,0.0,0.0,0.0,0.0,0.0,0.0,0.0,-4.0959,0.0,0.0,-4.2477,-4.353,-4.4047,-4.4451,-4.4893,-4.5325,-4.5441,-4.4998,-4.5325,-4.5594,-4.5594,-4.5594,-4.5594,-4.5594,-4.5594,-4.5594,-4.5594,-4.5594,-4.5594,-4.5594,-4.5594,-4.5594,-4.5594,-4.5594,-4.5594,-4.5594,-4.5594,-4.5594,-4.5594,-4.5594,-4.5594,-4.5594,-4.5594,-4.5594,-4.5594,-4.5594,-4.5594,-4.5518,-4.469,-4.4085,-4.3605,-4.2758,-4.2181,-4.1731,0.0,0.0,0.0,0.0,0.0,0.0,0.0,0.0,0.0,0.0,-3.6303,-3.5661,-3.3972,-3.3807,-3.3807,0.0,0.0,0.0,0.0,-3.7808,-3.9001,-3.9643,-3.9955,-4.0744,-4.2047,-4.2378,-4.2837,-4.3515,-4.3515,-4.3515,-4.3496,-4.2837,-4.2525,-4.2506,-4.1682,-4.0983,-4.0341,-4.0029,-3.9533,-3.8927,-3.8762,-3.8707,-3.856,-3.7257,-3.667,-3.6419,-3.5673,-3.5442,-3.5445,-3.5067,-3.4981,-3.507,-3.5281,-3.6485,-3.7775,-3.7499,-3.8856,0.0,0.0,0.0,0.0,0.0,0.0,0.0,0.0,0.0,-4.0587,-4.1033,-4.113,-4.148,-4.2638,-4.2791,-4.3137,-4.4277,-4.4402,-4.4604,-4.5314,-4.5457,-4.5485,-4.5419,-4.5513,-4.5594,-4.5594,-4.5594,-4.5594,-4.5594,-4.5594,-4.5594,-4.5594,-4.5594,-4.5594,-4.5594,-4.5594,-4.5594,-4.5594,-4.5594,-4.5594,-4.5594,-4.5594,-4.5594,-4.5594,-4.5594,-4.5594,-4.5594,-4.5594,-4.5594,-4.5594,-4.5594,-4.5594,-4.5594,-4.5594,-4.5171,-4.4451,-4.3624,-4.2797,-4.2019,0.0,0.0,0.0,0.0,0.0,0.0,0.0,0.0,0.0,0.0,0.0,0.0,0.0,0.0,0.0,0.0,0.0,0.0,-3.6303,-3.7808,-3.8744,-3.8836,-4.0196,-4.104,-4.1224,-4.2635,-4.3423,-4.3515,-4.3515,-4.3515,-4.3515,-4.3423,-4.3369,-4.3331,-4.2525,-4.2121,-4.1937,-4.0506,-3.9845,-3.9698,-3.9001,-3.8707,-3.8689,-3.8505,-3.7991,-3.7162,-3.5611,-3.5256,-3.5385,-3.458,-3.45,-3.4744,-3.4774,-3.59,-3.7186,-3.7154,0.0,-4.0139,-4.011,-4.012,-4.0072,-3.9786,-4.0223,-4.0724,0.0,0.0,-4.1879,-4.2235,-4.2307,-4.2686,-4.3892,-4.3857,-4.3952,-4.4872,-4.4756,-4.4613,-4.4707,-4.4966,-4.5052,-4.4745,-4.5243,-4.5594,-4.5594,-4.5594,-4.5594,-4.5594,-4.5594,-4.5594,-4.5594,-4.5594,-4.5594,-4.5594,-4.5594,-4.5594,-4.5594,-4.5594,-4.5594,-4.5594,-4.5594,-4.5594,-4.5594,-4.5594,-4.5594,-4.5594,-4.5594,-4.5594,-4.5594,-4.5594,-4.5594,-4.5594,-4.5594,-4.5537,-4.5344,-4.447,-4.3643,-4.2835,0.0,0.0,0.0,0.0,0.0,0.0,0.0,0.0,0.0,0.0,0.0,0.0,0.0,0.0,0.0,0.0,0.0,0.0,-3.6266,-3.7367,-3.8414,-3.935,-4.0047,-4.0616,-4.1095,-4.2213,-4.28,-4.28,-4.3276,-4.3515,-4.3515,-4.3515,-4.3515,-4.3496,-4.3149,-4.2488,-4.157,-4.0891,-4.0065,-3.9166,-3.8836,-3.8707,-3.8707,-3.8707,-3.8193,-3.7375,-3.6343,-3.609,0.0,0.0,-3.4582,-3.4694,-3.4694,-3.5788,-3.7068,-3.6902,-3.8271,0.0,-3.9808,-4.0004,-4.0232,-4.028,-4.0785,-4.1266,-4.1266,-4.1528,-4.1889,-4.2301,-4.2394,-4.2749,-4.3914,-4.4014,-4.4107,0.0,-4.4682,-4.4593,-4.4593,-4.4707,-4.4763,-4.4624,-4.4861,-4.5011,-4.5011,-4.5182,-4.5312,-4.5312,-4.5495,-4.5594,-4.5594,-4.5594,-4.5594,-4.5594,-4.5594,-4.5594,-4.5594,-4.5594,-4.5594,-4.5594,-4.5594,-4.5594,-4.5594,-4.5594,-4.5594,-4.5594,-4.5594,-4.5594,-4.5594,-4.5594,-4.5594,-4.5594,-4.5594,-4.5594,-4.5556,-4.519,-4.422,-4.3047,0.0,0.0,0.0,0.0,0.0,0.0,0.0,0.0,0.0,0.0,0.0,0.0,0.0,0.0,0.0,0.0,0.0,0.0,0.0,-3.6923,-3.8025,-3.92,-3.9659,-4.0175,-4.0763,-4.157,-4.1974,-4.1974,-4.2543,-4.2837,-4.2837,-4.2837,-4.2837,-4.2837,-4.2837,-4.2194,-4.1077,-4.0857,-4.0102,-3.9019,-3.8799,-3.8707,-3.8689,-3.845,-3.8025,-3.7412,-3.6818,-3.6435,0.0,0.0,-3.4461,-3.4498,-3.4712,-3.5754,-3.6868,-3.6904,-3.8277,-3.9795,-3.9795,-4.0224,-4.0696,-4.0846,-4.1348,-4.1775,-4.1775,-4.1976,-4.2248,-4.2685,-4.2763,-4.304,-4.3994,-4.4073,-4.4106,-4.4392,-4.435,-4.4313,-4.4313,-4.4378,-4.4406,-4.4308,-4.4378,-4.4486,-4.4632,-4.4827,-4.5049,-4.5285,-4.5397,-4.5563,-4.5774,-4.5666,-4.5594,-4.5594,-4.5594,-4.5594,-4.5594,-4.5594,-4.5594,-4.5594,-4.5594,-4.5594,-4.5594,-4.5594,-4.5594,-4.5594,-4.5594,-4.5594,-4.5594,-4.5594,-4.5594,-4.5594,-4.5594,-4.5594,-4.5594,-4.5594,-4.4682,-4.3393,0.0,0.0,0.0,0.0,0.0,0.0,0.0,0.0,0.0,0.0,0.0,0.0,0.0,0.0,0.0,0.0,0.0,0.0,0.0,-3.6578,-3.7529,-3.7566,-3.9071,-3.9916,-3.9953,-4.0726,-4.1132,-4.1132,-4.115,-4.1168,-4.1168,-4.1168,-4.1168,-4.1168,-4.1168,-4.115,-4.104,-4.0267,-3.9916,-3.979,-3.9019,-3.8707,-3.8615,-3.7841,-3.7529,-3.7401,-3.6593,0.0,0.0,-3.4109,-3.3815,-3.3962,-3.4738,-3.5597,0.0,-3.725,-3.8802,-4.0277,-4.0277,-4.091,-4.1479,-4.1185,-4.1679,-4.2284,-4.2284,-4.2872,-4.354,-4.3872,-4.3949,-4.4084,-4.4514,-4.4261,-4.3998,-4.4031,-4.3742,-4.3531,-4.3531,-4.382,-4.3896,-4.3563,-4.382,-4.4196,0.0,-4.4651,-4.4932,-4.5717,-4.5364,-4.547,-4.6248,-4.5851,-4.5594,-4.5594,-4.5594,-4.5594,-4.5594,-4.5594,-4.5594,-4.5594,-4.5594,-4.5594,-4.5594,-4.5594,-4.5594,-4.5594,-4.5594,-4.5594,-4.5594,-4.5594,-4.5594,-4.5594,-4.5594,-4.5594,-4.5594,-4.5594,-4.5037,-4.4143,0.0,0.0,0.0,0.0,0.0,0.0,0.0,0.0,0.0,0.0,0.0,0.0,0.0,0.0,0.0,0.0,0.0,0.0,0.0,-3.5536,-3.6101,-3.667,-3.7731,-3.8319,-3.8319,-3.9625,-4.0304,-4.0304,-4.0838,-4.1095,-4.1095,-4.1095,-4.1095,-4.1095,-4.1095,-4.0802,-4.0286,-4.001,-3.9588,-3.9074,-3.8817,-3.8377,-3.7878,-3.7603,-3.6798,-3.5811,0.0,0.0,0.0,-3.4082,-3.3807,-3.3935,-3.4747,-3.5591,-3.667,-3.8539,-3.955,-4.0157,-4.0695,-4.1433,-4.2028,-4.1915,-4.2506,-4.3094,-4.3094,-4.3296,-4.3531,-4.3646,-4.3679,-4.371,-4.3855,-4.3758,-4.3679,-4.3679,-4.3563,-4.3515,-4.3515,-4.3597,-4.3631,-4.3513,-4.4076,0.0,0.0,0.0,0.0,-4.6127,-4.6303,-4.6341,-4.6302,-4.6146,-4.5927,-4.5605,-4.5594,-4.5594,-4.5594,-4.5594,-4.5594,-4.5594,-4.5594,-4.5594,-4.5594,-4.5594,-4.5594,-4.5594,-4.5594,-4.5594,-4.5594,-4.5594,-4.5594,-4.5594,-4.5594,-4.5594,-4.5594,-4.5594,-4.5421,-4.496,0.0,0.0,0.0,0.0,0.0,0.0,0.0,0.0,0.0,0.0,0.0,0.0,0.0,0.0,0.0,0.0,0.0,0.0,0.0,0.0,-3.5261,-3.5807,-3.6615,-3.707,-3.707,-3.8065,-3.8597,-3.8597,-3.9129,-3.9371,-3.9371,-3.9371,-3.9371,-3.9371,-3.9371,-3.9111,-3.8597,-3.8597,-3.8469,-3.8248,-3.7955,-3.7698,-3.7437,-3.6817,-3.5954,0.0,0.0,0.0,-3.4491,-3.3972,-3.399,-3.4376,-3.5188,-3.6248,-3.7514,-3.935,-4.0102,-4.0506,-4.1313,-4.2121,-4.2727,-4.2727,-4.3112,-4.3515,-4.3515,-4.3515,-4.3515,-4.3515,-4.3515,-4.3515,-4.3515,-4.3515,-4.3515,-4.3515,-4.3515,-4.3515,-4.3515,-4.3515,-4.3625,-4.3883,-4.4397,-4.4947,0.0,0.0,0.0,-4.6603,-4.6735,-4.6798,-4.6806,-4.649,-4.6154,-4.586,-4.5695,-4.5594,-4.5594,-4.5594,-4.5594,-4.5594,-4.5594,-4.5594,-4.5594,-4.5594,-4.5594,-4.5594,-4.5594,-4.5594,-4.5594,-4.5594,-4.5594,-4.5594,-4.5594,-4.5594,-4.5594,-4.5594,-4.5594,-4.5364,0.0,0.0,0.0,0.0,0.0,0.0,0.0,0.0,0.0,0.0,0.0,0.0,0.0,0.0,0.0,0.0,0.0,0.0,0.0,0.0,0.0,-3.4949,-3.5771,-3.6229,-3.6229,-3.6266,-3.6303,-3.6303,-3.6303,-3.6303,-3.6303,-3.6303,-3.6303,-3.6303,-3.6303,-3.6303,-3.6303,-3.6303,-3.6725,-3.7364,-3.6611,-3.674,-3.7199,-3.561,0.0,0.0,0.0,0.0,0.0,-3.3807,-3.4362,-3.5224,-3.6083,-3.7459,-3.8927,-3.9735,-4.0524,-4.1334,-4.2139,-4.291,-4.3515,-4.3515,-4.3515,-4.3515,-4.3515,-4.3515,-4.3515,-4.3515,-4.3515,-4.3515,0.0,0.0,-4.3515,-4.3515,-4.3515,-4.3515,-4.3515,-4.3515,-4.3791,0.0,0.0,0.0,0.0,0.0,0.0,-4.7168,0.0,-4.6857,-4.7655,-4.6817,-4.6306,-4.6279,-4.5812,-4.5577,-4.5577,-4.5586,-4.5594,-4.5594,-4.5594,-4.5594,-4.5594,-4.5594,-4.5594,-4.5594,-4.5594,-4.5594,-4.5594,-4.5594,-4.5594,-4.5594,-4.5594,-4.5594,-4.5594,-4.5594,-4.5594,-4.5364,0.0,0.0,0.0,0.0,0.0,0.0,0.0,0.0,0.0,0.0,0.0,0.0,0.0,0.0,0.0,0.0,0.0,0.0,0.0,0.0,0.0,0.0,0.0,0.0,0.0,0.0,0.0,0.0,-3.6303,-3.6303,-3.6303,-3.6303,-3.6303,-3.6303,-3.6303,-3.6303,-3.6303,-3.6303,-3.6413,-3.6578,0.0,-3.6028,-3.5591,0.0,0.0,0.0,0.0,0.0,0.0,0.0,0.0,0.0,-3.6942,-3.83,-3.9753,-4.0561,-4.1368,-4.2176,-4.2983,-4.3332,-4.3515,-4.3515,-4.3515,-4.3515,-4.3515,-4.3515,-4.3515,-4.3515,-4.3515,-4.3515,0.0,0.0,0.0,-4.3515,-4.3515,0.0,-4.3515,-4.3515,0.0,-4.4617,0.0,-4.5993,-4.7003,-4.7626,0.0,0.0,-4.7868,-4.7774,-4.7694,-4.6856,-4.6233,-4.5936,-4.546,-4.5222,-4.5222,-4.5485,-4.5594,-4.5594,-4.5594,-4.5594,-4.5594,-4.5594,-4.5594,-4.5594,-4.5594,-4.5594,-4.5594,-4.5594,-4.5594,-4.5594,-4.5594,-4.5594,-4.5594,-4.5594,-4.5594,-4.546,0.0,0.0,0.0,0.0,0.0,0.0,0.0,0.0,0.0,0.0,0.0,0.0,0.0,0.0,0.0,0.0,0.0,0.0,0.0,0.0,0.0,0.0,0.0,0.0,0.0,0.0,0.0,0.0,0.0,0.0,0.0,-3.5037,-3.5202,-3.5202,-3.5202,-3.5202,-3.5202,-3.5202,0.0,0.0,0.0,0.0,0.0,0.0,0.0,0.0,0.0,0.0,0.0,0.0,0.0,-3.6978,-3.7771,-3.8906,-4.0065,-4.0857,0.0,-4.2488,-4.3277,-4.3515,-4.3515,-4.3515,-4.3515,-4.3515,-4.3515,-4.3515,-4.3515,-4.3515,-4.3515,0.0,-4.3515,-4.3515,0.0,0.0,0.0,0.0,-4.3515,-4.3515,-4.392,0.0,-4.5626,0.0,-4.7498,-4.8049,-4.8306,0.0,-4.8306,-4.8199,-4.7975,-4.7332,-4.6688,-4.6075,-4.564,-4.5311,-4.5096,-4.5429,-4.5594,-4.5594,-4.5594,-4.5594,-4.5594,-4.5594,-4.5594,-4.5594,0.0,-4.5594,-4.5594,-4.5594,-4.5594,-4.5594,-4.5594,-4.5594,-4.5594,-4.5594,-4.5594,-4.5479,0.0,0.0,0.0,0.0,0.0,0.0,0.0,0.0,0.0,0.0,0.0,0.0,0.0,0.0,0.0,0.0,0.0,0.0,0.0,0.0,0.0,0.0,0.0,0.0,0.0,0.0,0.0,0.0,0.0,0.0,0.0,0.0,0.0,0.0,0.0,0.0,0.0,0.0,0.0,0.0,0.0,0.0,0.0,0.0,0.0,0.0,0.0,0.0,0.0,0.0,-3.7492,-3.7658,-3.8579,-3.9405,-4.0212,-4.1022,-4.1827,-4.2598,-4.3296,-4.3515,-4.3515,-4.3515,-4.3515,-4.3515,-4.3515,-4.3515,-4.3515,-4.3515,0.0,-4.3515,-4.3515,-4.3515,-4.3515,-4.3515,0.0,-4.3515,-4.3515,-4.3515,-4.4102,-4.57,-4.5902,-4.6526,-4.8141,-4.8306,-4.8306,-4.8306,-4.8306,-4.8306,-4.8306,-4.7864,-4.7196,-4.6259,-4.5848,-4.5458,-4.5096,-4.5429,-4.5594,-4.5594,-4.5594,-4.5594,-4.5594,-4.5594,-4.5594,-4.5594,-4.5594,-4.5594,-4.5594,-4.5594,-4.5594,-4.5594,-4.5594,-4.5594,-4.5594,-4.5594,-4.5594,-4.5498,0.0,0.0,0.0,0.0,0.0,0.0,0.0,0.0,0.0,0.0,0.0,0.0,0.0,0.0,0.0,0.0,0.0,0.0,0.0,0.0,0.0,0.0,0.0,0.0,0.0,0.0,0.0,0.0,0.0,0.0,0.0,0.0,0.0,0.0,0.0,0.0,0.0,0.0,0.0,0.0,0.0,0.0,0.0,0.0,0.0,0.0,0.0,0.0,0.0,0.0,-3.7492,-3.7768,-3.9221,-4.0249,-4.104,-4.1864,-4.2653,-4.3331,-4.346,-4.3515,-4.3515,-4.3515,-4.3515,-4.3515,-4.3515,-4.3515,0.0,0.0,-4.3515,-4.3515,-4.3515,-4.3515,-4.3515,-4.3515,-4.3515,-4.3515,-4.3515,-4.3515,-4.4102,0.0,-4.5902,-4.6526,-4.8141,-4.8306,0.0,0.0,-4.8306,-4.8306,-4.8306,-4.7591,-4.6649,-4.5456,-4.5017,-4.4896,-4.5096,-4.5429,-4.5594,-4.5594,-4.5594,-4.5594,-4.5594,-4.5594,-4.5594,-4.5594,-4.5594,0.0,-4.5594,-4.5594,-4.5594,-4.5594,-4.5594,-4.5594,-4.5594,-4.5594,-4.5594,-4.5575,0.0,0.0,0.0,0.0,0.0,0.0,0.0,0.0,0.0,0.0,-3.3807,-3.3807,0.0,0.0,0.0,0.0,0.0,0.0,0.0,0.0,0.0,0.0,0.0,0.0,0.0,0.0,-3.3385,-3.254,0.0,0.0,0.0,-3.2596,-3.2981,0.0,0.0,0.0,0.0,0.0,0.0,0.0,0.0,0.0,0.0,0.0,0.0,0.0,0.0,0.0,0.0,0.0,-3.812,-3.8322,-3.9515,-4.0451,-4.126,-4.2066,-4.2873,-4.3515,-4.3515,-4.3515,-4.3515,-4.3515,-4.3515,-4.3515,-4.3515,0.0,0.0,0.0,-4.3515,-4.3515,-4.3515,-4.3515,0.0,-4.3515,-4.3515,-4.3515,-4.3515,-4.3515,-4.3938,-4.5131,-4.5645,-4.6379,-4.7553,-4.8048,-4.8306,-4.8306,-4.8306,-4.8306,-4.8306,-4.715,-4.6194,-4.5574,-4.4726,-4.4359,-4.4535,-4.5066,-4.5342,-4.5342,-4.5513,-4.5594,-4.5594,-4.5594,-4.5594,-4.5594,-4.5594,-4.5594,-4.5594,-4.5594,-4.5594,-4.5594,-4.5594,-4.5594,-4.5594,-4.5594,-4.5594,-4.5594,0.0,0.0,0.0,0.0,0.0,0.0,0.0,-3.3807,-3.3807,-3.3807,-3.3807,-3.3807,-3.3807,-3.3807,0.0,0.0,0.0,0.0,0.0,0.0,0.0,0.0,0.0,0.0,0.0,0.0,0.0,-3.1911,-3.2375,0.0,0.0,0.0,0.0,0.0,-3.344,-3.3807,0.0,0.0,0.0,0.0,0.0,0.0,0.0,0.0,0.0,0.0,0.0,0.0,0.0,0.0,-3.8707,-3.8872,-3.9845,-4.0598,-4.1279,-4.2268,-4.3002,-4.3515,-4.3515,-4.3515,-4.3515,-4.3515,-4.3515,-4.3515,-4.3515,-4.3515,0.0,-4.3515,-4.3515,-4.3515,-4.3515,-4.3515,-4.3515,0.0,-4.3515,-4.3515,-4.3515,-4.3515,-4.3791,0.0,-4.5406,0.0,-4.7021,-4.7828,0.0,-4.8306,-4.8306,-4.8306,-4.8306,-4.6764,-4.5902,-4.5902,-4.4654,-4.4001,-4.4001,-4.4726,-4.5096,-4.5096,-4.5438,-4.5594,-4.5594,-4.5594,-4.5594,-4.5594,-4.5594,-4.5594,-4.5594,-4.5594,-4.5594,-4.5594,-4.5594,-4.5594,-4.5594,-4.5594,-4.5594,-4.5594,0.0,0.0,0.0,0.0,0.0,0.0,0.0,-3.3807,-3.3807,-3.3807,-3.3807,-3.3807,-3.3807,-3.3807,0.0,0.0,0.0,0.0,0.0,0.0,0.0,0.0,0.0,0.0,0.0,0.0,0.0,-3.3587,-3.2926,0.0,0.0,0.0,0.0,0.0,0.0,-3.3807,-3.3807,0.0,0.0,0.0,0.0,0.0,0.0,0.0,0.0,0.0,0.0,0.0,0.0,0.0,0.0,-3.8982,-4.0508,-4.104,-4.1389,-4.2928,0.0,0.0,-4.3515,-4.3515,-4.3515,-4.3515,-4.3515,-4.3515,-4.3515,0.0,-4.3515,-4.3515,-4.3515,-4.3515,-4.3515,-4.3515,-4.3515,-4.3515,0.0,-4.3515,-4.3515,-4.3515,-4.3791,-4.4617,0.0,0.0,-4.7021,-4.7828,-4.8306,-4.8306,-4.8306,-4.8306,-4.8306,-4.6764,-4.5902,-4.5902,-4.4654,-4.4001,-4.4001,-4.4726,-4.5096,-4.5096,-4.5438,-4.5594,-4.5594,-4.5594,-4.5594,-4.5594,-4.5594,-4.5594,0.0,-4.5594,-4.5594,-4.5594,-4.5594,-4.5594,-4.5594,-4.5594,-4.5594,-4.5594,0.0,0.0,0.0,0.0,0.0,0.0,0.0,-3.3807,-3.3807,-3.3807,-3.3807,-3.3807,-3.3807,-3.3807,-3.3807,0.0,0.0,0.0,0.0,0.0,0.0,0.0,0.0,0.0,0.0,0.0,-3.3568,-3.3091,-3.2748,0.0,0.0,0.0,0.0,0.0,0.0,-3.3807,-3.3807,0.0,0.0,0.0,0.0,0.0,0.0,0.0,0.0,0.0,0.0,0.0,0.0,0.0,0.0,0.0,-4.0581,-4.1095,0.0,0.0,-4.3515,-4.3515,-4.3515,-4.3515,-4.3515,-4.3515,-4.3515,-4.3515,-4.3515,0.0,-4.3515,-4.3515,-4.3515,-4.3515,-4.3515,-4.3515,-4.3515,-4.3515,0.0,0.0,-4.3515,-4.3515,-4.3608,-4.3938,-4.5112,0.0,0.0,0.0,-4.8306,-4.8306,-4.8306,-4.8306,-4.8306,-4.6764,-4.5902,-4.5902,-4.446,-4.3693,-4.3693,-4.4428,-4.4812,-4.4793,-4.514,-4.541,-4.5586,-4.54,-4.541,-4.5594,-4.5594,-4.5594,0.0,-4.5594,-4.5594,-4.5594,-4.5594,-4.5594,-4.5594,-4.5594,-4.5594,-4.5594,0.0,0.0,0.0,0.0,0.0,0.0,-3.3807,-3.3807,-3.3807,-3.3807,-3.3807,-3.3807,-3.3807,-3.3807,-3.3807,-3.3807,0.0,0.0,0.0,0.0,0.0,0.0,0.0,0.0,0.0,0.0,-3.3532,-3.2949,-3.2711,-3.243,0.0,0.0,-3.2729,-3.2968,0.0,0.0,0.0,0.0,0.0,0.0,0.0,0.0,0.0,0.0,0.0,0.0,0.0,0.0,0.0,0.0,0.0,0.0,0.0,0.0,0.0,0.0,-4.3515,-4.3515,-4.3515,-4.3515,-4.3515,-4.3515,-4.3515,-4.3515,0.0,0.0,-4.3515,-4.3515,-4.3515,-4.3515,-4.3515,-4.3515,-4.3515,0.0,0.0,-4.3515,-4.3515,-4.3515,-4.3515,-4.3515,0.0,-4.5902,0.0,-4.737,-4.8306,-4.8306,-4.8306,-4.8306,-4.8306,-4.6764,-4.5902,-4.5902,-4.4341,-4.3515,-4.3515,-4.4106,-4.4487,-4.4593,-4.4849,-4.5129,-4.5438,-4.5211,-4.5232,-4.5467,-4.5559,-4.5594,0.0,-4.5594,-4.5594,-4.5594,-4.5594,-4.5594,-4.5594,-4.5594,-4.5594,-4.5594,0.0,0.0,0.0,0.0,0.0,0.0,0.0,-3.3807,-3.3807,-3.3807,-3.3807,-3.3807,-3.3807,-3.3807,-3.3807,-3.3807,0.0,0.0,0.0,0.0,0.0,0.0,0.0,0.0,0.0,0.0,-3.3807,-3.3788,-3.2986,-3.2999,-3.3752,-3.2981,-3.3023,-3.3788,0.0,0.0,0.0,0.0,0.0,0.0,0.0,0.0,0.0,0.0,0.0,0.0,0.0,0.0,0.0,0.0,0.0,0.0,0.0,-4.0469,-4.1407,0.0,-4.3515,-4.3515,-4.3515,-4.3515,-4.3515,-4.3515,-4.3515,-4.3515,0.0,0.0,-4.3515,-4.3515,-4.3515,-4.3515,-4.3515,-4.3515,-4.3515,-4.3515,0.0,0.0,-4.3515,-4.3515,-4.3515,0.0,0.0,-4.5902,-4.5902,-4.737,-4.8306,-4.8306,-4.8306,0.0,-4.8306,-4.6764,-4.5902,-4.5902,-4.4341,-4.3515,-4.3515,-4.3852,-4.4204,-4.4593,-4.4593,-4.4769,-4.5096,-4.5096,-4.5096,-4.5118,-4.5467,-4.5594,0.0,-4.5594,-4.5594,-4.5594,-4.5594,-4.5594,-4.5594,-4.5594,-4.5594,-4.5594,0.0,0.0,0.0,0.0,0.0,0.0,0.0,-3.3807,-3.3807,-3.3807,-3.3807,-3.3807,-3.3807,-3.3807,-3.3807,-3.3807,0.0,0.0,0.0,0.0,0.0,0.0,0.0,0.0,0.0,0.0,-3.3807,-3.3807,-3.3532,-3.355,-3.3788,-3.3532,-3.3568,-3.3807,-3.3807,-3.3807,0.0,0.0,0.0,0.0,0.0,0.0,0.0,0.0,0.0,0.0,0.0,0.0,0.0,0.0,0.0,0.0,0.0,0.0,0.0,-4.2213,-4.3057,-4.3515,-4.3515,-4.3515,-4.3515,-4.3515,-4.3515,-4.3515,-4.3515,-4.3515,-4.3515,-4.3515,-4.3515,-4.3515,-4.3515,-4.3515,-4.3515,-4.3515,-4.3515,0.0,0.0,0.0,0.0,-4.425,-4.5755,-4.6948,0.0,0.0,-4.8306,-4.8306,-4.8306,-4.8306,-4.8306,-4.6764,-4.5902,-4.5902,-4.4341,-4.3515,-4.3515,-4.3818,-4.419,-4.4612,-4.4318,-4.4508,-4.5085,-4.4587,-4.4625,-4.5096,-4.5211,-4.54,-4.5594,-4.5594,-4.5594,-4.5594,-4.5594,-4.5594,-4.5594,-4.5594,-4.5594,-4.5594,0.0,0.0,0.0,0.0,0.0,0.0,0.0,-3.3807,-3.3807,-3.3807,-3.3807,-3.3807,-3.3807,-3.3807,-3.3807,-3.3807,0.0,0.0,0.0,0.0,0.0,0.0,0.0,0.0,0.0,-3.3807,-3.3807,-3.3807,-3.3807,-3.3807,-3.3807,-3.3807,-3.3807,-3.3807,-3.3807,-3.3807,0.0,0.0,0.0,0.0,0.0,0.0,-3.3825,0.0,0.0,0.0,0.0,0.0,0.0,0.0,0.0,0.0,0.0,0.0,0.0,0.0,-4.2415,-4.3112,-4.3423,-4.3515,-4.3515,-4.3515,-4.3515,0.0,0.0,-4.3515,-4.3515,-4.3515,-4.3515,-4.3515,-4.3515,-4.3515,-4.3515,-4.3515,-4.3515,0.0,0.0,0.0,0.0,-4.5021,0.0,0.0,0.0,-4.8306,-4.8306,-4.8306,-4.8306,-4.8177,-4.7846,-4.6617,-4.5755,-4.5461,-4.4176,-4.3515,-4.3515,-4.371,-4.3986,-4.4378,-4.3986,-4.4117,-4.4663,-4.4219,-4.4332,-4.4919,-4.5052,-4.5302,0.0,-4.5594,-4.5594,-4.5594,-4.5594,-4.5594,-4.5594,-4.5594,-4.5594,-4.5594,0.0,0.0,0.0,0.0,0.0,0.0,0.0,0.0,0.0,0.0,-3.3807,-3.3807,-3.3807,-3.3807,-3.3807,0.0,0.0,0.0,0.0,0.0,0.0,0.0,0.0,0.0,0.0,-3.3807,-3.3807,-3.3807,-3.3807,-3.3807,-3.3807,-3.3807,-3.3807,-3.3807,-3.3807,-3.3807,-3.3807,-3.3807,-3.3807,-3.3807,-3.3807,-3.3807,0.0,0.0,0.0,0.0,0.0,0.0,0.0,0.0,0.0,0.0,0.0,0.0,0.0,0.0,0.0,0.0,0.0,-4.346,-4.3515,-4.3515,-4.3515,0.0,0.0,-4.3515,0.0,-4.3515,-4.3515,-4.3515,-4.3515,-4.3515,-4.3515,-4.3515,0.0,0.0,0.0,-4.3606,0.0,0.0,-4.6691,0.0,-4.8233,-4.8306,-4.8306,-4.8306,-4.8251,-4.7902,-4.7131,-4.6287,-4.548,-4.4709,-4.392,-4.3515,-4.3515,-4.3515,-4.3679,-4.4001,-4.3662,-4.3679,-4.4001,-4.3986,-4.4175,0.0,-4.4919,-4.5253,-4.5568,-4.5586,-4.5594,-4.5594,-4.5594,-4.5594,-4.5594,-4.5594,-4.5594,-4.5594,0.0,0.0,0.0,0.0,0.0,0.0,0.0,0.0,0.0,0.0,0.0,-3.3807,-3.3807,-3.3807,0.0,0.0,0.0,0.0,0.0,0.0,0.0,0.0,0.0,0.0,0.0,-3.3807,-3.3807,-3.3807,-3.3807,-3.3807,-3.3807,-3.3807,-3.3807,-3.3807,-3.3807,-3.3807,-3.3807,-3.3807,-3.3807,-3.3807,-3.3807,-3.3807,0.0,0.0,0.0,0.0,-3.7217,-3.801,0.0,0.0,0.0,0.0,0.0,0.0,0.0,0.0,-4.0744,-4.157,-4.2359,0.0,-4.3515,-4.3515,-4.3515,-4.3515,0.0,0.0,0.0,0.0,0.0,0.0,0.0,0.0,0.0,-4.3515,0.0,-4.3515,-4.3515,0.0,0.0,-4.6691,-4.7516,-4.8104,-4.8288,-4.8306,-4.8306,-4.8306,-4.7718,-4.7296,-4.7113,-4.5737,-4.4911,-4.4727,-4.392,-4.3515,-4.3515,-4.3515,-4.3679,-4.4001,-4.3662,-4.3679,-4.4001,-4.3742,-4.3804,-4.4161,-4.4553,-4.4908,-4.5232,-4.5495,-4.5594,-4.5594,-4.5594,-4.5594,-4.5594,-4.5594,-4.5594,-4.5594,0.0,0.0,0.0,0.0,0.0,0.0,0.0,0.0,0.0,0.0,0.0,0.0,0.0,0.0,0.0,0.0,0.0,0.0,0.0,0.0,0.0,0.0,0.0,0.0,-3.3807,-3.3807,-3.3807,-3.3807,-3.3807,-3.3807,-3.3807,-3.3807,-3.3807,-3.3807,-3.3807,-3.3807,-3.3807,-3.3807,-3.3807,-3.3807,-3.3807,0.0,0.0,0.0,0.0,0.0,-3.7768,-3.8322,0.0,-3.8707,-3.8707,-3.8707,0.0,0.0,0.0,0.0,-4.0212,-4.0818,-4.1992,-4.2892,-4.3515,-4.3515,-4.3515,-4.3515,-4.3515,0.0,0.0,0.0,0.0,0.0,0.0,0.0,0.0,0.0,-4.3515,0.0,0.0,0.0,-4.6599,-4.7058,-4.781,-4.8306,0.0,-4.8306,-4.8306,-4.8306,-4.7553,-4.6929,-4.6562,-4.5369,-4.4544,-4.4158,-4.3718,-4.3515,-4.3515,-4.3515,-4.3597,-4.3756,-4.358,-4.3597,-4.3756,-4.358,-4.3677,-4.4013,-4.4433,-4.48,-4.5137,-4.5457,-4.5594,-4.5594,-4.5594,-4.5594,-4.5594,-4.5594,-4.5594,-4.5594,0.0,0.0,0.0,0.0,0.0,0.0,0.0,0.0,0.0,0.0,0.0,0.0,0.0,0.0,0.0,0.0,0.0,0.0,0.0,0.0,0.0,0.0,0.0,-3.3807,-3.3807,-3.3807,-3.3807,-3.3807,-3.3807,-3.3807,-3.3807,-3.3807,-3.3807,-3.3807,-3.3807,-3.3807,-3.3807,-3.3807,-3.3807,-3.3807,-3.3935,0.0,0.0,0.0,0.0,0.0,0.0,0.0,0.0,-3.8707,-3.8707,-3.8707,-3.8707,0.0,0.0,0.0,0.0,0.0,-4.1717,-4.269,-4.3349,-4.3478,-4.3515,-4.3515,-4.3515,0.0,0.0,0.0,0.0,0.0,0.0,-4.3515,0.0,0.0,0.0,0.0,-4.4782,-4.6159,-4.7149,-4.7278,-4.7865,0.0,-4.8306,-4.8306,-4.8306,-4.8306,-4.7424,-4.6617,-4.5938,-4.5021,-4.4195,-4.3533,-4.3515,-4.3515,-4.3515,-4.3515,-4.3515,-4.3515,-4.3515,-4.3515,-4.3515,-4.3515,-4.3662,-4.394,0.0,0.0,-4.5052,-4.5438,-4.5594,-4.5594,-4.5594,-4.5594,-4.5594,-4.5594,-4.5594,-4.5594,0.0,0.0,0.0,0.0,0.0,0.0,0.0,0.0,0.0,0.0,0.0,0.0,0.0,0.0,0.0,0.0,0.0,0.0,0.0,0.0,0.0,0.0,-3.3807,-3.3807,-3.3807,-3.3807,-3.3807,-3.3807,-3.3807,-3.3807,-3.3807,-3.3807,-3.3807,-3.3807,-3.3807,-3.3807,-3.3807,-3.3807,-3.3807,-3.3862,-3.4546,0.0,0.0,0.0,0.0,0.0,0.0,0.0,0.0,-3.8707,-3.8707,-3.8707,-3.8707,0.0,0.0,0.0,0.0,0.0,-4.1022,-4.1882,-4.2653,-4.3331,-4.3515,-4.3515,-4.3515,0.0,0.0,0.0,0.0,0.0,0.0,-4.3515,-4.3515,0.0,0.0,-4.48,0.0,0.0,-4.7351,-4.8031,0.0,-4.8306,-4.8306,-4.8306,-4.8306,-4.8306,-4.6929,-4.603,-4.5902,-4.4488,-4.3643,-4.3515,-4.3515,-4.3515,-4.3515,-4.3515,-4.3515,-4.3515,-4.3515,-4.3515,-4.3515,-4.3515,-4.3531,-4.3595,0.0,-4.4618,-4.472,-4.5342,-4.5594,-4.5594,-4.5594,-4.5594,-4.5594,-4.5594,-4.5594,-4.5594,0.0,0.0,0.0,0.0,0.0,0.0,0.0,0.0,0.0,0.0,0.0,0.0,0.0,0.0,0.0,0.0,0.0,0.0,0.0,0.0,0.0,0.0,-3.3807,-3.3807,-3.3807,-3.3807,-3.3807,-3.3807,-3.3807,-3.3807,-3.3807,-3.3807,-3.3807,-3.3807,-3.3807,-3.3807,-3.3807,-3.3807,-3.4045,-3.4472,0.0,0.0,0.0,0.0,0.0,0.0,0.0,0.0,0.0,0.0,-3.8707,-3.8707,-3.8707,0.0,0.0,0.0,0.0,0.0,-4.0747,-4.137,-4.1956,-4.3185,-4.3515,-4.3515,-4.3515,0.0,0.0,0.0,0.0,0.0,0.0,0.0,-4.3626,-4.4085,0.0,-4.5274,-4.6378,-4.6956,-4.7536,0.0,0.0,-4.8306,-4.8306,-4.8306,-4.8122,-4.7681,-4.6562,-4.5718,-4.5278,-4.414,-4.3515,-4.3515,-4.3515,-4.3515,-4.3515,-4.3515,-4.3515,-4.3515,-4.3515,-4.3515,-4.3515,-4.3515,-4.3515,-4.3531,0.0,-4.4406,-4.4631,-4.5129,-4.5429,-4.5594,-4.5594,-4.5594,-4.5594,-4.5594,-4.5594,-4.5594,0.0,0.0,0.0,0.0,0.0,0.0,0.0,0.0,0.0,0.0,0.0,0.0,0.0,0.0,0.0,0.0,0.0,0.0,0.0,0.0,-3.3807,-3.3807,-3.3807,-3.3807,-3.3807,-3.3807,-3.3807,-3.3807,-3.3807,-3.3807,-3.3807,-3.3807,-3.3807,-3.3807,-3.3807,-3.3807,-3.3807,-3.4009,-3.4435,-3.5041,0.0,0.0,0.0,0.0,0.0,0.0,0.0,0.0,0.0,0.0,0.0,0.0,0.0,0.0,0.0,-3.8927,-3.8982,-3.9331,-4.093,-4.137,-4.1735,-4.3149,0.0,0.0,0.0,0.0,0.0,0.0,0.0,0.0,0.0,-4.3392,0.0,-4.418,-4.4576,-4.523,-4.6468,-4.6943,-4.7406,-4.8015,-4.8075,-4.8152,-4.8287,-4.8306,-4.7957,-4.7168,-4.6361,-4.5553,-4.4745,-4.3938,-4.3515,-4.3515,-4.3515,-4.3515,-4.3515,-4.3515,-4.3515,-4.3515,-4.3515,-4.3515,-4.3515,-4.3515,-4.3515,-4.3513,-4.3849,-4.4161,-4.4501,-4.4931,-4.5243,-4.5495,-4.5568,-4.5594,-4.5594,-4.5594,-4.5594,-4.5594,0.0,0.0,0.0,0.0,0.0,0.0,0.0,0.0,0.0,0.0,0.0,0.0,0.0,0.0,0.0,0.0,0.0,0.0,0.0,0.0,-3.3807,-3.3807,-3.3807,-3.3807,-3.3807,-3.3807,-3.3807,-3.3807,-3.3807,-3.3807,-3.3807,-3.3807,-3.3807,-3.3807,-3.3807,-3.3807,-3.3844,-3.4601,-3.4949,-3.5151,-3.6688,0.0,0.0,0.0,0.0,0.0,0.0,0.0,0.0,0.0,0.0,0.0,0.0,0.0,-3.8854,-3.9588,-3.9808,-4.0157,-4.1772,-4.2213,-4.2415,-4.3277,-4.3515,0.0,-4.3515,-4.3515,0.0,-4.3515,0.0,0.0,0.0,-4.3087,-4.2811,-4.2992,-4.3665,-4.4445,-4.523,0.0,-4.671,-4.7385,-4.7449,-4.7677,-4.8248,-4.8306,-4.7957,-4.7168,-4.6361,-4.5553,-4.4745,-4.3938,-4.3515,-4.3515,-4.3515,-4.3515,-4.3515,-4.3515,-4.3515,-4.3515,-4.3515,-4.3515,-4.3515,-4.3515,-4.3515,-4.3513,-4.3849,-4.4031,-4.4102,-4.4818,-4.5107,-4.5169,-4.5485,-4.5594,-4.5594,-4.5594,-4.5594,-4.5594,0.0,0.0,0.0,0.0,0.0,0.0,0.0,0.0,0.0,0.0,0.0,0.0,0.0,0.0,0.0,0.0,0.0,0.0,0.0,0.0,-3.3807,-3.3807,-3.3807,-3.3807,-3.3807,-3.3807,-3.3807,-3.3807,-3.3807,-3.3807,-3.3807,-3.3807,-3.3807,-3.3807,-3.3807,-3.3807,-3.3844,-3.4656,-3.5316,-3.5917,-3.7052,-3.7804,0.0,0.0,0.0,0.0,0.0,0.0,0.0,0.0,-3.8707,-3.8707,0.0,0.0,-3.8854,-3.9662,-3.99,-4.0249,-4.1864,-4.2027,-4.1942,-4.2795,-4.2733,0.0,0.0,-4.3232,-4.3105,-4.3427,-4.3515,0.0,0.0,0.0,-4.2469,-4.3496,-4.3594,-4.4108,-4.5717,-4.5894,-4.6063,-4.6687,-4.715,-4.7488,-4.7715,-4.7636,-4.7204,-4.6416,-4.5608,-4.48,-4.3993,-4.3663,-4.3515,-4.3515,-4.3515,-4.3515,-4.3515,-4.3515,-4.3515,-4.3515,-4.3515,-4.3515,-4.3515,-4.3515,-4.3515,-4.3515,-4.3629,-4.382,-4.4028,-4.4561,-4.4908,-4.5129,-4.5476,-4.5594,-4.5594,-4.5594,-4.5594,-4.5594,0.0,0.0,0.0,0.0,0.0,0.0,0.0,0.0,0.0,0.0,0.0,0.0,0.0,0.0,0.0,0.0,0.0,0.0,0.0,-3.3807,-3.3807,-3.3807,-3.3807,-3.3807,-3.3807,-3.3807,-3.3807,-3.3807,-3.3807,-3.3807,-3.3807,-3.3807,-3.3807,-3.3807,-3.3807,-3.3935,-3.4215,-3.5059,-3.5899,-3.6758,-3.7547,-3.8212,0.0,0.0,0.0,0.0,0.0,0.0,0.0,0.0,-3.8707,0.0,0.0,0.0,0.0,0.0,-4.0317,-4.0676,-4.2045,-4.1994,-4.1685,-4.2277,0.0,0.0,-4.2735,-4.2694,-4.2521,-4.2884,-4.2959,-4.2791,-4.2223,0.0,0.0,0.0,-4.32,-4.3603,-4.5573,-4.5485,-4.5433,-4.6021,-4.6501,-4.6955,-4.7363,-4.6869,-4.6288,-4.5697,-4.4912,-4.4108,-4.3305,-4.341,-4.3515,-4.3515,-4.3515,-4.3515,-4.3515,-4.3515,-4.3515,-4.3515,-4.3515,-4.3515,-4.3515,-4.3515,-4.3515,-4.3515,-4.3515,-4.3629,-4.3865,-4.4266,-4.4682,-4.5129,-4.5476,-4.5594,-4.5594,-4.5594,-4.5594,-4.5594,0.0,0.0,0.0,0.0,0.0,0.0,0.0,0.0,0.0,0.0,0.0,0.0,0.0,0.0,0.0,0.0,0.0,0.0,0.0,-3.3807,-3.3807,-3.3807,-3.3807,-3.3807,-3.3807,-3.3807,-3.3807,-3.3807,-3.3807,-3.3807,-3.3807,-3.3807,-3.3807,-3.3807,-3.3807,-3.4252,-3.5059,-3.5936,-3.6776,-3.7566,-3.8377,-3.8692,-3.8707,0.0,0.0,0.0,0.0,0.0,0.0,0.0,-3.8692,-3.8707,0.0,0.0,0.0,0.0,-4.1249,-4.1592,-4.2477,-4.2262,-4.1789,-4.1789,0.0,0.0,-4.1643,-4.1789,-4.1793,-4.181,-4.181,-4.1599,-4.1018,-4.0903,0.0,-4.2164,-4.2286,-4.2855,-4.4395,-4.4615,-4.4814,-4.5407,-4.5511,-4.5989,-4.7259,-4.611,-4.5236,-4.5095,-4.4339,-4.3543,-4.2747,-4.3214,-4.3515,-4.3515,-4.3515,-4.3515,-4.3515,-4.3515,-4.3515,-4.3515,-4.3515,-4.3515,-4.3515,-4.3515,-4.3515,-4.3515,-4.3515,-4.3515,-4.3531,-4.3865,-4.4423,-4.5118,-4.5448,-4.5586,-4.5605,-4.5605,-4.5594,-4.5594,0.0,0.0,0.0,0.0,0.0,0.0,0.0,0.0,0.0,0.0,0.0,0.0,0.0,0.0,0.0,0.0,0.0,0.0,0.0,-3.3807,-3.3807,-3.3807,-3.3807,-3.3807,-3.3807,-3.3807,-3.3807,-3.3807,-3.3807,-3.3807,-3.3807,-3.3807,-3.3807,-3.3825,-3.438,-3.4784,-3.5096,-3.6523,-3.729,-3.7536,-3.7956,-3.8366,-3.8658,0.0,0.0,0.0,0.0,0.0,0.0,0.0,0.0,0.0,0.0,0.0,0.0,-4.0857,-4.1249,-4.1592,-4.2477,-4.1958,-4.1178,-4.1178,0.0,0.0,0.0,-4.0891,0.0,0.0,-4.1468,-4.111,-4.0926,-4.0601,0.0,-4.2102,-4.2286,-4.2855,-4.4395,-4.4615,-4.4682,-4.4841,-4.5258,-4.5422,-4.5308,-4.477,-4.4219,-4.3654,-4.3272,-4.2946,-4.2711,-4.3214,-4.3515,-4.3515,-4.3515,-4.3515,-4.3515,-4.3515,-4.3515,-4.3515,-4.3515,-4.3515,-4.3515,-4.3515,-4.3515,-4.3515,-4.3515,-4.3515,-4.3531,-4.3865,-4.429,-4.4763,-4.4861,-4.5033,-4.5243,-4.5243,-4.54,-4.5594,0.0,0.0,0.0,0.0,0.0,0.0,0.0,0.0,0.0,0.0,-3.3807,0.0,0.0,0.0,0.0,0.0,0.0,0.0,0.0,0.0,-3.3807,-3.3807,-3.3807,-3.3807,-3.3807,-3.3807,-3.3807,-3.3807,-3.3807,-3.3807,-3.3807,-3.3807,-3.3972,-3.4289,-3.4784,-3.5371,-3.6064,-3.707,-3.7567,-3.7674,-3.7814,-3.7981,-3.8066,0.0,0.0,0.0,0.0,0.0,0.0,0.0,0.0,0.0,0.0,0.0,0.0,-4.0608,-4.1143,-4.162,-4.1917,-4.1308,0.0,-4.0577,-4.0343,-4.0096,-4.0096,0.0,0.0,0.0,-4.0844,-4.0577,-4.0577,-4.0311,0.0,-4.166,-4.21,-4.2726,-4.3944,-4.4412,-4.4496,-4.4147,-4.4429,-4.4483,-4.4012,-4.3353,-4.2859,-4.2703,-4.2253,-4.2101,-4.2322,-4.2884,-4.3268,-4.3479,-4.3515,-4.3515,-4.3515,-4.3515,-4.3515,-4.3515,-4.3515,-4.3515,-4.3515,-4.3515,-4.3515,-4.3515,-4.3515,-4.3515,-4.3531,-4.3865,-4.4132,-4.4392,-4.454,-4.472,-4.4919,-4.5052,-4.5222,-4.5419,0.0,0.0,0.0,0.0,0.0,0.0,0.0,0.0,0.0,0.0,-3.3807,-3.3807,0.0,0.0,0.0,0.0,0.0,0.0,0.0,0.0,-3.3807,-3.3807,-3.3807,-3.3807,-3.3807,-3.3807,-3.3807,-3.3807,-3.3807,-3.3807,-3.3807,-3.388,-3.4289,-3.5023,-3.5169,-3.6083,-3.7511,-3.7521,-3.7692,-3.7876,-3.7807,-3.7542,-3.7192,-3.7152,0.0,0.0,0.0,0.0,0.0,0.0,0.0,0.0,-3.8417,-3.9325,-4.0202,-4.0166,-4.0875,-4.1599,-4.1064,-4.0521,-4.0096,-4.0096,-4.0096,0.0,-4.0096,-4.0096,-4.0096,-4.0096,0.0,-4.0096,-4.0096,-4.0096,-4.035,-4.1085,-4.1762,-4.2455,-4.3217,-4.3927,-4.4113,-4.3403,-4.3291,-4.3238,-4.3126,-4.1946,-4.1435,-4.1957,-4.1336,-4.1155,-4.1686,-4.2342,-4.292,-4.341,-4.3462,-4.3515,-4.3515,-4.3515,-4.3515,-4.3515,-4.3515,-4.3515,-4.3515,-4.3515,-4.3515,-4.3515,-4.3515,-4.3515,-4.3513,-4.3836,-4.3955,-4.3986,-4.4364,-4.4514,-4.458,-4.4896,-4.5011,-4.5096,0.0,0.0,0.0,0.0,0.0,0.0,0.0,0.0,0.0,0.0,0.0,0.0,0.0,0.0,0.0,0.0,0.0,0.0,0.0,0.0,-3.3807,-3.3807,-3.3807,-3.3807,-3.3807,-3.3807,-3.3807,-3.3807,-3.3807,-3.3807,-3.3807,-3.4454,-3.4839,-3.5059,-3.6376,-3.7162,-3.7514,-3.7721,-3.7852,-3.7825,-3.7041,-3.6904,-3.7135,-3.6724,-3.6843,0.0,0.0,0.0,0.0,0.0,0.0,0.0,-3.7487,-3.852,-3.967,-3.9651,-4.0341,-4.1064,-4.0926,-4.0521,0.0,-4.0096,-4.0096,-4.0096,-4.0096,-4.0096,-4.0096,-4.0096,-4.0096,-4.0096,-4.0096,-4.0096,-4.035,-4.1085,-4.1339,-4.1694,-4.2422,-4.2675,-4.2726,-4.2557,-4.254,-4.2289,-4.1699,-4.1392,-4.1027,-4.0593,-4.0758,-4.0949,-4.1087,-4.2121,-4.2751,-4.2864,-4.3268,-4.3515,-4.3515,-4.3515,-4.3515,-4.3515,-4.3515,-4.3515,-4.3515,-4.3515,-4.3515,-4.3515,-4.3515,-4.3515,-4.3515,-4.358,-4.3614,-4.3631,-4.3712,-4.3899,-4.4132,-4.4219,-4.4441,-4.4763,0.0,0.0,0.0,0.0,0.0,0.0,0.0,0.0,0.0,0.0,0.0,0.0,0.0,0.0,0.0,0.0,0.0,0.0,0.0,0.0,0.0,0.0,-3.3807,-3.3807,-3.3807,-3.3807,-3.399,-3.4362,-3.4362,-3.4362,-3.438,-3.4802,-3.5426,-3.6248,-3.7125,-3.7713,-3.8068,-3.7952,-3.7772,-3.7506,-3.6724,-3.6416,-3.6399,-3.6118,-3.6186,-3.6399,-3.6118,0.0,0.0,0.0,0.0,0.0,0.0,0.0,-3.8631,-3.8979,-3.9687,-4.0383,-4.0497,0.0,0.0,-4.0096,0.0,-4.0096,-4.0096,-4.0096,-4.0096,-4.0096,-4.0096,-4.0096,-4.0096,-4.0096,-4.0231,-4.0595,-4.0967,-4.1339,-4.1711,-4.2066,-4.2168,-4.1813,-4.1762,-4.1474,-4.073,-4.0663,-4.0493,-4.013,-4.0343,-4.0631,-4.088,-4.1771,-4.2382,-4.2692,-4.3214,-4.3515,-4.3515,-4.3515,-4.3515,-4.3515,-4.3515,-4.3515,-4.3515,-4.3515,-4.3515,-4.3515,-4.3515,-4.3515,-4.3515,-4.3515,-4.3515,-4.3515,-4.3515,-4.3614,-4.3772,-4.394,-4.4132,-4.4378,0.0,0.0,0.0,0.0,0.0,0.0,0.0,0.0,0.0,0.0,0.0,0.0,0.0,0.0,0.0,0.0,0.0,0.0,0.0,0.0,0.0,0.0,-3.3807,-3.3862,-3.4009,-3.4009,-3.4412,-3.5224,-3.5224,-3.5298,-3.5426,-3.5426,-3.6174,-3.7511,-3.7658,-3.8065,-3.8658,-3.8048,-3.756,-3.7152,-3.6519,-3.6006,-3.56,-3.56,-3.56,-3.56,-3.56,-3.5876,-3.6266,-3.6266,0.0,0.0,0.0,0.0,-3.759,-3.8267,-3.9026,-3.9726,-4.0025,0.0,-4.0096,-4.0096,-4.0096,0.0,-4.0096,-4.0096,-4.0096,-4.0096,-4.0096,-4.0096,-4.0096,-4.0096,-4.0096,-4.0096,-4.0595,-4.1018,-4.1018,-4.1542,-4.1677,-4.1085,-4.1018,-4.0764,-4.0163,-4.0096,-4.0096,-4.0096,-4.0096,-4.0286,-4.0733,-4.1424,-4.2021,-4.2519,-4.3178,-4.3515,-4.3515,-4.3515,-4.3515,-4.3515,-4.3515,-4.3515,-4.3515,-4.3515,-4.3515,-4.3515,-4.3515,-4.3515,-4.3515,-4.3515,-4.3515,-4.3515,-4.3515,-4.3515,-4.3531,-4.382,-4.3909,-4.3971,0.0,0.0,0.0,0.0,0.0,0.0,0.0,0.0,0.0,0.0,-3.3974,0.0,0.0,0.0,0.0,0.0,0.0,0.0,0.0,0.0,0.0,0.0,-3.3807,-3.4137,-3.4821,-3.4839,-3.5261,-3.6138,-3.6138,-3.6486,-3.718,-3.718,-3.729,-3.7529,-3.823,-3.8597,-3.8643,-3.7685,-3.7266,-3.7097,-3.6101,-3.565,-3.56,-3.56,-3.56,-3.56,-3.56,-3.5644,-3.5694,-3.5694,-3.5694,0.0,0.0,0.0,-3.7046,-3.777,-3.8516,-3.9246,-3.9935,0.0,-4.0096,0.0,-4.0096,-4.0096,0.0,0.0,-4.0096,0.0,-4.0096,-4.0096,-4.0096,-4.0096,-4.0096,-4.0096,-4.018,-4.0248,-4.0248,-4.0333,-4.0367,-4.0265,-4.0248,-4.0214,-4.0113,-4.0096,-4.0096,-4.0096,-4.0096,-4.0121,-4.0204,-4.1218,-4.1832,-4.1916,-4.294,-4.3515,-4.3515,-4.3515,-4.3515,-4.3515,-4.3515,-4.3515,-4.3515,-4.3515,-4.3515,-4.3515,-4.3515,-4.3515,-4.3515,-4.3515,-4.3515,-4.3515,-4.3515,-4.3515,-4.3515,-4.3548,-4.3582,-4.3631,0.0,0.0,0.0,0.0,0.0,0.0,0.0,0.0,0.0,0.0,0.0,-3.408,0.0,0.0,0.0,0.0,0.0,0.0,0.0,0.0,0.0,0.0,0.0,-3.5517,-3.6216,-3.59,-3.6214,-3.7197,-3.7043,-3.7382,-3.8175,-3.8175,-3.8175,-3.8193,-3.8542,-3.8707,-3.8627,-3.7614,-3.7209,-3.7097,-3.6032,-3.56,-3.56,-3.56,-3.56,-3.56,-3.56,-3.56,-3.56,-3.56,-3.56,-3.56,-3.56,0.0,0.0,0.0,-3.8142,-3.8633,-3.9791,-4.0096,-4.0096,0.0,-4.0096,-4.0096,-4.0096,-4.0096,-4.0096,-4.0096,-4.0096,-4.0096,-4.0096,-4.0096,-4.0096,-4.0096,-4.0096,-4.0096,-4.0096,-4.0096,-4.0096,-4.0096,-4.0096,-4.0096,-4.0096,-4.0096,-4.0096,-4.0096,-4.0096,-4.0096,-4.0096,-4.0868,-4.1291,-4.1291,-4.2444,-4.305,-4.305,-4.3357,-4.3515,-4.3515,-4.3515,-4.3515,-4.3515,-4.3515,-4.3515,-4.3515,-4.3515,-4.3515,-4.3515,-4.3515,-4.3515,-4.3515,-4.3515,-4.3515,-4.3515,-4.3515,-4.3515,-4.3513,0.0,0.0,0.0,0.0,0.0,0.0,0.0,0.0,0.0,0.0,0.0,0.0,0.0,0.0,0.0,0.0,0.0,0.0,0.0,0.0,0.0,0.0,0.0,0.0,-3.7492,-3.705,-3.7283,-3.8199,-3.8002,-3.8169,-3.8707,-3.8707,-3.8707,-3.8707,-3.8707,-3.8707,-3.8627,-3.7614,-3.7209,-3.7097,-3.6032,-3.56,-3.56,-3.56,-3.56,-3.56,-3.56,-3.56,-3.56,-3.56,-3.56,-3.56,-3.56,-3.56,0.0,0.0,0.0,0.0,0.0,0.0,-4.0096,-4.0096,-4.0096,-4.0096,0.0,0.0,-4.0096,0.0,-4.0096,-4.0096,-4.0096,-4.0096,-4.0096,-4.0096,-4.0096,-4.0096,-4.0096,-4.0096,-4.0096,-4.0096,-4.0096,-4.0096,-4.0096,-4.0096,-4.0096,-4.0096,-4.0096,-4.0096,-4.0096,-4.0625,-4.0903,-4.0903,-4.1916,-4.2539,-4.2711,-4.3232,-4.3515,-4.3515,-4.3515,-4.3515,-4.3515,-4.3515,-4.3515,-4.3515,-4.3515,-4.3515,-4.3515,-4.3515,-4.3515,-4.3515,-4.3515,-4.3515,-4.3515,-4.3515,-4.3515,-4.3515,0.0,0.0,0.0,0.0,0.0,0.0,0.0,0.0,0.0,0.0,0.0,0.0,0.0,0.0,-3.3815,-3.3815,0.0,0.0,0.0,0.0,0.0,0.0,0.0,0.0,0.0,-3.8305,-3.8538,-3.9037,-3.9011,-3.891,-3.8707,-3.8707,-3.8707,-3.8707,-3.8707,-3.8707,-3.8627,-3.7614,-3.7209,-3.7097,-3.6032,-3.56,-3.56,-3.56,-3.56,-3.56,-3.56,-3.56,0.0,0.0,-3.56,-3.56,-3.56,-3.56,-3.5752,0.0,0.0,0.0,0.0,-4.0096,0.0,-4.0096,-4.0096,0.0,0.0,0.0,-4.0096,-4.0096,-4.0096,-4.0096,-4.0096,-4.0096,-4.0096,-4.0096,-4.0096,-4.0096,-4.0096,-4.0096,-4.0096,-4.0096,-4.0096,-4.0096,-4.0096,-4.0096,-4.0096,-4.0096,-4.0096,-4.0096,-4.0096,-4.0625,-4.0903,-4.0903,-4.1512,-4.2121,-4.2693,-4.3232,-4.3515,-4.3515,-4.3515,-4.3515,-4.3515,-4.3515,-4.3515,-4.3515,-4.3515,-4.3515,-4.3515,-4.3515,-4.3515,-4.3515,-4.3515,-4.3515,-4.3515,-4.3515,-4.3515,-4.3515,0.0,0.0,0.0,0.0,0.0,0.0,0.0,0.0,0.0,0.0,0.0,0.0,0.0,-3.3868,-3.3807,-3.3807,-3.3961,0.0,0.0,0.0,0.0,0.0,0.0,0.0,0.0,-3.915,-3.9046,-3.9414,-3.9031,-3.8788,-3.8707,-3.8707,-3.8707,-3.8707,-3.8707,-3.8707,-3.8627,-3.7614,-3.7209,-3.7097,-3.6032,-3.56,-3.56,-3.56,-3.56,-3.56,-3.56,0.0,0.0,0.0,0.0,0.0,0.0,0.0,0.0,0.0,0.0,0.0,0.0,0.0,0.0,-4.0096,-4.0096,-4.0096,-4.0096,-4.0096,-4.0096,-4.0096,-4.0096,-4.0096,-4.0096,-4.0096,-4.0096,-4.0096,-4.0096,-4.0096,-4.0096,-4.0096,-4.0096,-4.0096,-4.0096,-4.0096,-4.0096,-4.0096,-4.0096,-4.0096,-4.0096,-4.0096,-4.0096,-4.0286,-4.0392,-4.0392,-4.092,-4.1686,-4.2692,-4.2883,-4.316,-4.3515,-4.3515,-4.3515,-4.3515,-4.3515,-4.3515,-4.3515,-4.3515,-4.3515,-4.3515,-4.3515,-4.3515,-4.3515,-4.3515,-4.3515,-4.3515,-4.3515,-4.3515,-4.3515,0.0,0.0,0.0,0.0,0.0,0.0,0.0,0.0,0.0,0.0,0.0,0.0,0.0,0.0,-3.3807,-3.3807,-3.4153,-3.4412,-3.4529,-3.5461,0.0,0.0,0.0,0.0,0.0,0.0,0.0,0.0,0.0,-3.8531,-3.8707,-3.8707,-3.8707,-3.8707,-3.8707,-3.8611,-3.8382,-3.756,-3.7114,-3.6845,-3.5946,-3.56,-3.56,-3.56,-3.56,0.0,0.0,0.0,0.0,0.0,0.0,0.0,0.0,0.0,0.0,0.0,0.0,0.0,-3.9842,0.0,0.0,0.0,-4.0096,-4.0096,-4.0096,0.0,-4.0096,-4.0096,-4.0096,-4.0096,-4.0096,-4.0096,-4.0096,-4.0096,-4.0096,-4.0096,-4.0096,-4.0096,-4.0096,-4.0096,-4.0096,-4.0096,-4.0096,-4.0096,-4.0096,-4.0096,-4.0096,0.0,-4.0096,-4.0096,-4.0096,-4.0096,-4.0607,-4.1273,-4.2101,-4.25,-4.2883,-4.3232,-4.341,-4.3515,-4.3515,-4.3515,-4.3515,-4.3515,-4.3515,-4.3515,-4.3515,-4.3515,-4.3515,-4.3515,-4.3515,-4.3515,-4.3515,-4.3515,-4.3515,-4.3515,0.0,0.0,0.0,0.0,0.0,0.0,0.0,0.0,0.0,0.0,0.0,0.0,0.0,0.0,0.0,-3.3802,-3.436,-3.4551,-3.4253,-3.5484,0.0,0.0,0.0,0.0,0.0,0.0,0.0,0.0,0.0,0.0,0.0,0.0,-3.8634,-3.8634,-3.8652,-3.8362,-3.7806,-3.7379,-3.6902,-3.6354,0.0,-3.56,-3.56,0.0,0.0,0.0,-3.6535,-3.6829,0.0,-3.6829,0.0,0.0,0.0,0.0,0.0,0.0,0.0,0.0,0.0,0.0,0.0,0.0,-4.0096,0.0,-4.0096,0.0,-4.0096,-4.0096,-4.0096,-4.0096,-4.0096,-4.0096,-4.0096,-4.0096,-4.0096,-4.0096,-4.0096,-4.0096,-4.0096,-4.0096,-4.0096,-4.0096,-4.0096,-4.0096,-4.0096,-4.0096,-4.0096,-4.0096,-4.0096,-4.0096,-4.0096,-4.0096,-4.0583,-4.088,-4.0903,-4.208,-4.2674,-4.2711,-4.3232,-4.3515,-4.3515,-4.3515,-4.3515,-4.3515,-4.3515,-4.3515,-4.3515,-4.3515,-4.3515,-4.3515,-4.3515,-4.3515,-4.3515,-4.3515,-4.3515,-4.3515,0.0,0.0,0.0,0.0,0.0,0.0,0.0,0.0,0.0,0.0,0.0,0.0,0.0,0.0,-3.3876,-3.408,-3.4242,-3.4401,-3.4551,-3.4932,-3.537,-3.5876,0.0,0.0,0.0,0.0,0.0,0.0,0.0,0.0,0.0,0.0,0.0,0.0,-3.7584,-3.7312,-3.6505,-3.6981,0.0,-3.6354,-3.5827,-3.56,0.0,0.0,0.0,0.0,0.0,-3.7601,-3.7601,0.0,-3.7601,-3.7567,0.0,0.0,0.0,0.0,0.0,0.0,-3.9706,0.0,0.0,0.0,0.0,0.0,-4.0096,-4.0096,-4.0096,-4.0096,-4.0096,-4.0096,-4.0096,-4.0096,-4.0096,-4.0096,-4.0096,-4.0096,-4.0096,-4.0096,-4.0096,-4.0096,-4.0096,-4.0096,-4.0096,-4.0096,-4.0096,0.0,-4.0096,-4.0096,-4.0096,-4.0096,-4.0096,-4.0096,-4.0254,-4.0521,-4.0903,-4.1664,-4.2282,-4.2711,-4.3232,-4.3515,-4.3515,-4.3515,-4.3515,-4.3515,-4.3515,-4.3515,-4.3515,-4.3515,-4.3515,-4.3515,-4.3515,-4.3515,-4.3515,-4.3515,-4.3515,-4.3515,0.0,0.0,0.0,0.0,0.0,0.0,0.0,0.0,0.0,0.0,0.0,0.0,0.0,0.0,-3.385,-3.4018,-3.4135,-3.4242,-3.4307,-3.4431,-3.4659,-3.5014,0.0,0.0,0.0,0.0,0.0,0.0,0.0,0.0,0.0,0.0,0.0,0.0,0.0,0.0,0.0,0.0,0.0,0.0,-3.5717,0.0,0.0,-3.6485,-3.6795,0.0,0.0,0.0,-3.8362,-3.8362,-3.8159,0.0,0.0,0.0,0.0,0.0,0.0,0.0,0.0,0.0,0.0,-4.0096,0.0,0.0,-4.0096,-4.0096,-4.0096,-4.0096,-4.0096,-4.0096,-4.0096,-4.0096,-4.0096,-4.0096,-4.0096,-4.0096,-4.0096,-4.0096,-4.0096,-4.0096,-4.0096,-4.0096,-4.0096,-4.0096,-4.0096,-4.0096,-4.0096,-4.0096,-4.0096,-4.0096,-4.0096,-4.0096,-4.0096,-4.0237,-4.0552,-4.1133,-4.1746,-4.2322,-4.2902,-4.3286,-4.3515,-4.3515,-4.3515,-4.3515,-4.3515,-4.3515,-4.3515,-4.3515,-4.3515,-4.3515,-4.3515,-4.3515,-4.3515,-4.3515,-4.3515,-4.3515,0.0,0.0,0.0,0.0,0.0,0.0,0.0,0.0,0.0,0.0,0.0,0.0,0.0,0.0,0.0,0.0,-3.4018,-3.4056,-3.3815,-3.4018,0.0,0.0,0.0,0.0,0.0,0.0,0.0,0.0,0.0,0.0,0.0,0.0,0.0,0.0,0.0,0.0,0.0,0.0,0.0,-3.56,-3.56,-3.565,0.0,0.0,-3.6981,-3.7235,-3.8616,-3.9106,-3.9106,-3.9106,-3.8684,0.0,0.0,0.0,0.0,0.0,-3.9056,0.0,0.0,0.0,0.0,0.0,-4.0096,0.0,-4.0096,-4.0096,-4.0096,-4.0096,-4.0096,-4.0096,-4.0096,-4.0096,-4.0096,-4.0096,-4.0096,-4.0096,-4.0096,-4.0096,-4.0096,-4.0096,-4.0096,-4.0096,-4.0096,-4.0096,-4.0096,-4.0096,-4.0096,-4.0096,-4.0096,-4.0096,-4.0096,-4.0096,-4.0096,-4.0096,-4.0096,-4.0631,-4.1178,-4.1725,-4.2302,-4.2884,-4.341,-4.341,-4.3444,-4.3515,-4.3515,-4.3515,-4.3515,-4.3515,-4.3515,-4.3515,-4.3515,-4.3515,-4.3515,-4.3515,-4.3515,-4.3515,0.0,0.0,0.0,0.0,0.0,0.0,0.0,0.0,0.0,0.0,0.0,0.0,0.0,0.0,0.0,0.0,-3.3855,-3.3868,-3.3788,-3.3855,0.0,0.0,0.0,0.0,0.0,0.0,0.0,0.0,0.0,0.0,0.0,0.0,0.0,0.0,0.0,0.0,0.0,0.0,0.0,-3.56,-3.56,-3.5994,-3.666,-3.7398,-3.8041,-3.8684,-3.9571,-3.9893,-3.9893,-3.9893,-3.9791,-3.9673,0.0,0.0,0.0,-3.9673,0.0,0.0,0.0,0.0,0.0,0.0,-4.0096,0.0,-4.0096,-4.0096,-4.0096,-4.0096,-4.0096,-4.0096,-4.0096,-4.0096,-4.0096,-4.0096,-4.0096,-4.0096,-4.0096,-4.0096,-4.0096,-4.0096,-4.0096,-4.0096,-4.0096,-4.0096,-4.0096,-4.0096,-4.0096,-4.0096,-4.0096,-4.0096,-4.0096,-4.0096,-4.0096,-4.0096,-4.0096,-4.0631,-4.0972,-4.1087,-4.1686,-4.2284,-4.2864,-4.2864,-4.3087,-4.3515,-4.3515,-4.3515,-4.3515,-4.3515,-4.3515,-4.3515,-4.3515,-4.3515,-4.3515,-4.3515,-4.3515,-4.3515,0.0,0.0,0.0,0.0,0.0,0.0,0.0,0.0,0.0,0.0,0.0,0.0,0.0,0.0,0.0,0.0,0.0,0.0,0.0,0.0,0.0,0.0,0.0,0.0,0.0,0.0,0.0,0.0,0.0,0.0,0.0,0.0,0.0,0.0,0.0,0.0,0.0,0.0,-3.5046,-3.56,-3.56,0.0,-3.688,-3.7618,-3.8362,-3.9089,-3.9842,-4.0096,-4.0096,-4.0096,-4.0096,0.0,-4.0096,-3.9859,-3.9622,0.0,-3.9842,-3.9639,0.0,0.0,0.0,-4.0096,0.0,0.0,0.0,-4.0096,-4.0096,-4.0096,-4.0096,-4.0096,-4.0096,-4.0096,-4.0096,-4.0096,-4.0096,-4.0096,-4.0096,-4.0096,-4.0096,-4.0096,-4.0096,-4.0096,-4.0096,-4.0096,-4.0096,-4.0096,-4.0096,-4.0096,-4.0096,-4.0096,-4.0096,-4.0096,-4.0096,-4.0096,-4.0096,-4.0368,-4.0648,-4.0903,-4.1201,-4.1814,-4.2711,-4.2711,-4.2995,-4.3515,-4.3515,-4.3515,-4.3515,-4.3515,-4.3515,-4.3515,-4.3515,-4.3515,-4.3515,-4.3515,-4.3515,-4.3515,-3.3807,0.0,0.0,0.0,0.0,0.0,0.0,0.0,0.0,0.0,0.0,0.0,0.0,0.0,0.0,0.0,0.0,0.0,0.0,0.0,0.0,0.0,0.0,-3.3807,0.0,0.0,0.0,0.0,0.0,0.0,0.0,0.0,0.0,0.0,0.0,0.0,0.0,0.0,0.0,-3.56,0.0,-3.618,-3.7083,-3.7669,-3.8447,-3.9276,-3.9893,-4.0096,-4.0096,-4.0096,-4.0096,-4.0096,-4.0096,-4.0096,0.0,0.0,0.0,0.0,0.0,0.0,0.0,0.0,0.0,-4.0096,0.0,0.0,0.0,-4.0096,0.0,0.0,0.0,0.0,0.0,0.0,0.0,0.0,0.0,-4.0011,0.0,-4.0096,-4.0096,-4.0096,-4.0096,-4.0096,-4.0096,-4.0096,-4.0096,-4.0096,-4.0096,-4.0096,-4.0096,-4.0096,-4.0096,-4.0096,-4.0096,-4.0096,-4.0311,-4.075,-4.075,-4.1313,-4.2362,-4.248,-4.2827,-4.3357,-4.3357,-4.341,-4.3479,-4.3392,-4.341,-4.3515,-4.3515,-4.3515,-4.3515,-4.3515,-4.3387,-4.3276,-3.3807,-3.3807,0.0,0.0,0.0,0.0,0.0,0.0,0.0,0.0,0.0,0.0,0.0,0.0,0.0,0.0,0.0,0.0,-3.3807,0.0,0.0,0.0,0.0,0.0,-3.3807,0.0,0.0,0.0,0.0,0.0,0.0,0.0,0.0,0.0,-3.295,0.0,0.0,0.0,-3.4295,0.0,-3.56,-3.6462,0.0,-3.7872,-3.8751,-3.9994,-4.0079,-4.0096,-4.0096,0.0,-4.0096,-4.0096,0.0,-4.0096,-4.0096,-4.0096,0.0,0.0,0.0,0.0,0.0,0.0,-4.0096,0.0,-4.0096,0.0,-4.0096,-4.0096,0.0,-4.0096,0.0,0.0,0.0,0.0,0.0,0.0,-3.9208,-3.9706,-4.0096,-4.0096,-4.0096,-4.0096,-4.0096,-4.0096,-4.0096,-4.0096,-4.0096,-4.0096,-4.0096,-4.0096,-4.0096,-4.0096,-4.0096,-4.0096,-4.0096,-4.0096,-4.0121,-4.0179,-4.0179,-4.0521,-4.1133,-4.1664,-4.2223,-4.2788,-4.2788,-4.305,-4.3462,-4.2976,-4.3069,-4.3515,-4.3515,-4.3515,-4.3515,-4.3515,-4.3039,-4.2433,-3.3807,-3.3807,0.0,0.0,0.0,0.0,0.0,0.0,0.0,0.0,0.0,0.0,0.0,0.0,0.0,0.0,0.0,-3.3807,0.0,0.0,0.0,0.0,0.0,0.0,0.0,0.0,0.0,0.0,-3.3807,0.0,0.0,0.0,0.0,0.0,-3.2887,0.0,-3.464,0.0,-3.4247,0.0,0.0,0.0,0.0,-3.7905,-3.8819,-4.0096,-4.0096,-4.0096,-4.0096,0.0,-4.0096,0.0,0.0,0.0,0.0,-4.0096,0.0,0.0,0.0,0.0,0.0,0.0,0.0,0.0,-4.0096,0.0,-4.0096,0.0,0.0,0.0,0.0,0.0,0.0,0.0,-3.8903,0.0,0.0,0.0,-3.9622,0.0,0.0,0.0,-4.0096,-4.0096,-4.0096,-4.0096,-4.0096,-4.0096,-4.0096,-4.0096,-4.0096,-4.0096,-4.0096,-4.0096,-4.0096,-4.0096,-4.0096,-4.0096,-4.0096,-4.0368,-4.0903,-4.1155,-4.1599,-4.2183,-4.2183,-4.2304,-4.2503,-4.2264,-4.2056,-4.1897,-4.2177,-4.2502,-4.28,-4.28,-4.2286,-4.159,-3.3807,0.0,0.0,0.0,0.0,0.0,0.0,0.0,0.0,0.0,0.0,0.0,-3.4486,-3.4486,0.0,0.0,-3.4486,-3.4376,0.0,0.0,-3.4027,0.0,0.0,0.0,0.0,0.0,0.0,0.0,0.0,0.0,0.0,0.0,0.0,0.0,0.0,-3.351,-3.4658,0.0,-3.4455,-3.5667,-3.6468,-3.7347,-3.8227,-3.843,-3.9157,-4.0096,-4.0096,-4.0096,-4.0096,-4.0096,-4.0096,0.0,-4.0096,0.0,-4.0096,0.0,0.0,0.0,-4.0096,0.0,0.0,0.0,0.0,0.0,0.0,0.0,0.0,0.0,0.0,0.0,0.0,0.0,0.0,0.0,0.0,-3.7838,0.0,-3.8227,0.0,0.0,0.0,0.0,0.0,-4.0096,-4.0096,-4.0096,-4.0096,-4.0096,-4.0096,-4.0096,-4.0096,-4.0096,-4.0096,-4.0096,-4.0096,-4.0096,-4.0096,-4.0096,-4.0096,-4.0311,-4.0679,-4.0833,-4.1155,-4.1556,-4.1556,-4.1643,-4.1771,-4.1392,-4.1033,-4.073,-4.0989,-4.1234,-4.1475,-4.1832,-4.146,-4.0781,-3.3807,-3.3807,0.0,0.0,0.0,0.0,0.0,0.0,0.0,0.0,0.0,0.0,0.0,0.0,0.0,0.0,0.0,-3.5862,-3.5023,0.0,-3.4619,0.0,0.0,-3.3807,0.0,0.0,0.0,0.0,0.0,0.0,0.0,0.0,0.0,0.0,-3.3625,-3.3988,-3.4693,-3.4525,-3.4912,-3.5667,-3.6468,-3.7675,-3.9039,0.0,-4.0062,-4.0096,-4.0096,0.0,0.0,-4.0096,-4.0096,0.0,0.0,0.0,0.0,0.0,0.0,0.0,0.0,0.0,0.0,-4.0096,0.0,0.0,0.0,0.0,-4.0096,0.0,0.0,0.0,0.0,0.0,0.0,0.0,0.0,0.0,0.0,0.0,0.0,0.0,0.0,0.0,0.0,-4.0096,-4.0096,-4.0096,-4.0096,-4.0096,-4.0096,-4.0096,-4.0096,-4.0096,-4.0096,-4.0096,-4.0096,-4.0096,-4.0096,-4.0096,-4.0096,-4.0096,-4.0146,-4.0655,-4.0903,-4.0926,-4.0926,-4.1268,-4.1697,-4.0393,-4.0193,-4.0677,-4.0415,-3.986,-3.9352,-4.0653,-4.0634,-3.9937,0.0,0.0,0.0,0.0,0.0,0.0,0.0,-3.4839,0.0,0.0,-3.6119,0.0,0.0,-3.6303,-3.6303,0.0,0.0,-3.6174,-3.5881,-3.5862,0.0,0.0,0.0,-3.4344,0.0,0.0,0.0,0.0,0.0,0.0,0.0,0.0,0.0,0.0,0.0,-3.4005,0.0,0.0,0.0,0.0,0.0,-3.8396,-3.9757,0.0,-4.0096,-4.0096,-4.0096,-4.0096,0.0,-4.0096,-4.0096,-4.0096,-4.0096,-4.0096,-4.0096,-4.0096,-4.0096,0.0,0.0,0.0,-3.9978,-3.9437,0.0,0.0,0.0,0.0,0.0,0.0,0.0,0.0,0.0,0.0,0.0,0.0,0.0,0.0,0.0,0.0,-3.7449,-3.8176,0.0,0.0,0.0,0.0,-3.9385,-3.9385,-3.9825,-4.0096,-4.0096,-4.0096,-4.0096,-4.0096,-4.0096,-4.0096,-4.0096,-4.0096,-4.0096,-4.0096,-4.0096,-4.0096,-4.0113,-4.0286,-4.0368,-4.0368,-4.0368,-4.049,-4.0597,-3.9662,-3.9087,-3.8813,-3.8562,-3.7978,-3.7554,-3.9577,-3.9808,-3.9111,-3.3807,0.0,0.0,0.0,0.0,0.0,0.0,0.0,0.0,0.0,-3.6982,0.0,-3.7147,0.0,-3.7147,0.0,-3.7147,-3.7019,-3.6758,-3.674,0.0,-3.55,-3.5169,-3.4766,0.0,0.0,0.0,0.0,0.0,-3.3807,0.0,0.0,0.0,0.0,0.0,-3.4412,-3.5116,-3.4953,-3.5334,0.0,0.0,-3.9005,0.0,0.0,-4.0096,-4.0096,0.0,-4.0096,-4.0096,-4.0096,-4.0096,-4.0096,-4.0096,-3.9901,-3.9662,-3.9662,-3.9506,-3.9172,-3.8652,-3.8887,0.0,-3.8635,-3.9102,0.0,-3.9662,0.0,-4.0096,0.0,0.0,0.0,0.0,0.0,0.0,0.0,0.0,0.0,0.0,-3.6045,-3.6552,-3.7043,-3.7584,-3.7905,0.0,-3.8328,-3.8717,-3.8971,-3.9453,-3.9825,-4.0096,-4.0096,-4.0096,-4.0096,-4.0096,-4.0096,-4.0096,-4.0096,-4.0096,-4.0096,-4.0096,-4.0096,-4.0096,-4.0096,-4.0096,-4.0096,-4.0096,-3.996,-3.9656,-3.8903,-3.8176,-3.7485,-3.7197,-3.6828,-3.6632,-3.8489,-3.8985,-3.8707,-3.3917,-3.3917,0.0,0.0,-3.4582,0.0,0.0,0.0,-3.7511,0.0,-3.823,-3.8707,-3.8707,-3.8707,-3.8707,-3.8707,-3.8707,-3.8377,-3.7621,-3.7566,0.0,0.0,-3.5573,-3.5114,-3.5078,0.0,0.0,0.0,0.0,0.0,0.0,0.0,0.0,0.0,-3.4789,0.0,-3.5893,-3.5707,-3.6096,-3.6981,-3.8413,-3.9453,-4.0096,-4.0096,-4.0096,-4.0096,-4.0096,-4.0096,-4.0096,-4.0096,-4.0096,-4.0096,-4.0096,-3.9542,-3.8908,-3.8908,-3.8386,-3.7777,-3.7748,-3.7764,-3.7777,-3.7764,-3.8302,0.0,0.0,0.0,-4.0045,0.0,0.0,0.0,0.0,0.0,0.0,0.0,0.0,0.0,0.0,0.0,-3.56,-3.56,-3.6884,-3.7804,-3.7804,-3.7821,-3.8142,-3.8836,-3.8954,-3.9292,0.0,-4.0079,-4.0096,-4.0096,-4.0096,-4.0096,-4.0096,-4.0096,-4.0096,-4.0096,-4.0096,-4.0096,-4.0096,-4.0096,-4.0096,-4.0096,-4.0096,-3.969,-3.8937,-3.821,-3.7466,-3.6774,-3.647,-3.6392,-3.6522,-3.7524,-3.8216,-3.8658,-3.5661,-3.5661,-3.5844,0.0,-3.6229,-3.6248,0.0,0.0,0.0,0.0,-3.8579,-3.8707,-3.8707,-3.8707,-3.8707,-3.8707,-3.8707,0.0,0.0,0.0,0.0,-3.7235,-3.6978,-3.6578,-3.5973,-3.5133,-3.4692,-3.4692,0.0,0.0,-3.3807,0.0,0.0,0.0,0.0,0.0,-3.5893,-3.5707,-3.6383,-3.7702,-3.8616,-3.9453,-4.0096,0.0,-4.0096,-4.0096,-4.0096,-4.0096,-4.0096,-4.0096,-4.0096,-4.0096,-4.0096,-3.9542,-3.8908,-3.8908,-3.8386,-3.7661,-3.7054,-3.7338,-3.7661,-3.707,-3.7499,-3.8092,0.0,0.0,0.0,0.0,0.0,0.0,0.0,0.0,0.0,0.0,0.0,0.0,0.0,0.0,0.0,-3.56,-3.5955,-3.6174,-3.6174,-3.6721,-3.7168,-3.7354,-3.8386,-3.9073,-3.9259,0.0,-4.0096,-4.0096,-4.0096,-4.0096,-4.0096,-4.0096,-4.0096,-4.0096,-4.0096,-4.0096,-4.0096,-4.0096,-4.0096,-4.0096,-4.0096,-3.969,-3.8937,-3.821,-3.7466,-3.6728,-3.6067,-3.6054,-3.6522,-3.7524,-3.798,-3.8167,-3.6303,-3.6593,0.0,-3.7419,0.0,0.0,-3.7955,-3.801,0.0,-3.8652,-3.9019,0.0,-3.9221,-3.9221,-3.9221,-3.9221,-3.8909,0.0,-3.8707,0.0,0.0,-3.8028,-3.7694,-3.729,-3.6831,-3.6009,0.0,-3.5004,0.0,0.0,-3.3807,0.0,0.0,0.0,0.0,-3.5684,-3.6477,-3.6563,-3.7127,-3.799,-3.9039,-3.974,0.0,-4.0096,-4.0096,-4.0096,-4.0096,-4.0096,-4.0096,-4.0096,-4.0096,-4.0045,-3.9705,-3.9032,-3.8358,-3.8003,-3.7381,-3.6692,-3.6228,-3.6446,-3.6692,-3.6228,-3.6692,-3.7279,-3.7279,-3.7876,-3.8414,0.0,-3.9049,-3.9451,0.0,0.0,0.0,0.0,0.0,0.0,0.0,0.0,0.0,0.0,-3.56,-3.56,-3.56,-3.6011,-3.6417,-3.6778,-3.7574,-3.8311,0.0,0.0,-3.9774,-4.0096,-4.0096,-4.0096,-4.0096,-4.0096,-4.0096,-4.0096,-4.0096,-4.0096,-4.0096,-4.0096,-4.0096,-4.0096,-4.0096,-3.9503,-3.8481,-3.8075,-3.7263,-3.6231,-3.5769,-3.5766,-3.6161,-3.6944,-3.7379,-3.7685,-3.6615,-3.7165,0.0,0.0,0.0,0.0,0.0,-3.8854,0.0,-3.8854,0.0,-4.0065,-4.0065,-4.0065,-4.0065,-4.0065,0.0,-3.8854,-3.8854,-3.8762,-3.8707,-3.8707,-3.8028,-3.7658,-3.7658,-3.6868,-3.6083,0.0,0.0,0.0,0.0,0.0,0.0,0.0,0.0,0.0,0.0,-3.7701,-3.7973,-3.8159,-3.9554,-4.0096,-4.0096,-4.0096,-4.0096,-4.0096,-4.0096,-4.0096,-4.0096,-4.0096,-4.002,-3.9808,-3.9113,-3.833,-3.7515,-3.6828,-3.6086,-3.5504,-3.5504,-3.5504,-3.5504,-3.5504,-3.5975,-3.6477,-3.6477,-3.707,-3.7632,-3.7632,-3.8246,-3.8799,0.0,0.0,0.0,0.0,0.0,0.0,0.0,0.0,0.0,0.0,0.0,0.0,-3.56,-3.56,-3.5893,-3.6586,-3.6745,-3.7371,0.0,0.0,-3.9276,-3.9943,-4.0045,-4.0096,-4.0096,-4.0096,-4.0096,-4.0096,-4.0096,-4.0096,-4.0096,-4.0096,-4.0096,-4.0096,-4.0096,-3.9334,-3.8041,-3.7939,-3.6986,-3.56,-3.56,-3.56,-3.5667,-3.6118,-3.6583,-3.7058,-3.8285,0.0,0.0,0.0,0.0,-3.968,-3.968,-3.968,-3.968,-3.968,-4.0396,-4.0875,-4.0875,-4.0875,-4.0875,-4.0875,-4.0157,0.0,0.0,0.0,0.0,-3.8707,-3.856,-3.8487,-3.8487,-3.7698,-3.7217,0.0,0.0,0.0,0.0,0.0,0.0,0.0,0.0,0.0,-3.6921,-3.7611,0.0,-3.887,-3.9757,-4.0096,-4.0096,-4.0096,-4.0096,-4.0096,-4.0096,-4.0096,-4.0096,-4.0096,-3.9662,-3.9086,-3.8935,-3.793,-3.6783,-3.663,-3.6086,-3.5504,-3.5504,-3.5504,-3.5504,-3.5504,-3.5587,-3.5701,-3.5701,-3.6259,-3.6813,-3.6813,-3.744,-3.8161,-3.8799,0.0,0.0,0.0,0.0,0.0,0.0,0.0,0.0,0.0,0.0,-3.56,0.0,-3.56,-3.565,-3.5785,-3.6417,-3.6914,0.0,0.0,-3.9056,0.0,-3.9791,0.0,0.0,0.0,-4.0096,-4.0096,-4.0096,-4.0096,-4.0096,-4.0096,-4.0096,-4.0096,-4.0096,-3.9622,-3.8751,-3.8159,-3.6986,-3.56,-3.56,-3.56,-3.5622,-3.5694,-3.5788,-3.6032,-3.9239,0.0,0.0,0.0,0.0,0.0,0.0,-4.0873,-4.1001,-4.0579,-4.1222,-4.1735,-4.1735,-4.1735,-4.1735,-4.1735,-4.1001,-4.0359,-3.9918,-3.9533,-3.9148,-3.8726,-3.8707,-3.8707,-3.8707,-3.8322,-3.7933,-3.7492,0.0,0.0,0.0,0.0,0.0,0.0,0.0,-3.6776,0.0,0.0,0.0,-3.9056,-3.9808,-4.0096,-4.0096,-4.0096,-4.0096,-4.0096,-4.0096,-4.0096,-4.0096,-4.0096,-3.9584,-3.8827,-3.8442,-3.7541,-3.6523,-3.6134,-3.5782,-3.5504,-3.5504,-3.5504,-3.5504,-3.5504,-3.5504,-3.5504,-3.5504,-3.5782,-3.6023,-3.6023,-3.6631,-3.7411,-3.8189,-3.7758,0.0,0.0,0.0,0.0,0.0,0.0,-3.56,0.0,0.0,0.0,0.0,0.0,0.0,0.0,0.0,0.0,0.0,0.0,-3.8217,0.0,0.0,0.0,-4.0096,0.0,-4.0096,-4.0096,-4.0096,-4.0096,-4.0096,-4.0096,-4.0096,-4.0096,-4.0096,-3.969,-3.8903,-3.7787,-3.6654,-3.56,-3.56,-3.56,-3.56,-3.56,-3.56,-3.5717,0.0,-4.0157,0.0,0.0,-4.1242,-4.1352,-4.1352,-4.2047,-4.2268,-4.1462,-4.2066,-4.2561,-4.2561,-4.2561,-4.2561,-4.2561,-4.1827,-4.102,-4.0212,-3.9992,-3.9533,-3.8744,-3.8707,-3.8707,-3.8707,-3.8707,-3.8395,0.0,0.0,0.0,0.0,0.0,0.0,0.0,0.0,0.0,0.0,0.0,-3.8413,-3.9276,-3.9876,-4.0096,-4.0096,-4.0096,-4.0096,-4.0096,-4.0096,-4.0096,-4.0096,-4.0096,-3.9584,-3.8772,-3.8035,-3.7249,-3.6477,-3.5733,-3.5504,-3.5504,-3.5504,-3.5504,-3.5504,-3.5504,-3.5504,-3.5504,-3.5504,-3.5504,-3.5504,-3.5504,-3.6086,-3.6737,-3.7235,-3.6972,0.0,0.0,0.0,0.0,0.0,0.0,0.0,0.0,0.0,0.0,-3.5385,0.0,0.0,0.0,0.0,0.0,-3.6502,0.0,0.0,0.0,0.0,-3.9368,-4.0096,0.0,-4.0096,-4.0096,-4.0096,-4.0096,-4.0096,-4.0096,-4.0096,-4.0096,-4.0096,-3.969,-3.8886,-3.7567,-3.6569,-3.5836,-3.5667,-3.56,-3.56,-3.56,-3.56,-3.565,0.0,0.0,0.0,0.0,0.0,-4.2194,-4.2194,-4.2873,-4.3094,-4.2286,-4.2892,-4.3404,-4.3404,-4.3404,-4.3404,-4.3404,-4.2653,-4.1864,-4.104,-4.0304,-3.9533,-3.8744,-3.8707,-3.8707,-3.8707,-3.8707,-3.867,0.0,0.0,-3.8175,0.0,0.0,0.0,0.0,0.0,0.0,0.0,-3.808,-3.87,-4.0011,-4.0079,-4.0096,-4.0096,-4.0096,-4.0096,-4.0096,-4.0096,-4.0096,-4.0096,-4.0096,-3.9584,-3.8772,-3.8035,-3.7249,-3.6477,-3.5733,-3.5504,-3.5504,-3.5504,-3.5504,-3.5504,-3.5504,-3.5504,-3.5504,-3.5504,-3.5504,-3.5504,-3.5504,-3.6086,-3.6415,-3.5814,-3.6269,-3.6451,0.0,0.0,0.0,0.0,0.0,-3.4688,-3.4688,0.0,0.0,-3.4759,-3.523,0.0,0.0,-3.56,0.0,0.0,0.0,0.0,-3.799,-3.865,-3.9368,-4.0096,-4.0096,-4.0096,-4.0096,-4.0096,-4.0096,-4.0096,-4.0096,-4.0096,-4.0096,-4.0096,-3.969,-3.8937,-3.8125,-3.7347,-3.6626,-3.5893,-3.56,-3.56,-3.56,-3.56,-3.56,0.0,0.0,0.0,0.0,0.0,0.0,0.0,-4.3277,-4.3386,-4.3057,-4.3313,-4.3515,-4.3515,-4.3515,-4.3515,-4.3515,-4.3221,-4.2671,-4.1882,-4.1075,-4.0267,-3.946,-3.8964,-3.8707,-3.8707,-3.8707,-3.8707,0.0,0.0,0.0,0.0,0.0,0.0,0.0,0.0,-3.8325,-3.9056,-3.8715,-3.9157,-4.0096,-4.0096,-4.0096,-4.0096,-4.0096,-4.0096,-4.0096,-4.0096,-4.0096,-4.0096,-4.0096,-3.9584,-3.8854,-3.8553,-3.76,-3.6554,-3.6259,-3.5831,-3.5504,-3.5504,-3.5504,-3.5504,-3.5504,-3.5504,-3.5504,-3.5504,-3.5504,-3.5504,-3.5504,-3.5718,-3.5831,-3.5554,-3.5777,-3.5738,-3.5002,0.0,0.0,0.0,0.0,0.0,-3.4012,0.0,-3.4894,0.0,-3.5207,0.0,0.0,0.0,0.0,0.0,0.0,0.0,-3.7872,0.0,-3.8903,-4.0096,-4.0096,-4.0096,-4.0096,-4.0096,-4.0096,-4.0096,-4.0096,-4.0096,-4.0096,-4.0096,-3.969,-3.8971,-3.8684,-3.7855,-3.6778,-3.6434,-3.6028,-3.56,-3.56,-3.56,-3.56,-4.2543,0.0,-4.2818,0.0,-4.3515,-4.3515,-4.3515,-4.3515,-4.3515,-4.3515,-4.3515,-4.3515,-4.3515,-4.3515,-4.3515,-4.3515,-4.3515,-4.3149,-4.2359,-4.1772,-4.1001,-3.9937,-3.935,0.0,-3.8707,-3.8707,-3.8707,-3.8707,-3.8707,0.0,0.0,0.0,0.0,0.0,-3.8544,-3.8848,-3.972,-3.9202,-3.9436,-4.0096,-4.0096,-4.0096,-4.0096,-4.0096,-4.0096,-4.0096,-4.0096,-4.0096,-4.0096,-4.0096,-3.9714,-3.9193,-3.8962,-3.8157,-3.7188,-3.6722,-3.6228,-3.5782,-3.5554,-3.5504,-3.5504,-3.5504,-3.5504,-3.5504,-3.5504,-3.5504,-3.5504,-3.5504,-3.5504,-3.5504,-3.5504,-3.5504,-3.5355,-3.4861,0.0,0.0,0.0,-3.3666,0.0,-3.3345,-3.4087,-3.4528,-3.4333,-3.5075,0.0,0.0,0.0,0.0,0.0,0.0,0.0,0.0,0.0,0.0,-4.0096,-4.0096,-4.0096,-4.0096,-4.0096,-4.0096,-4.0096,-4.0096,-4.0096,-4.0096,-4.0096,-3.9808,-3.9292,-3.9089,-3.8379,-3.7405,-3.6981,-3.6451,-3.5926,-3.5684,-3.56,-3.56,-4.3478,-4.3496,-4.3496,-4.3515,-4.3515,-4.3515,-4.3515,-4.3515,-4.3515,-4.3515,-4.3515,-4.3515,-4.3515,-4.3515,-4.3515,-4.3515,-4.3515,-4.3149,-4.2359,-4.2286,-4.157,0.0,0.0,-3.9515,-3.8726,-3.8707,-3.8707,-3.8707,0.0,0.0,-3.7511,0.0,-3.8355,-3.9832,-3.8759,-3.9148,-4.0535,-3.9448,-3.9436,-4.0096,-4.0096,-4.0096,-4.0096,-4.0096,-4.0096,-4.0096,-4.0096,-4.0096,-4.0096,-4.0096,-4.0096,-3.9952,-3.9139,-3.8881,-3.8564,-3.7038,-3.6569,-3.6415,-3.5701,-3.5504,-3.5504,-3.5504,-3.5504,-3.5504,-3.5504,-3.5504,-3.5504,-3.5504,-3.5504,-3.5504,-3.5504,-3.5504,-3.5504,-3.5489,0.0,0.0,0.0,-3.3908,0.0,-3.2691,-3.3786,-3.4333,-3.3684,-3.4823,0.0,0.0,0.0,0.0,0.0,0.0,0.0,-3.7855,-3.7905,0.0,-4.0096,-4.0096,-4.0096,-4.0096,-4.0096,-4.0096,-4.0096,-4.0096,-4.0096,-4.0096,-4.0096,-4.0096,-4.0028,-3.9317,-3.8988,-3.8819,-3.7371,-3.6795,-3.6694,-3.5887,-3.56,-3.56,-4.3515,-4.3515,-4.3515,-4.3515,-4.3515,-4.3515,-4.3515,-4.3515,-4.3515,-4.3515,-4.3515,-4.3515,-4.3515,-4.3515,-4.3515,0.0,-4.3515,-4.3404,0.0,-4.2598,-4.2066,-4.1552,-4.102,-4.0341,-3.9533,-3.9515,-3.9239,-3.8707,0.0,0.0,0.0,-3.8872,-3.9405,-3.9905,-3.9867,-4.0138,-4.0549,-3.9997,-3.9893,-4.0096,-4.0096,-4.0096,-4.0096,-4.0096,-4.0096,-4.0096,-4.0096,-4.0096,-4.0096,-4.0096,-4.0096,-4.0045,-3.9808,-3.9342,-3.8701,-3.7703,-3.7024,-3.6446,-3.5701,-3.5504,-3.5504,-3.5504,-3.5504,-3.5504,-3.5504,-3.5504,-3.5504,-3.5504,-3.5504,-3.5504,-3.5504,-3.5504,-3.5504,-3.5504,-3.4921,0.0,-3.388,0.0,-3.2579,-3.1928,-3.268,-3.3145,-3.2949,-3.4137,0.0,0.0,0.0,0.0,0.0,0.0,0.0,0.0,-3.7905,0.0,-4.0096,-4.0096,-4.0096,-4.0096,-4.0096,-4.0096,-4.0096,-4.0096,-4.0096,-4.0096,-4.0096,-4.0096,-4.0079,-3.9859,-3.9445,-3.8937,-3.8464,-3.7692,-3.6778,-3.6502,-3.6079,-3.56,-4.3515,-4.3515,-4.3515,-4.3515,-4.3515,-4.3515,-4.3515,-4.3515,-4.3515,-4.3515,-4.3515,-4.3515,-4.3515,-4.3515,0.0,-4.3515,-4.3515,-4.3515,-4.3515,-4.302,-4.2616,-4.2304,-4.1827,-4.1185,-4.0377,-4.0359,0.0,-3.9591,-3.9591,-3.9591,-3.9625,-4.012,-4.0506,-4.0804,-4.0884,-4.0963,-4.1015,-4.0584,-4.0286,-4.0096,-4.0096,-4.0096,-4.0096,-4.0096,-4.0096,-4.0096,-4.0096,-4.0096,-4.0096,-4.0096,-4.0096,-4.0096,-4.0096,-3.9756,-3.9209,-3.8458,-3.7674,-3.6889,-3.6117,-3.5701,-3.5504,-3.5504,-3.5504,-3.5504,-3.5504,-3.5504,-3.5504,-3.5504,-3.5504,-3.5504,-3.5504,-3.5504,-3.5504,-3.5504,-3.5145,-3.4622,-3.3963,0.0,-3.2647,0.0,0.0,0.0,0.0,-3.3582,-3.4333,0.0,0.0,0.0,0.0,0.0,0.0,-3.7872,-3.8176,-3.8886,-4.0096,-4.0096,-4.0096,-4.0096,-4.0096,-4.0096,-4.0096,-4.0096,-4.0096,-4.0096,-4.0096,-4.0096,-4.0096,-4.0096,-3.9842,-3.9402,-3.9106,-3.843,-3.7608,-3.7313,-3.6891,-3.6462,-4.3515,-4.3515,-4.3515,0.0,-4.3515,-4.3515,-4.3515,-4.3515,-4.3515,-4.3515,-4.3515,-4.3515,-4.3515,-4.3515,-4.3515,-4.3515,0.0,0.0,-4.3515,-4.3515,-4.3167,-4.2415,-4.2378,-4.2011,-4.1187,-4.1168,-4.115,-4.1095,-4.1095,-4.1095,-4.1095,-4.115,-4.1572,-4.2288,-4.1724,-4.1608,-4.175,-4.1155,-4.0601,-4.0096,-4.0096,-4.0096,-4.0096,-4.0096,-4.0096,-4.0096,-4.0096,-4.0096,-4.0096,-4.0096,-4.0096,-4.0096,-4.0096,-4.0096,-3.9927,-3.9086,-3.833,-3.7602,-3.6768,-3.6023,-3.5504,-3.5504,-3.5504,-3.5504,-3.5504,-3.5504,-3.5504,-3.5504,-3.5504,-3.5504,-3.5504,-3.5504,-3.5504,-3.5504,-3.5504,-3.5265,-3.4593,-3.3903,-3.3245,0.0,0.0,0.0,-3.2504,-3.313,-3.3811,0.0,0.0,0.0,0.0,0.0,-3.7286,-3.7956,-3.8633,-3.9368,-4.0096,-4.0096,-4.0096,-4.0096,-4.0096,-4.0096,-4.0096,-4.0096,-4.0096,-4.0096,-4.0096,-4.0096,-4.0096,-4.0096,-4.0096,-4.0028,-3.9326,-3.9039,-3.8903,-3.8227,-3.7939,-3.7905,0.0,0.0,-4.3515,-4.3515,-4.3515,-4.3515,-4.3515,-4.3515,-4.3515,-4.3515,-4.3515,-4.3515,-4.3515,-4.3515,-4.3515,-4.3515,-4.3515,-4.3515,-4.3515,-4.3515,-4.3423,-4.3222,-4.3222,-4.2837,-4.2029,-4.2029,-4.1735,-4.1095,-4.1095,-4.1095,-4.1113,-4.1735,-4.2121,-4.2306,-4.2358,-4.2183,-4.175,-4.1155,-4.0601,-4.0096,-4.0096,-4.0096,-4.0096,-4.0096,-4.0096,-4.0096,-4.0096,-4.0096,-4.0096,-4.0096,-4.0096,-4.0096,-4.0096,-4.0096,-3.985,-3.8458,-3.7921,-3.7485,-3.6133,-3.5636,-3.5504,-3.5504,-3.5504,-3.5504,-3.5504,-3.5504,-3.5504,-3.5504,-3.5504,-3.5504,-3.5504,-3.5504,-3.5504,-3.5504,-3.5504,-3.5265,-3.4593,-3.3903,-3.3245,0.0,-3.2074,-3.1768,-3.1768,-3.2394,-3.3119,0.0,0.0,0.0,-3.6749,-3.7879,-3.8548,-3.8717,-3.8903,-3.9368,-4.0096,-4.0096,-4.0096,-4.0096,-4.0096,-4.0096,-4.0096,-4.0096,-4.0096,-4.0096,-4.0096,-4.0096,-4.0096,-4.0096,-4.0096,-4.0079,-3.991,-3.9503,-3.8971,-3.8802,-3.8379,-3.7905,-4.3515,-4.3515,-4.3515,-4.3515,-4.3515,-4.3515,-4.3515,-4.3515,-4.3515,-4.3515,-4.3515,-4.3515,-4.3515,-4.3515,-4.3515,-4.3515,-4.3515,-4.3515,-4.3515,-4.3515,-4.3515,-4.3515,-4.3515,-4.3313,-4.2855,-4.2837,-4.2635,-4.2194,-4.2194,-4.2194,-4.2213,-4.2635,-4.2837,-4.2855,-4.2995,-4.2599,-4.1789,-4.1446,-4.0844,-4.0096,-4.0096,-4.0096,-4.0096,-4.0096,-4.0096,-4.0096,-4.0096,-4.0096,-4.0096,-4.0096,-4.0096,-4.0096,-4.0096,-4.0096,-3.9876,-3.8652,-3.8064,-3.7618,-3.6784,-3.6022,-3.5504,-3.5504,-3.5504,-3.5504,-3.5504,-3.5504,-3.5504,-3.5504,-3.5504,-3.5504,-3.5504,-3.5504,-3.5504,-3.5504,-3.5504,-3.537,-3.4996,-3.4367,-3.3814,-3.3455,-3.2557,-3.2064,-3.2363,-3.2517,-3.3119,-3.4447,-3.5279,0.0,-3.7746,-3.8548,-3.8823,-3.8446,-3.9143,-3.9539,-3.9542,-3.9927,-4.0096,-4.0096,-4.0096,-4.0096,-4.0096,-4.0096,-4.0096,-4.0096,-4.0096,-4.0096,-4.0096,-4.0096,-4.0096,-4.0096,-4.0096,-3.9859,-3.9503,-3.9503,-3.9242,-3.8903,-4.3515,-4.3515,-4.3515,-4.3515,-4.3515,-4.3515,-4.3515,-4.3515,-4.3515,-4.3515,-4.3515,-4.3515,-4.3515,-4.3515,-4.3515,-4.3515,-4.3515,-4.3515,-4.3515,-4.3515,-4.3515,-4.3515,-4.3515,-4.3515,-4.3515,-4.3515,-4.3515,-4.3515,-4.3515,-4.3515,-4.3515,-4.3515,-4.3515,-4.3515,-4.3515,-4.2922,-4.1937,-4.1853,-4.1173,-4.0204,-4.0121,-4.0096,-4.0096,-4.0096,-4.0096,-4.0096,-4.0096,-4.0096,-4.0096,-4.0096,-4.0096,-4.0096,-4.0096,-4.0096,-3.9969,-3.9289,-3.8553,-3.7921,-3.769,-3.6569,-3.5504,-3.5504,-3.5504,-3.5504,-3.5504,-3.5504,-3.5504,-3.5504,-3.5504,-3.5504,-3.5504,-3.5504,-3.5504,-3.5504,-3.5504,-3.5504,-3.5504,0.0,-3.4503,-3.4503,-3.341,-3.2886,-3.344,-3.2991,-3.3464,-3.5371,-3.5735,-3.6722,-3.8698,-3.8924,-3.8613,-3.7832,-3.9292,-3.9782,-3.9086,-3.9756,-4.0096,-4.0096,-4.0096,-4.0096,-4.0096,-4.0096,-4.0096,-4.0096,-4.0096,-4.0096,-4.0096,-4.0096,-4.0096,-4.0096,-4.0096,-4.0096,-4.0096,-4.0096,-4.0096,-4.0096,-4.3515,-4.3515,-4.3515,-4.3515,-4.3515,-4.3515,-4.3515,-4.3515,-4.3515,-4.3515,-4.3515,-4.3515,-4.3515,-4.3515,-4.3515,-4.3515,-4.3515,-4.3515,-4.3515,-4.3515,-4.3515,-4.3515,-4.3515,-4.3515,-4.3515,-4.3515,-4.3515,-4.3515,-4.3515,-4.3515,-4.3515,-4.3515,-4.3515,-4.3515,-4.3515,-4.3142,-4.2537,-4.2018,-4.1402,-4.075,-4.0286,-4.0096,-4.0096,-4.0096,-4.0096,-4.0096,-4.0096,-4.0096,-4.0096,-4.0096,-4.0096,-4.0096,-4.0096,-4.0096,-4.007,-3.9952,-3.9342,-3.8453,-3.7128,-3.6149,-3.5504,-3.5504,-3.5504,-3.5504,-3.5504,-3.5504,-3.5504,-3.5504,-3.5504,-3.5504,-3.5504,-3.5504,-3.5504,-3.5504,-3.5504,-3.5504,-3.5504,0.0,-3.4503,-3.4503,-3.3799,-3.338,-3.3484,-3.341,-3.3698,-3.4612,-3.5887,-3.7036,-3.7932,-3.8563,-3.8554,-3.7817,-3.9308,-4.0045,-3.9927,-4.0045,-4.0096,-4.0096,-4.0096,-4.0096,-4.0096,-4.0096,-4.0096,-4.0096,-4.0096,-4.0096,-4.0096,-4.0096,-4.0096,-4.0096,-4.0096,-4.0096,-4.0096,-4.0096,-4.0096,-4.0096,-4.3515,-4.3515,-4.3515,-4.3515,-4.3515,-4.3515,-4.3515,-4.3515,-4.3515,-4.3515,-4.3515,-4.3515,-4.3515,-4.3515,-4.3515,-4.3515,-4.3515,-4.3515,-4.3515,-4.3515,-4.3515,-4.3515,-4.3515,-4.3515,-4.3515,-4.3515,-4.3515,-4.3515,-4.3515,-4.3515,-4.3515,-4.3515,-4.3515,-4.3515,-4.3515,-4.3196,-4.2655,-4.2059,-4.1446,-4.0833,-4.0311,-4.0096,-4.0096,-4.0096,-4.0096,-4.0096,-4.0096,-4.0096,-4.0096,-4.0096,-4.0096,-4.0096,-4.0096,-4.0096,-4.0096,-4.0096,-3.9516,-3.8564,-3.7008,-3.6353,-3.6006,-3.5587,-3.5504,-3.5504,-3.5504,-3.5504,-3.5504,-3.5504,-3.5504,-3.5504,-3.5504,-3.5504,-3.5504,-3.5504,-3.5504,0.0,-3.5504,-3.5235,-3.5026,-3.5026,-3.4442,-3.4173,-3.4532,-3.4247,-3.4469,-3.5549,-3.6307,-3.7007,-3.7776,-3.8124,-3.7962,-3.7189,-3.8246,-3.9049,-3.9463,-3.9876,-4.0096,-4.0096,-4.0096,-4.0096,-4.0096,-4.0096,-4.0096,-4.0096,-4.0096,-4.0096,-4.0096,-4.0096,-4.0096,-4.0096,-4.0096,-4.0096,-4.0096,-4.0096,-4.0096,-4.0096,-4.3515,-4.3515,-4.3515,-4.3515,-4.3515,-4.3515,-4.3515,-4.3515,-4.3515,-4.3515,-4.3515,-4.3515,-4.3515,-4.3515,-4.3515,-4.3515,-4.3515,-4.3515,-4.3515,-4.3515,-4.3515,-4.3515,-4.3515,-4.3515,-4.3515,-4.3515,-4.3515,-4.3515,-4.3515,-4.3515,-4.3515,-4.3515,-4.3515,-4.3515,-4.3515,-4.3268,-4.2845,-4.2103,-4.1534,-4.1041,-4.0368,-4.0096,-4.0096,-4.0096,-4.0096,-4.0096,-4.0096,-4.0096,-4.0096,-4.0096,-4.0096,-4.0096,-4.0096,-4.0096,-4.0096,-4.0096,-3.9662,-3.8881,-3.7496,-3.6858,-3.6461,-3.5894,-3.5651,-3.5504,-3.5504,-3.5504,-3.5504,-3.5504,-3.5504,-3.5504,-3.5504,-3.5504,-3.5504,-3.5504,0.0,-3.5504,-3.5504,-3.5504,-3.5504,-3.5504,-3.504,-3.4921,-3.5459,-3.5026,-3.5177,-3.626,-3.6492,-3.6873,-3.7485,-3.7515,-3.716,-3.6368,-3.71,-3.7876,-3.8635,-3.9437,-3.9731,-3.9575,-3.9731,-3.9808,-3.9808,-3.9808,-3.9927,-4.0096,-4.0096,-4.0096,-4.0096,-4.0096,-4.0096,-4.0096,-4.0096,-4.0096,-4.0096,-4.0096,-4.0096,-4.0096,-4.3515,-4.3515,-4.3515,-4.3515,-4.3515,-4.3515,-4.3515,-4.3515,-4.3515,-4.3515,-4.3515,-4.3515,-4.3515,-4.3515,-4.3515,-4.3515,-4.3515,-4.3515,-4.3515,-4.3515,-4.3515,-4.3515,-4.3515,-4.3515,-4.3515,-4.3515,-4.3515,-4.3515,-4.3515,-4.3515,-4.3515,-4.3515,-4.3515,-4.3515,-4.3515,-4.3479,-4.3375,-4.2266,-4.1771,-4.1639,-4.0538,-4.0096,-4.0096,-4.0096,-4.0096,-4.0096,-4.0096,-4.0096,-4.0096,-4.0096,-4.0096,-4.0096,-4.0096,-4.0096,-4.0096,-4.0096,-4.0045,-3.9808,-3.8962,-3.77,-3.6584,-3.6523,-3.6006,-3.5504,-3.5504,-3.5504,-3.5504,-3.5504,-3.5504,-3.5504,-3.5504,-3.5504,-3.5504,-3.5504,0.0,0.0,-3.5504,-3.5504,-3.5504,-3.5504,-3.5459,-3.5444,-3.5504,-3.5459,-3.5477,-3.5587,-3.6228,-3.6646,-3.6707,-3.6691,-3.6337,-3.5619,-3.6306,-3.7084,-3.7863,-3.8608,-3.8635,-3.7994,-3.8663,-3.8989,-3.8989,-3.8989,-3.9411,-4.0096,-4.0096,-4.0096,-4.0096,-4.0096,-4.0096,-4.0096,-4.0096,-4.0096,-4.0096,-4.0096,-4.0096,-4.0096,-4.3515,-4.3515,-4.3515,-4.3515,-4.3515,-4.3515,-4.3515,-4.3515,-4.3515,-4.3515,-4.3515,-4.3515,-4.3515,-4.3515,-4.3515,-4.3515,-4.3515,-4.3515,-4.3515,-4.3515,-4.3515,-4.3515,-4.3515,-4.3515,-4.3515,-4.3515,-4.3515,-4.3515,-4.3515,-4.3515,-4.3515,-4.3515,-4.3515,-4.3515,-4.3515,-4.3515,-4.3427,-4.2286,-4.181,-4.1703,-4.0563,-4.0096,-4.0096,-4.0096,-4.0096,-4.0096,-4.0096,-4.0096,-4.0096,-4.0096,-4.0096,-4.0096,-4.0096,-4.0096,-4.0096,-4.0096,-4.0096,-4.0045,-3.9731,-3.8854,-3.7787,-3.6843,-3.6384,-3.6054,-3.5619,-3.5504,-3.5504,-3.5504,-3.5504,-3.5504,-3.5504,-3.5504,-3.5504,-3.5504,0.0,-3.5504,-3.5504,-3.5504,-3.5504,-3.5504,-3.5504,-3.5504,-3.5504,-3.5504,-3.5504,-3.5504,-3.575,-3.5926,-3.5926,-3.5926,-3.5782,-3.5504,-3.5782,-3.629,-3.7054,-3.7819,-3.8092,-3.7806,-3.8092,-3.8218,-3.8218,-3.8218,-3.8635,-3.9342,-3.9342,-3.9636,-4.007,-3.9542,-3.9342,-3.9342,-3.9342,-3.9342,-3.9411,-3.9927,-4.0096,-4.0096,-4.3515,-4.3515,-4.3515,-4.3515,-4.3515,-4.3515,-4.3515,-4.3515,-4.3515,-4.3515,-4.3515,-4.3515,-4.3515,-4.3515,-4.3515,-4.3515,-4.3515,-4.3515,-4.3515,-4.3515,-4.3515,-4.3515,-4.3515,-4.3515,-4.3515,-4.3515,-4.3515,-4.3515,-4.3515,-4.3515,-4.3515,-4.3515,-4.3515,-4.3515,-4.3515,-4.3515,-4.3444,-4.2483,-4.1979,-4.1725,-4.0744,-4.0237,-4.0096,-4.0096,-4.0096,-4.0096,-4.0096,-4.0096,-4.0096,-4.0096,-4.0096,-4.0096,-4.0096,-4.0096,-4.0096,-4.0096,-4.0096,-4.0096,-4.0096,-3.9705,-3.8962,-3.7642,-3.6948,-3.6477,-3.5943,-3.5668,-3.5504,-3.5504,-3.5504,-3.5504,-3.5504,-3.5504,-3.5504,-3.5504,-3.5504,-3.5504,-3.5504,-3.5504,-3.5504,-3.5504,-3.5504,-3.5504,-3.5504,-3.5504,-3.5504,-3.5504,-3.5504,-3.5504,-3.5504,-3.5504,-3.5504,-3.5504,-3.5504,-3.575,-3.6244,-3.704,-3.7308,-3.7101,-3.7308,-3.7427,-3.7427,-3.7427,-3.7962,-3.8881,-3.8663,-3.9005,-3.9662,-3.887,-3.8553,-3.8553,-3.8553,-3.8553,-3.8635,-3.9437,-3.9714,-3.9756,-4.3515,-4.3515,-4.3515,-4.3515,-4.3515,-4.3515,-4.3515,-4.3515,-4.3515,-4.3515,-4.3515,-4.3515,-4.3515,-4.3515,-4.3515,-4.3515,-4.3515,-4.3515,-4.3515,-4.3515,-4.3515,-4.3515,-4.3515,-4.3515,-4.3515,-4.3515,-4.3515,-4.3515,-4.3515,-4.3515,-4.3515,-4.3515,-4.3515,-4.3515,-4.3515,-4.3515,-4.3462,-4.292,-4.2342,-4.175,-4.1155,-4.0577,-4.0113,-4.0096,-4.0096,-4.0096,-4.0096,-4.0096,-4.0096,-4.0096,-4.0096,-4.0096,-4.0096,-4.0096,-4.0096,-4.0096,-4.0096,-4.0096,-4.0096,-4.0096,-3.9901,-3.9113,-3.7758,-3.66,-3.6615,-3.6023,-3.5504,-3.5504,-3.5504,-3.5504,-3.5504,-3.5504,-3.5504,-3.5504,-3.5504,-3.5504,-3.5504,-3.5504,-3.5504,-3.5504,-3.5504,-3.5504,-3.5504,-3.5504,-3.5504,-3.5504,-3.5504,-3.5504,-3.5504,-3.5504,-3.5504,-3.5504,-3.5504,-3.5504,-3.5504,-3.6228,-3.6212,-3.5504,-3.6244,-3.6569,-3.6569,-3.6569,-3.7438,-3.8854,-3.8121,-3.8206,-3.8827,-3.8076,-3.7777,-3.7777,-3.7777,-3.7777,-3.7892,-3.8635,-3.8881,-3.9005,-4.3515,-4.3515,-4.3515,-4.3515,-4.3515,-4.3515,-4.3515,-4.3515,-4.3515,-4.3515,-4.3515,-4.3515,-4.3515,-4.3515,-4.3515,-4.3515,-4.3515,-4.3515,-4.3515,-4.3515,-4.3515,-4.3515,-4.3515,-4.3515,-4.3515,-4.3515,-4.3515,-4.3515,-4.3515,-4.3515,-4.3515,-4.3515,-4.3515,-4.3515,-4.3515,-4.3515,-4.3462,-4.292,-4.2596,-4.2342,-4.1313,-4.0803,-4.0607,-4.0254,-4.0096,-4.0096,-4.0096,-4.0096,-4.0096,-4.0096,-4.0096,-4.0096,-4.0096,-4.0096,-4.0096,-4.0096,-4.0096,-4.0096,-4.0096,-4.0096,-3.9901,-3.9113,-3.8564,-3.793,-3.6843,-3.6446,-3.6149,-3.5619,-3.5504,-3.5504,-3.5504,-3.5504,-3.5504,-3.5504,-3.5504,-3.5504,-3.5504,-3.5504,-3.5504,-3.5504,-3.5504,-3.5504,-3.5504,-3.5504,-3.5504,-3.5504,-3.5504,-3.5504,-3.5504,-3.5504,-3.5504,-3.5504,-3.5504,-3.5504,-3.5504,-3.5733,-3.5733,-3.5504,-3.5733,-3.5831,-3.5831,-3.5831,-3.6368,-3.7261,-3.7054,-3.7411,-3.8064,-3.7293,-3.6964,-3.6964,-3.6964,-3.6964,-3.7054,-3.7847,-3.8149,-3.8161,-4.3515,-4.3515,-4.3515,-4.3515,-4.3515,-4.3515,-4.3515,-4.3515,-4.3515,-4.3515,-4.3515,-4.3515,-4.3515,-4.3515,-4.3515,-4.3515,-4.3515,-4.3515,-4.3515,-4.3515,-4.3515,-4.3515,-4.3515,-4.3515,-4.3515,-4.3515,-4.3515,-4.3515,-4.3515,-4.3515,-4.3515,-4.3515,-4.3515,-4.3515,-4.3515,-4.3515,-4.3479,-4.3142,-4.2902,-4.2635,-4.1916,-4.1335,-4.0856,-4.0528,-4.0286,-4.0096,-4.0096,-4.0096,-4.0096,-4.0096,-4.0096,-4.0096,-4.0096,-4.0096,-4.0096,-4.0096,-4.0096,-4.0096,-4.0096,-4.0096,-3.9978,-3.9489,-3.9139,-3.8646,-3.7729,-3.7277,-3.695,-3.6508,-3.6164,-3.5958,-3.5958,-3.5701,-3.5504,-3.5504,-3.5504,-3.5504,-3.5504,-3.5504,-3.5504,-3.5504,-3.5504,-3.5504,-3.5504,-3.5504,-3.5504,-3.5504,-3.5504,-3.5504,-3.5504,-3.5504,-3.5504,-3.5504,-3.5504,-3.5504,-3.5504,-3.5504,-3.5504,-3.5504,-3.5504,-3.5504,-3.5504,-3.5504,-3.5894,-3.6584,-3.6275,-3.66,-3.7279,-3.6492,-3.6165,-3.6165,-3.6165,-3.6165,-3.6259,-3.704,-3.7338,-3.7368,-4.3608,-4.3625,-4.3571,-4.3497,-4.3515,-4.3515,-4.3515,-4.3515,-4.3515,-4.3515,-4.3515,-4.3515,-4.3515,-4.3515,-4.3515,-4.3515,-4.3515,-4.3515,-4.3515,-4.3515,-4.3515,-4.3515,-4.3515,-4.3515,-4.3515,-4.3515,-4.3515,-4.3515,-4.3515,-4.3515,-4.3515,-4.3515,-4.3515,-4.3515,-4.3515,-4.3515,-4.3515,-4.3515,-4.3214,-4.2769,-4.2731,-4.2,-4.0972,-4.0926,-4.0577,-4.0096,-4.0096,-4.0096,-4.0096,-4.0096,-4.0096,-4.0096,-4.0096,-4.0096,-4.0096,-4.0096,-4.0096,-4.0096,-4.0096,-4.0096,-4.0096,-4.0096,-3.9542,-3.8989,-3.8908,-3.8386,-3.7863,-3.7806,-3.7144,-3.6615,-3.6615,-3.6006,-3.5504,-3.5504,-3.5504,-3.5504,-3.5504,-3.5504,-3.5504,-3.5504,-3.5504,-3.5504,-3.5504,-3.5504,-3.5504,-3.5504,-3.5504,-3.5504,-3.5504,-3.5504,-3.5504,-3.5504,-3.5504,-3.5504,-3.5504,-3.5504,-3.5504,-3.5504,-3.5504,-3.5504,-3.5504,-3.5504,-3.5863,-3.6461,-3.5782,-3.5894,-3.6446,-3.5782,-3.5504,-3.5504,-3.5504,-3.5504,-3.5587,-3.6244,-3.6492,-3.6615,-4.4562,-4.4452,-4.425,-4.3608,-4.3515,-4.3515,-4.3515,-4.3515,-4.3515,-4.3515,-4.3515,-4.3515,-4.3515,-4.3515,-4.3515,-4.3515,-4.3515,-4.3515,-4.3515,-4.3515,-4.3515,-4.3515,-4.3515,-4.3515,-4.3515,-4.3515,-4.3515,-4.3515,-4.3515,-4.3515,-4.3515,-4.3515,-4.3515,-4.3515,-4.3515,-4.3515,-4.3515,-4.3515,-4.3427,-4.3286,-4.2864,-4.2262,-4.1556,-4.1087,-4.0577,-4.0096,-4.0096,-4.0096,-4.0096,-4.0096,-4.0096,-4.0096,-4.0096,-4.0096,-4.0096,-4.0096,-4.0096,-4.0096,-4.0096,-4.0096,-4.0096,-4.0096,-3.9969,-3.9662,-3.9059,-3.8772,-3.8497,-3.7921,-3.7144,-3.6615,-3.6615,-3.6006,-3.5504,-3.5504,-3.5504,-3.5504,-3.5504,-3.5504,-3.5504,-3.5504,-3.5504,-3.5504,-3.5504,-3.5504,-3.5504,-3.5504,-3.5504,-3.5504,-3.5504,-3.5504,-3.5504,-3.5504,-3.5504,-3.5504,-3.5504,-3.5504,-3.5504,-3.5504,-3.5504,-3.5504,-3.5504,-3.5504,-3.5587,-3.5733,-3.5554,-3.5587,-3.5733,-3.5569,-3.5504,-3.5504,-3.5504,-3.5504,-3.5537,-3.5668,-3.5718,-3.575,-4.5369,-4.5278,-4.5149,-4.4709,-4.4635,-4.4635,-4.4635,-4.4635,-4.4635,-4.4635,-4.4635,-4.4635,-4.4635,-4.4635,-4.4488,-4.4103,-4.4066,-4.3901,-4.3533,-4.3515,-4.3515,-4.3515,-4.3515,-4.3515,-4.3515,-4.3515,-4.3515,-4.3515,-4.3515,-4.3515,-4.3515,-4.3515,-4.3515,-4.3515,-4.3515,-4.3515,-4.3515,-4.3515,-4.3515,-4.348,-4.3196,-4.256,-4.1768,-4.1446,-4.0821,-4.0096,-4.0096,-4.0096,-4.0096,-4.0096,-4.0096,-4.0096,-4.0096,-4.0096,-4.0096,-4.0096,-4.0096,-4.0096,-4.0096,-4.0096,-4.0096,-4.0096,-4.0096,-3.9995,-3.9584,-3.9463,-3.9358,-3.8968,-3.8274,-3.7584,-3.7233,-3.6538,-3.5926,-3.5554,-3.5504,-3.5504,-3.5504,-3.5504,-3.5504,-3.5504,-3.5504,-3.5504,-3.5504,-3.5504,-3.5504,-3.5504,-3.5504,-3.5504,-3.5504,-3.5504,-3.5504,-3.5504,-3.5504,-3.5504,-3.5504,-3.5504,-3.5504,-3.5504,-3.5504,-3.5504,-3.5504,-3.5504,-3.5504,-3.5504,-3.5504,-3.5504,-3.5504,-3.5504,-3.5504,-3.5504,-3.5504,-3.5504,-3.5504,-3.5504,-3.5504,-3.5504,-4.6122,-4.6104,-4.6067,-4.592,-4.5902,-4.5902,-4.5902,-4.5902,-4.5902,-4.5902,-4.5902,-4.5902,-4.5902,-4.5902,-4.5626,-4.4966,-4.4764,-4.4415,-4.3736,-4.3588,-4.3515,-4.3515,-4.3515,-4.3515,-4.3515,-4.3515,-4.3515,-4.3515,-4.3515,-4.3515,-4.3515,-4.3515,-4.3515,-4.3515,-4.3515,-4.3515,-4.3515,-4.3515,-4.3515,-4.3515,-4.3515,-4.281,-4.181,-4.181,-4.1099,-4.0096,-4.0096,-4.0096,-4.0096,-4.0096,-4.0096,-4.0096,-4.0096,-4.0096,-4.0096,-4.0096,-4.0096,-4.0096,-4.0096,-4.0096,-4.0096,-4.0096,-4.0096,-4.0096,-4.0096,-4.0096,-4.0096,-4.0096,-3.9463,-3.8718,-3.8092,-3.7322,-3.6569,-3.5814,-3.5701,-3.5636,-3.5537,-3.5504,-3.5504,-3.5504,-3.5504,-3.5504,-3.5504,-3.5504,-3.5504,-3.5504,-3.5504,-3.5504,-3.5504,-3.5504,-3.5504,-3.5504,-3.5504,-3.5504,-3.5504,-3.5504,-3.5504,-3.5504,-3.5504,-3.5504,-3.5504,-3.5504,-3.5504,-3.5504,-3.5504,-3.5504,-3.5504,-3.5504,-3.5504,-3.5504,-3.5504,-3.5504,-3.5504,-3.5504,-3.5504,-3.5504,-4.7058,-4.6929,-4.6709,-4.6012,-4.5902,-4.5902,-4.5902,-4.5902,-4.5902,-4.5902,-4.5902,-4.5902,-4.5902,-4.5902,-4.5865,-4.5755,-4.5112,-4.4636,-4.4526,-4.3883,-4.3515,-4.3515,-4.3515,-4.3515,-4.3515,-4.3515,-4.3515,-4.3515,-4.3515,-4.3515,-4.3515,-4.3515,-4.3515,-4.3515,-4.3515,-4.3515,-4.3515,-4.3515,-4.3515,-4.3515,-4.3515,-4.281,-4.181,-4.181,-4.1099,-4.0096,-4.0096,-4.0096,-4.0096,-4.0096,-4.0096,-4.0096,-4.0096,-4.0096,-4.0096,-4.0096,-4.0096,-4.0096,-4.0096,-4.0096,-4.0096,-4.0096,-4.0096,-4.0096,-4.0096,-4.0096,-4.0096,-4.0096,-3.9463,-3.8881,-3.8772,-3.8133,-3.7368,-3.6584,-3.6446,-3.6228,-3.5587,-3.5504,-3.5504,-3.5504,-3.5504,-3.5504,-3.5504,-3.5504,-3.5504,-3.5504,-3.5504,-3.5504,-3.5504,-3.5504,-3.5504,-3.5504,-3.5504,-3.5504,-3.5504,-3.5504,-3.5504,-3.5504,-3.5504,-3.5504,-3.5504,-3.5504,-3.5504,-3.5504,-3.5504,-3.5504,-3.5504,-3.5504,-3.5504,-3.5504,-3.5504,-3.5504,-3.5504,-3.5504,-3.5504,-3.5504,-4.7828,-4.7755,-4.7645,-4.7297,-4.7241,-4.7241,-4.7241,-4.7241,-4.7241,-4.7241,-4.7241,-4.7241,-4.7241,-4.7241,-4.7058,-4.6617,-4.5828,-4.5186,-4.4728,-4.3956,-4.3515,-4.3515,-4.3515,-4.3515,-4.3515,-4.3515,-4.3515,-4.3515,-4.3515,-4.3515,-4.3515,-4.3515,-4.3515,-4.3515,-4.3515,-4.3515,-4.3515,-4.3515,-4.3515,-4.3515,-4.3515,-4.281,-4.181,-4.181,-4.1099,-4.0096,-4.0096,-4.0096,-4.0096,-4.0096,-4.0096,-4.0096,-4.0096,-4.0096,-4.0096,-4.0096,-4.0096,-4.0096,-4.0096,-4.0096,-4.0096,-4.0096,-4.0096,-4.0096,-4.0096,-4.0096,-4.0096,-4.0096,-3.9808,-3.942,-3.8989,-3.8635,-3.8003,-3.6813,-3.6615,-3.6337,-3.5619,-3.5504,-3.5504,-3.5504,-3.5504,-3.5504,-3.5504,-3.5504,-3.5504,-3.5504,-3.5504,-3.5504,-3.5504,-3.5504,-3.5504,-3.5504,-3.5504,-3.5504,-3.5504,-3.5504,-3.5504,-3.5504,-3.5504,-3.5504,-3.5504,-3.5504,-3.5504,-3.5504,-3.5504,-3.5504,-3.5504,-3.5504,-3.5504,-3.5504,-3.5504,-3.5504,-3.5504,-3.5504,-3.5504,-3.5504]},{"header":{"parameterUnit":"m.s-1","parameterCategory":1,"la1":30.6,"la2":28.766,"lo1":-90.7593,"lo2":-88.6598,"dy":0.0162,"dx":0.0183,"nx":116,"ny":114,"refTime":"2023-11-05T00:00:00:Z","depth":0,"parameterNumber":3,"parameterNumberName":"V-component_of_WINDS"},"data":[0.0,0.0,0.0,0.0,0.0,0.0,0.0,0.0,0.0,0.0,0.0,0.0,0.0,0.0,0.0,0.0,0.0,0.0,0.0,0.0,0.0,0.0,0.0,0.0,0.0,0.0,0.0,0.0,0.0,0.0,0.0,0.0,0.0,0.0,0.0,0.0,0.0,0.0,0.0,0.0,0.0,0.0,0.0,0.0,0.0,0.0,0.0,0.0,0.0,0.0,0.0,0.0,0.0,0.0,0.0,0.0,0.0,0.0,0.0,0.0,0.0,0.0,0.0,0.0,0.0,0.0,0.0,0.0,0.0,0.0,0.0,0.0,0.0,0.0,0.0,0.0,0.0,0.0,0.0,0.0,0.0,0.0,0.0,0.0,0.0,0.0,0.0,0.0,0.0,0.0,0.0,0.0,0.0,0.0,0.0,0.0,0.0,0.0,0.0,0.0,0.0,0.0,0.0,0.0,0.0,0.0,0.0,0.0,0.0,0.0,0.0,0.0,0.0,0.0,0.0,0.0,0.0,0.0,0.0,0.0,0.0,0.0,0.0,0.0,0.0,0.0,0.0,0.0,0.0,0.0,0.0,0.0,0.0,0.0,0.0,0.0,0.0,0.0,0.0,0.0,0.0,0.0,0.0,0.0,0.0,0.0,0.0,0.0,0.0,0.0,0.0,0.0,0.0,0.0,0.0,0.0,0.0,0.0,0.0,0.0,0.0,0.0,0.0,0.0,0.0,0.0,0.0,0.0,0.0,0.0,0.0,0.0,0.0,0.0,0.0,0.0,0.0,0.0,0.0,0.0,0.0,0.0,0.0,0.0,0.0,0.0,0.0,0.0,0.0,0.0,0.0,0.0,0.0,0.0,0.0,0.0,0.0,0.0,0.0,0.0,0.0,0.0,0.0,0.0,0.0,0.0,0.0,0.0,0.0,0.0,0.0,0.0,0.0,0.0,0.0,0.0,0.0,0.0,0.0,0.0,0.0,0.0,0.0,0.0,0.0,0.0,0.0,0.0,0.0,0.0,0.0,0.0,0.0,0.0,0.0,0.0,0.0,0.0,0.0,0.0,0.0,0.0,0.0,0.0,0.0,0.0,0.0,0.0,0.0,0.0,0.0,0.0,0.0,0.0,0.0,0.0,0.0,0.0,0.0,0.0,0.0,0.0,0.0,0.0,0.0,0.0,0.0,0.0,0.0,0.0,0.0,0.0,0.0,0.0,0.0,0.0,0.0,0.0,0.0,0.0,0.0,0.0,0.0,0.0,0.0,0.0,0.0,0.0,0.0,0.0,0.0,0.0,0.0,0.0,0.0,0.0,0.0,0.0,0.0,0.0,0.0,0.0,0.0,0.0,0.0,0.0,0.0,0.0,0.0,0.0,0.0,0.0,0.0,0.0,0.0,0.0,0.0,0.0,0.0,0.0,0.0,0.0,0.0,0.0,0.0,0.0,0.0,0.0,0.0,0.0,0.0,0.0,0.0,0.0,0.0,0.0,0.0,0.0,0.0,0.0,0.0,0.0,0.0,0.0,0.0,0.0,0.0,0.0,0.0,0.0,0.0,0.0,0.0,0.0,0.0,0.0,0.0,0.0,0.0,0.0,0.0,0.0,0.0,0.0,0.0,0.0,0.0,0.0,0.0,0.0,0.0,0.0,0.0,0.0,0.0,0.0,0.0,0.0,0.0,0.0,0.0,0.0,0.0,0.0,0.0,0.0,0.0,0.0,0.0,0.0,0.0,0.0,0.0,0.0,0.0,0.0,0.0,0.0,0.0,0.0,0.0,0.0,0.0,0.0,0.0,0.0,0.0,0.0,0.0,0.0,0.0,0.0,0.0,0.0,0.0,0.0,0.0,0.0,0.0,0.0,0.0,0.0,0.0,0.0,0.0,0.0,0.0,0.0,0.0,0.0,0.0,0.0,0.0,0.0,0.0,0.0,0.0,0.0,0.0,0.0,0.0,0.0,0.0,0.0,0.0,0.0,0.0,0.0,0.0,0.0,0.0,0.0,0.0,0.0,0.0,0.0,0.0,0.0,0.0,0.0,0.0,0.0,0.0,0.0,0.0,0.0,0.0,0.0,0.0,0.0,0.0,0.0,0.0,0.0,0.0,0.0,0.0,0.0,0.0,0.0,0.0,0.0,0.0,0.0,0.0,0.0,0.0,0.0,0.0,0.0,0.0,0.0,0.0,0.0,0.0,0.0,0.0,0.0,0.0,0.0,0.0,0.0,0.0,0.0,0.0,0.0,0.0,0.0,0.0,0.0,0.0,0.0,0.0,0.0,0.0,0.0,0.0,0.0,0.0,0.0,0.0,0.0,0.0,0.0,0.0,0.0,0.0,0.0,0.0,0.0,0.0,0.0,0.0,0.0,0.0,0.0,0.0,0.0,0.0,0.0,0.0,0.0,0.0,0.0,0.0,0.0,0.0,0.0,0.0,0.0,0.0,0.0,0.0,0.0,0.0,0.0,0.0,0.0,0.0,0.0,0.0,0.0,0.0,0.0,0.0,0.0,0.0,0.0,0.0,0.0,0.0,0.0,0.0,0.0,0.0,0.0,0.0,0.0,0.0,0.0,0.0,0.0,0.0,0.0,0.0,0.0,0.0,0.0,0.0,0.0,0.0,0.0,0.0,0.0,0.0,0.0,0.0,0.0,0.0,0.0,0.0,0.0,0.0,0.0,0.0,0.0,0.0,0.0,0.0,0.0,0.0,0.0,0.0,0.0,0.0,0.0,0.0,0.0,0.0,0.0,0.0,0.0,0.0,0.0,0.0,0.0,0.0,0.0,0.0,0.0,0.0,0.0,0.0,0.0,0.0,0.0,0.0,0.0,0.0,0.0,0.0,0.0,0.0,0.0,0.0,0.0,0.0,0.0,0.0,0.0,0.0,0.0,0.0,0.0,0.0,0.0,0.0,0.0,0.0,0.0,0.0,0.0,0.0,0.0,0.0,0.0,0.0,0.0,0.0,0.0,0.0,0.0,0.0,0.0,0.0,0.0,0.0,0.0,0.0,0.0,0.0,0.0,0.0,0.0,0.0,0.0,0.0,0.0,0.0,0.0,0.0,0.0,0.0,0.0,0.0,0.0,0.0,0.0,0.0,0.0,0.0,0.0,0.0,0.0,0.0,0.0,0.0,0.0,0.0,0.0,0.0,0.0,0.0,0.0,0.0,0.0,0.0,0.0,0.0,0.0,0.0,0.0,0.0,0.0,0.0,0.0,0.0,0.0,0.0,0.0,0.0,0.0,0.0,0.0,0.0,0.0,0.0,0.0,0.0,0.0,0.0,0.0,0.0,0.0,0.0,0.0,0.0,0.0,0.0,0.0,0.0,0.0,0.0,0.0,0.0,0.0,0.0,0.0,0.0,0.0,0.0,0.0,0.0,0.0,0.0,0.0,0.0,0.0,0.0,0.0,0.0,0.0,0.0,0.0,0.0,0.0,0.0,0.0,0.0,0.0,0.0,0.0,0.0,0.0,0.0,0.0,0.0,0.0,0.0,0.0,0.0,0.0,0.0,0.0,0.0,0.0,0.0,0.0,0.0,0.0,0.0,0.0,0.0,0.0,0.0,0.0,0.0,0.0,0.0,0.0,0.0,0.0,0.0,0.0,0.0,0.0,0.0,0.0,0.0,0.0,0.0,0.0,0.0,0.0,0.0,0.0,0.0,0.0,0.0,0.0,0.0,0.0,0.0,0.0,0.0,0.0,0.0,0.0,0.0,0.0,0.0,0.0,0.0,0.0,0.0,0.0,0.0,0.0,0.0,0.0,0.0,0.0,0.0,0.0,0.0,0.0,0.0,0.0,0.0,0.0,0.0,0.0,0.0,0.0,0.0,0.0,0.0,0.0,0.0,0.0,0.0,0.0,0.0,0.0,0.0,0.0,0.0,0.0,0.0,0.0,0.0,0.0,0.0,0.0,0.0,0.0,0.0,0.0,0.0,0.0,0.0,0.0,0.0,0.0,0.0,0.0,0.0,0.0,0.0,0.0,0.0,0.0,0.0,0.0,0.0,0.0,0.0,0.0,0.0,0.0,0.0,0.0,0.0,0.0,0.0,0.0,0.0,0.0,0.0,0.0,0.0,0.0,0.0,0.0,0.0,0.0,0.0,0.0,0.0,0.0,0.0,0.0,0.0,0.0,0.0,0.0,0.0,0.0,0.0,0.0,0.0,0.0,0.0,0.0,0.0,0.0,0.0,0.0,0.0,0.0,0.0,0.0,0.0,0.0,0.0,0.0,0.0,0.0,0.0,0.0,0.0,0.0,0.0,0.0,0.0,0.0,0.0,0.0,0.0,0.0,0.0,0.0,0.0,0.0,0.0,0.0,0.0,0.0,0.0,0.0,0.0,0.0,0.0,0.0,0.0,0.0,0.0,0.0,0.0,0.0,0.0,0.0,0.0,0.0,0.0,0.0,0.0,0.0,0.0,0.0,0.0,0.0,0.0,0.0,0.0,0.0,0.0,0.0,0.0,0.0,0.0,0.0,0.0,0.0,0.0,0.0,0.0,0.0,0.0,0.0,0.0,0.0,0.0,0.0,0.0,0.0,0.0,0.0,0.0,0.0,0.0,0.0,0.0,0.0,0.0,0.0,0.0,0.0,0.0,0.0,0.0,0.0,0.0,0.0,0.0,0.0,0.0,0.0,0.0,0.0,0.0,0.0,0.0,0.0,0.0,0.0,0.0,0.0,0.0,0.0,0.0,0.0,0.0,0.0,0.0,0.0,0.0,0.0,0.0,0.0,0.0,0.0,0.0,0.0,0.0,0.0,0.0,0.0,0.0,0.0,0.0,0.0,0.0,0.0,0.0,0.0,0.0,0.0,0.0,0.0,0.0,0.0,0.0,0.0,0.0,0.0,0.0,0.0,0.0,0.0,0.0,0.0,0.0,0.0,0.0,0.0,0.0,0.0,0.0,0.0,0.0,0.0,0.0,0.0,0.0,0.0,0.0,0.0,0.0,0.0,0.0,0.0,0.0,0.0,0.0,0.0,0.0,0.0,0.0,0.0,0.0,0.0,0.0,0.0,0.0,0.0,0.0,0.0,0.0,0.0,0.0,0.0,0.0,0.0,0.0,0.0,0.0,0.0,0.0,0.0,0.0,0.0,0.0,0.0,0.0,0.0,0.0,0.0,0.0,0.0,0.0,0.0,0.0,0.0,0.0,0.0,0.0,0.0,0.0,0.0,0.0,0.0,0.0,0.0,0.0,0.0,0.0,0.0,0.0,0.0,0.0,0.0,0.0,0.0,0.0,0.0,0.0,0.0,0.0,0.0,0.0,0.0,0.0,0.0,0.0,0.0,0.0,0.0,0.0,0.0,0.0,0.0,0.0,0.0,0.0,0.0,0.0,0.0,0.0,0.0,0.0,0.0,0.0,0.0,0.0,0.0,0.0,0.0,0.0,0.0,0.0,0.0,0.0,0.0,0.0,0.0,0.0,0.0,0.0,0.0,0.0,0.0,0.0,0.0,0.0,0.0,0.0,0.0,0.0,0.0,0.0,0.0,0.0,0.0,0.0,0.0,0.0,0.0,0.0,0.0,0.0,0.0,0.0,0.0,0.0,0.0,0.0,0.0,0.0,0.0,0.0,0.0,0.0,0.0,0.0,0.0,0.0,0.0,0.0,0.0,0.0,0.0,0.0,0.0,0.0,0.0,0.0,0.0,0.0,0.0,0.0,0.0,0.0,0.0,0.0,0.0,0.0,0.0,0.0,0.0,0.0,0.0,0.0,0.0,0.0,0.0,0.0,0.0,0.0,0.0,0.0,0.0,0.0,0.0,0.0,0.0,0.0,0.0,0.0,0.0,0.0,0.0,0.0,0.0,0.0,0.0,0.0,0.0,0.0,0.0,0.0,0.0,0.0,0.0,0.0,0.0,0.0,0.0,0.0,0.0,0.0,0.0,0.0,0.0,0.0,0.0,0.0,0.0,0.0,0.0,0.0,0.0,0.0,0.0,0.0,0.0,0.0,0.0,0.0,0.0,0.0,0.0,0.0,0.0,0.0,0.0,0.0,0.0,0.0,0.0,0.0,0.0,0.0,0.0,0.0,0.0,0.0,0.0,0.0,0.0,0.0,0.0,0.0,0.0,0.0,0.0,0.0,0.0,0.0,0.0,0.2075,0.0,0.0,0.0,0.0,0.0,0.0,0.0,0.0,0.0,0.0,0.0,0.0,0.0,0.0,0.0,0.0,0.0,0.0,0.0,0.0,0.0,0.0,0.0,0.0,0.0,0.0,0.0,0.0,0.0,0.0,0.0,0.0,0.0,0.0,0.0,0.0,0.0,0.0,0.0,0.0,0.0,0.0,0.0,0.0,0.0,0.0,0.0,0.0,0.0,0.0,0.0,0.0,0.0,0.0,0.0,0.0,0.0,0.0,0.0,0.0,0.0,0.0,0.0,0.0,0.0,0.0,0.0,0.0,0.0,0.0,0.0,0.0,0.0,0.0,0.0,0.0,0.0,0.0,0.0,0.0,0.0,0.0,0.0,0.0,0.0,0.0,0.0,0.0,0.0,0.0,0.0,0.0,0.0,0.0,0.0,0.0,0.0,0.0,0.0,0.0,0.0,0.0,0.0,0.0,0.0,0.0,0.0,0.0,0.0,0.0,0.0,0.0,0.0,0.0,0.0,0.0,0.2308,0.0,0.0,0.0,0.0,0.0,0.0,0.0,0.0,0.0,0.0,0.0,0.0,0.0,0.0,0.0,0.0,0.0,0.0,0.0,0.0,0.0,0.0,0.0,0.0,0.0,0.0,0.0,0.0,0.0,0.0,0.0,0.0,0.0,0.0,0.0,0.0,0.0,0.0,0.0,0.0,0.0,0.0,0.0,0.0,0.0,0.0,0.0,0.0,0.0,0.0,0.0,0.0,0.0,0.0,0.0,0.0,0.0,0.0,0.0,0.0,0.0,0.0,0.0,0.0,0.0,0.0,0.0,0.0,0.0,0.0,0.0,0.0,0.0,0.0,0.0,0.0,0.0,0.0,0.0,0.0,0.0,0.0,0.0,0.0,0.0,0.0,0.0,0.0,0.0,0.0,0.0,0.0,0.0,0.0,0.0,0.0,0.0,0.0,0.0,0.0,0.0,0.0,0.0,0.0,0.0,0.0,0.0,0.0,0.3552,0.3671,0.3671,0.3671,0.4139,0.4924,0.4059,0.3552,0.3318,0.2464,0.0,0.0,0.0,0.0,0.0,0.0,0.0,0.0,0.0,0.0,0.0,0.0,0.0,0.0,0.0,0.0,0.0,0.0,0.0,0.0,0.0,0.0,0.0,0.0,0.0,0.0,0.0,0.0,0.0,0.0,0.0,0.0,0.0,0.0,0.0,0.0,0.0,0.0,0.9296,0.915,0.9031,0.8846,0.7061,0.0,0.0,0.0,0.0,0.0,0.0,0.0,0.0,0.0,0.0,0.0,0.0,0.0,0.0,0.0,0.0,0.0,0.0,0.0,0.0,0.0,0.0,0.0,0.0,0.0,0.0,0.0,0.0,0.0,0.0,0.0,0.0,0.0,0.0,0.0,0.0,0.0,0.0,0.0,0.0,0.0,0.0,0.0,0.5144,0.5156,0.0,0.0,0.0,0.0,0.0,0.0,0.0,0.0,0.0,0.0,0.0,0.0,0.0,0.309,0.3098,0.4027,0.4491,0.4491,0.5431,0.5867,0.5867,0.5867,0.5944,0.6064,0.5944,0.0,0.4491,0.4336,0.0,0.0,0.0,0.0,0.0,0.0,0.0,0.0,0.0,0.0,0.0,0.0,0.0,0.0,0.0,0.0,0.0,0.0,0.0,0.0,0.0,0.0,0.0,0.0,0.0,0.0,0.0,0.0,0.0,0.0,0.0,0.0,0.0,0.0,0.0,0.0,0.9927,1.0421,1.0987,1.0421,1.0153,1.0078,0.8613,0.7668,0.7099,0.6528,0.0,0.0,0.0,0.0,0.0,0.0,0.0,0.0,0.0,0.0,0.0,0.0,0.0,0.0,0.0,0.0,0.0,0.0,0.0,0.0,0.0,0.0,0.0,0.0,0.0,0.0,0.0,0.0,0.0,0.0,0.0,0.0,0.0,0.0,0.0,0.0,0.0,0.0,0.0,0.6615,0.634,0.634,0.5888,0.5575,0.0,0.0,0.0,0.0,0.0,0.0,0.0,0.0,0.0,0.5331,0.5208,0.5117,0.5117,0.5606,0.5811,0.5811,0.6304,0.6508,0.6508,0.6508,0.6508,0.6508,0.6508,0.626,0.5758,0.5014,0.4181,0.3285,0.0,0.0,0.0,0.0,0.2151,0.18,0.0,0.0,0.0,0.0,0.0,0.0,0.0,0.0,0.0,0.0,0.0,0.0,0.0,0.0,0.0,0.9241,0.0,0.0,0.0,0.0,0.0,0.0,0.0,0.0,0.0,0.0,0.0,1.1302,1.1376,1.1803,1.2494,1.1759,1.1376,1.1265,1.0252,0.9199,0.8122,0.7403,0.6907,0.0,0.0,0.0,0.0,0.0,0.0,0.0,0.0,0.0,0.0,0.0,0.0,0.0,0.0,0.0,0.0,0.0,0.0,0.0,0.0,0.0,0.0,0.0,0.0,0.0,0.0,0.0,0.0,0.0,0.0,0.0,0.0,0.0,0.0,0.0,0.0,0.0,0.0,0.7095,0.7095,0.7095,0.7095,0.7095,0.0,0.0,0.0,0.0,0.0,0.0,0.7095,0.6964,0.6886,0.6886,0.6817,0.6759,0.6759,0.6797,0.6797,0.6759,0.6759,0.6739,0.6702,0.6702,0.6702,0.6702,0.6702,0.6702,0.6637,0.5573,0.5006,0.4651,0.3834,0.3357,0.3124,0.3396,0.3318,0.3124,0.0,0.0,0.0,0.0,0.0,0.0,0.0,0.0,0.0,0.0,0.0,0.0,0.0,0.0,0.9412,0.9316,0.9296,0.9296,0.0,0.0,0.0,0.0,0.0,0.0,0.0,0.0,0.0,1.2681,1.2941,1.3127,1.316,1.3087,1.2928,1.2643,1.1601,1.0418,0.9221,0.9183,0.858,0.7706,0.0,0.0,0.0,0.0,0.0,0.0,0.0,0.0,0.0,0.0,0.0,0.0,0.0,0.0,0.0,0.0,0.0,0.0,0.0,0.0,0.0,0.0,0.0,0.0,0.0,0.0,0.0,0.0,0.0,0.0,0.0,0.0,0.0,0.0,0.0,0.0,0.0,0.0,0.0,0.7095,0.7095,0.0,0.0,0.0,0.0,0.7095,0.7095,0.7095,0.7095,0.6964,0.6886,0.6886,0.6879,0.6873,0.6873,0.7007,0.7007,0.6873,0.6873,0.6841,0.6702,0.6702,0.6702,0.6702,0.6702,0.6702,0.6688,0.6485,0.5814,0.4879,0.469,0.3982,0.324,0.4256,0.3984,0.324,0.0,0.0,0.0,0.0,0.0,0.0,0.0,0.0,0.0,0.0,0.0,0.0,0.0,1.0551,1.0581,1.118,1.1211,1.1211,1.1211,0.0,0.0,0.0,0.0,0.0,0.0,0.0,1.2687,1.3046,1.316,1.3213,1.3213,1.3213,1.3153,1.3039,1.2486,1.1986,1.1461,0.9927,0.9112,0.8694,0.8046,0.7595,0.0,0.0,0.0,0.0,0.0,0.0,0.0,0.0,0.0,0.0,0.0,0.0,0.0,0.0,0.0,0.0,0.0,0.0,0.0,0.0,0.0,0.0,0.0,0.0,0.0,0.0,0.0,0.0,0.0,0.0,0.0,0.0,0.0,0.0,0.0,0.0,0.0,0.7095,0.7095,0.0,0.7095,0.7095,0.7136,0.7282,0.7288,0.7333,0.7431,0.7387,0.736,0.736,0.736,0.736,0.736,0.7411,0.7411,0.736,0.736,0.7333,0.7278,0.7278,0.7227,0.7132,0.7132,0.7075,0.6927,0.6824,0.6498,0.6037,0.5987,0.576,0.5473,0.5841,0.576,0.5462,0.0,0.0,0.0,0.0,0.0,0.0,0.0,0.0,0.0,0.0,0.0,1.0871,1.1936,1.1604,1.1576,1.2224,1.2305,1.2305,1.2305,0.0,0.0,0.0,0.0,0.0,0.0,1.32,1.3313,1.3313,1.346,1.3507,1.3507,1.3507,1.3454,1.3347,1.314,1.3032,1.2841,1.1194,1.0236,0.9744,0.9059,0.8609,0.8199,0.0,0.0,0.0,0.0,0.0,0.0,0.0,0.0,0.0,0.0,0.0,0.0,0.0,0.0,0.0,0.0,0.0,0.0,0.0,0.0,0.0,0.0,0.0,0.0,0.0,0.0,0.0,0.0,0.0,0.0,0.0,0.0,0.0,0.0,0.0,0.7095,0.7095,0.7142,0.7217,0.7217,0.7265,0.7339,0.7441,0.7448,0.7492,0.7594,0.76,0.76,0.76,0.7645,0.7672,0.7672,0.7723,0.7723,0.7672,0.7672,0.7645,0.76,0.76,0.7543,0.7448,0.7448,0.739,0.7243,0.7193,0.7065,0.6912,0.6759,0.6702,0.6702,0.6702,0.6702,0.6685,0.0,0.0,0.0,0.0,0.0,0.0,0.0,0.0,0.0,0.0,1.1881,1.1976,1.3088,1.2665,1.2305,1.2305,1.2305,1.2305,1.2305,1.2311,0.0,0.0,0.0,0.0,1.3227,1.3467,1.362,1.362,1.3948,1.4088,1.4088,1.4088,1.3935,1.362,1.3606,1.3447,1.32,1.2931,1.2049,1.0881,1.0832,1.0228,0.9221,0.0,0.0,0.0,0.0,0.0,0.0,0.0,0.0,0.0,0.0,0.0,0.0,0.0,0.0,0.0,0.0,0.0,0.0,0.0,0.0,0.0,0.0,0.0,0.0,0.0,0.0,0.0,0.0,0.0,0.0,0.0,0.0,0.0,0.7095,0.7098,0.7102,0.7102,0.7285,0.7426,0.7426,0.7512,0.76,0.7607,0.7607,0.7607,0.7614,0.7614,0.7614,0.7614,0.7746,0.7818,0.7818,0.7917,0.7917,0.7818,0.7818,0.7746,0.7614,0.7614,0.7611,0.7607,0.7607,0.7604,0.76,0.76,0.7512,0.7381,0.6892,0.6719,0.6715,0.6715,0.6712,0.6709,0.0,0.0,0.0,0.0,0.0,0.0,0.0,0.0,0.0,0.0,1.3106,1.2837,1.3174,1.2665,1.2305,1.2305,1.2305,1.2305,1.2305,0.0,0.0,0.0,0.0,0.0,1.3487,1.3814,1.3968,1.3968,1.4048,1.4088,1.4088,1.4088,1.4041,1.3955,1.37,1.356,1.3467,1.3206,1.2876,1.2441,1.1288,1.064,1.0265,0.0,0.0,0.0,0.0,0.0,0.0,0.0,0.0,0.0,0.0,0.0,0.0,0.0,0.0,0.0,0.0,0.0,0.0,0.0,0.0,0.0,0.0,0.0,0.0,0.0,0.0,0.0,0.0,0.0,0.0,0.0,0.0,0.7268,0.7112,0.7238,0.7309,0.7309,0.7444,0.7536,0.7536,0.7577,0.7641,0.7746,0.7753,0.7801,0.7864,0.787,0.787,0.787,0.7907,0.7928,0.7928,0.7968,0.7968,0.7928,0.7928,0.7907,0.787,0.787,0.7858,0.7753,0.7753,0.7695,0.76,0.76,0.7577,0.7512,0.7278,0.7119,0.6974,0.6974,0.691,0.6865,0.0,0.0,0.0,0.0,0.0,0.0,0.0,0.0,0.0,0.0,1.35,1.316,1.3033,1.2592,1.2305,1.2305,1.2305,1.2351,1.2516,0.0,0.0,0.0,0.0,1.3846,1.3966,1.4182,1.4329,1.4499,1.4499,1.4499,1.4449,1.4329,1.4269,1.4255,1.3961,1.3828,1.3808,1.3473,1.3353,1.3267,1.2234,1.1746,1.1514,1.0342,0.9933,0.9782,0.8803,0.8428,0.8275,0.7249,0.0,0.0,0.0,0.0,0.0,0.0,0.0,0.0,0.0,0.0,0.0,0.0,0.0,0.0,0.0,0.0,0.0,0.0,0.0,0.0,0.0,0.0,0.0,0.0,0.7312,0.7363,0.7336,0.7411,0.7465,0.7465,0.7597,0.7689,0.7689,0.7746,0.7818,0.7899,0.7906,0.7897,0.7985,0.7988,0.7988,0.7988,0.7988,0.7988,0.7988,0.7988,0.7988,0.7988,0.7988,0.7988,0.7988,0.7988,0.7941,0.7906,0.7906,0.7862,0.7784,0.7784,0.7746,0.0,0.0,0.0,0.0,0.0,0.7045,0.6974,0.0,0.0,0.0,0.0,0.0,0.0,0.0,0.0,0.0,0.0,0.0,1.3093,1.2817,1.2516,1.2305,1.2305,1.2305,1.2445,0.0,0.0,0.0,1.3646,1.3981,1.4255,1.4466,1.4556,1.4703,1.5008,1.5008,1.5008,1.5001,1.4696,1.4569,1.4556,1.4262,1.4135,1.4115,1.378,1.3653,1.3626,1.338,1.3073,1.2721,1.1502,1.1017,1.0905,0.983,0.941,0.9145,0.8122,0.0,0.0,0.0,0.0,0.0,0.0,0.0,0.0,0.0,0.0,0.0,0.0,0.0,0.0,0.0,0.0,0.0,0.0,0.0,0.0,0.0,0.0,0.0,0.0,0.7456,0.7468,0.7604,0.7638,0.7645,0.7628,0.775,0.7838,0.7838,0.7911,0.7988,0.7988,0.7988,0.7988,0.7988,0.0,0.0,0.0,0.0,0.7988,0.7988,0.7988,0.7988,0.7988,0.7988,0.7988,0.7988,0.7988,0.7988,0.7988,0.7988,0.7988,0.7988,0.7988,0.7911,0.7821,0.7662,0.7516,0.7377,0.7224,0.7122,0.7119,0.0,0.0,0.0,0.0,0.0,0.0,0.0,0.0,0.0,1.364,1.3353,1.3093,1.2817,1.2516,1.2305,1.2305,1.2305,1.2532,0.0,0.0,1.3706,1.3988,1.4282,1.4462,1.4522,1.4756,1.4948,1.5008,1.5008,1.5008,1.5008,1.4948,1.4877,1.4908,1.4569,1.4436,1.4416,1.4122,1.4001,1.3975,1.364,1.3347,1.3086,1.2581,1.2424,1.224,1.0978,1.0002,0.9145,0.8122,0.7249,0.6567,0.6377,0.0,0.0,0.0,0.0,0.0,0.0,0.0,0.0,0.0,0.0,0.0,0.0,0.0,0.0,0.0,0.0,0.0,0.0,0.0,0.0,0.7533,0.7651,0.7736,0.7767,0.7875,0.786,0.7784,0.7902,0.7944,0.7944,0.7971,0.7988,0.7988,0.7988,0.7988,0.7988,0.7988,0.7988,0.7988,0.7988,0.7988,0.7988,0.7988,0.7988,0.7988,0.0,0.0,0.7988,0.7988,0.7988,0.7988,0.7988,0.7988,0.7988,0.7988,0.7971,0.7921,0.7702,0.7584,0.7536,0.7383,0.7326,0.7309,0.0,0.0,0.0,0.0,0.0,0.0,0.0,0.0,0.0,0.0,1.326,1.3033,1.261,1.2392,1.2305,1.2305,1.2585,0.0,0.0,1.3621,1.3995,1.4295,1.4442,1.4656,1.495,1.5104,1.5251,1.5398,1.5398,1.5398,1.5391,1.5251,1.5177,1.517,1.487,1.4663,1.4509,1.4362,1.4222,1.4075,1.3928,1.3781,1.3601,1.3186,1.3018,1.2816,1.1471,1.069,0.9985,0.8345,0.748,0.6945,0.6451,0.6504,0.6823,0.0,0.0,0.0,0.0,0.0,0.0,0.0,0.0,0.0,0.0,0.0,0.0,0.0,0.0,0.8987,0.0,0.0,0.8305,0.7773,0.7767,0.7838,0.7916,0.7941,0.7961,0.7884,0.7941,0.7988,0.7988,0.7988,0.7988,0.7988,0.7988,0.7988,0.7988,0.7988,0.7988,0.7988,0.7988,0.7988,0.7988,0.7988,0.7988,0.7988,0.7988,0.7988,0.7988,0.7988,0.7988,0.7988,0.7988,0.7988,0.7988,0.7988,0.7988,0.7975,0.783,0.7773,0.7689,0.7539,0.7438,0.7405,0.0,0.0,0.0,0.0,0.0,0.0,0.0,0.0,0.0,0.0,1.3213,1.2979,1.2365,1.2305,1.2305,0.0,0.0,0.0,0.0,1.3761,1.4195,1.4429,1.4543,1.483,1.5304,1.5424,1.5591,1.5784,1.5784,1.5784,1.5778,1.5591,1.5478,1.5471,1.5223,1.4917,1.4683,1.4569,1.4389,1.4168,1.4108,1.4088,1.4035,1.3561,1.3347,1.3121,1.1936,1.1388,1.0921,0.9028,0.8237,0.7936,0.7138,0.7092,0.7514,0.8442,0.8082,0.0,0.0,0.0,0.0,0.0,0.0,0.0,0.0,0.0,0.9651,1.0612,1.0781,1.0438,0.9355,0.9389,0.9267,0.8356,0.843,0.862,0.8757,0.8528,0.8482,0.8726,0.8333,0.7988,0.7988,0.7988,0.7988,0.7988,0.7988,0.7988,0.7988,0.7988,0.7988,0.7988,0.7988,0.7988,0.7988,0.7988,0.7988,0.7988,0.7988,0.7988,0.7988,0.7988,0.7988,0.7988,0.7988,0.7988,0.7988,0.7988,0.7988,0.7988,0.7988,0.7914,0.7838,0.7692,0.7546,0.7456,0.0,0.0,0.0,0.0,0.0,0.0,0.0,0.0,0.0,0.0,0.0,0.0,0.0,0.0,0.0,0.0,0.0,0.0,1.3213,1.3761,1.4102,1.4135,1.468,1.4988,1.5055,1.5518,1.5751,1.5784,1.5784,1.5784,1.5784,1.5751,1.5785,1.5718,1.5478,1.5331,1.5264,1.4743,1.4502,1.4449,1.4195,1.4088,1.4082,1.4015,1.3828,1.348,1.2829,1.2011,1.1115,1.0613,0.9852,0.9107,0.8993,0.9242,0.9574,0.9695,0.0,0.8715,0.8846,0.8803,0.893,0.9966,1.0543,1.0864,0.0,0.0,1.0928,0.9896,0.967,0.9317,0.8184,0.8973,0.9744,0.9743,1.0693,1.1434,1.1458,1.0485,1.0194,1.1312,0.941,0.7988,0.7988,0.7988,0.7988,0.7988,0.7988,0.7988,0.7988,0.7988,0.7988,0.7988,0.7988,0.7988,0.7988,0.7988,0.7988,0.7988,0.7988,0.7988,0.7988,0.7988,0.7988,0.7988,0.7988,0.7988,0.7988,0.7988,0.7988,0.7988,0.7988,0.7978,0.7944,0.7841,0.7695,0.7553,0.0,0.0,0.0,0.0,0.0,0.0,0.0,0.0,0.0,0.0,0.0,0.0,0.0,0.0,0.0,0.0,0.0,0.0,1.32,1.3601,1.3981,1.4322,1.4576,1.4783,1.5008,1.5364,1.5578,1.5578,1.5698,1.5784,1.5784,1.5784,1.5784,1.5778,1.5705,1.5464,1.513,1.4883,1.4583,1.4255,1.4135,1.4088,1.4088,1.4088,1.3901,1.3465,1.2514,1.1857,0.0,0.0,0.9631,0.9296,0.9296,0.9589,1.0019,1.0756,1.0434,0.0,0.9879,1.0532,1.111,1.0935,1.1599,1.2322,1.2322,1.24,1.2557,1.2882,1.2911,1.2612,1.1561,1.1793,1.1973,0.0,1.1556,1.1896,1.1896,1.1458,1.1317,1.1853,1.0925,1.0288,1.0288,0.9604,0.9167,0.9167,0.8432,0.7988,0.7988,0.7988,0.7988,0.7988,0.7988,0.7988,0.7988,0.7988,0.7988,0.7988,0.7988,0.7988,0.7988,0.7988,0.7988,0.7988,0.7988,0.7988,0.7988,0.7988,0.7988,0.7988,0.7988,0.7988,0.7982,0.7917,0.7797,0.759,0.0,0.0,0.0,0.0,0.0,0.0,0.0,0.0,0.0,0.0,0.0,0.0,0.0,0.0,0.0,0.0,0.0,0.0,0.0,1.3393,1.3793,1.4219,1.4386,1.4623,1.4836,1.513,1.5277,1.5277,1.5484,1.5591,1.5591,1.5591,1.5591,1.5591,1.5591,1.5357,1.5001,1.4921,1.4596,1.4202,1.4122,1.4088,1.4082,1.3995,1.3793,1.3478,1.2453,1.2059,0.0,0.0,1.0126,1.0137,1.0241,1.0506,1.1008,1.1946,1.1748,1.1223,1.1223,1.2058,1.2783,1.2293,1.2987,1.3826,1.3826,1.3842,1.4136,1.4854,1.4986,1.4662,1.3555,1.3632,1.359,1.2624,1.277,1.2969,1.2969,1.2673,1.2576,1.2915,1.2673,1.2651,1.3062,1.1541,1.0556,1.0663,0.9339,0.8599,0.8639,0.8258,0.7988,0.7988,0.7988,0.7988,0.7988,0.7988,0.7988,0.7988,0.7988,0.7988,0.7988,0.7988,0.7988,0.7988,0.7988,0.7988,0.7988,0.7988,0.7988,0.7988,0.7988,0.7988,0.7988,0.7988,0.7879,0.7651,0.0,0.0,0.0,0.0,0.0,0.0,0.0,0.0,0.0,0.0,0.0,0.0,0.0,0.0,0.0,0.0,0.0,0.0,0.0,1.3313,1.3613,1.3626,1.4173,1.4479,1.4492,1.4823,1.5022,1.5022,1.5028,1.5035,1.5035,1.5035,1.5035,1.5035,1.5035,1.5028,1.4988,1.4656,1.4479,1.4482,1.4202,1.4088,1.4055,1.3726,1.3613,1.3567,1.3273,0.0,0.0,1.233,1.2224,1.2277,1.2601,1.2868,0.0,1.3466,1.3171,1.2748,1.2748,1.2948,1.3477,1.4584,1.5118,1.5338,1.5338,1.5551,1.5365,1.4202,1.3962,1.353,1.2188,1.3006,1.3872,1.383,1.4902,1.5683,1.5683,1.4609,1.4316,1.5534,1.4609,1.4467,0.0,1.3545,1.1987,1.2303,1.0839,1.0028,1.0306,0.8861,0.7988,0.7988,0.7988,0.7988,0.7988,0.7988,0.7988,0.7988,0.7988,0.7988,0.7988,0.7988,0.7988,0.7988,0.7988,0.7988,0.7988,0.7988,0.7988,0.7988,0.7988,0.7988,0.7988,0.7988,0.7891,0.7784,0.0,0.0,0.0,0.0,0.0,0.0,0.0,0.0,0.0,0.0,0.0,0.0,0.0,0.0,0.0,0.0,0.0,0.0,0.0,1.2978,1.314,1.3347,1.3686,1.39,1.39,1.4422,1.4669,1.4669,1.4914,1.5008,1.5008,1.5008,1.5008,1.5008,1.5008,1.4901,1.4663,1.4563,1.4409,1.4222,1.4128,1.3968,1.374,1.364,1.3394,1.3079,0.0,0.0,0.0,1.2405,1.2305,1.2351,1.269,1.2998,1.3347,1.3979,1.4054,1.3974,1.4211,1.4469,1.478,1.5153,1.5471,1.5685,1.5685,1.5758,1.5683,1.5242,1.5146,1.4997,1.4567,1.4854,1.5146,1.5146,1.5534,1.5784,1.5784,1.5439,1.5343,1.573,1.5608,0.0,0.0,0.0,0.0,1.3993,1.2678,1.1447,1.0424,0.9861,0.9083,0.8041,0.7988,0.7988,0.7988,0.7988,0.7988,0.7988,0.7988,0.7988,0.7988,0.7988,0.7988,0.7988,0.7988,0.7988,0.7988,0.7988,0.7988,0.7988,0.7988,0.7988,0.7988,0.7988,0.7958,0.7877,0.0,0.0,0.0,0.0,0.0,0.0,0.0,0.0,0.0,0.0,0.0,0.0,0.0,0.0,0.0,0.0,0.0,0.0,0.0,0.0,1.2878,1.3033,1.3327,1.3447,1.3447,1.3854,1.4048,1.4048,1.4242,1.4378,1.4378,1.4378,1.4378,1.4378,1.4378,1.4235,1.4048,1.4048,1.4001,1.3921,1.3814,1.3721,1.358,1.34,1.3086,0.0,0.0,0.0,1.2596,1.2365,1.2371,1.2512,1.2851,1.3193,1.3654,1.4322,1.4596,1.4743,1.5037,1.5331,1.5551,1.5551,1.5691,1.5784,1.5784,1.5784,1.5784,1.5784,1.5784,1.5784,1.5784,1.5784,1.5784,1.5784,1.5784,1.5784,1.5784,1.5784,1.5824,1.5972,1.6159,1.6359,0.0,0.0,0.0,1.565,1.4344,1.3088,1.2159,1.1,0.9916,0.8914,0.8314,0.7988,0.7988,0.7988,0.7988,0.7988,0.7988,0.7988,0.7988,0.7988,0.7988,0.7988,0.7988,0.7988,0.7988,0.7988,0.7988,0.7988,0.7988,0.7988,0.7988,0.7988,0.7988,0.7948,0.0,0.0,0.0,0.0,0.0,0.0,0.0,0.0,0.0,0.0,0.0,0.0,0.0,0.0,0.0,0.0,0.0,0.0,0.0,0.0,0.0,1.2764,1.3019,1.3186,1.3186,1.32,1.3213,1.3213,1.3213,1.3213,1.3213,1.3213,1.3213,1.3213,1.3213,1.3213,1.3213,1.3213,1.3367,1.3553,1.328,1.3327,1.3493,1.3005,0.0,0.0,0.0,0.0,0.0,1.2305,1.2549,1.2864,1.3133,1.3634,1.4168,1.4462,1.475,1.5095,1.5337,1.5618,1.5784,1.5784,1.5784,1.5784,1.5784,1.5784,1.5784,1.5784,1.5784,1.5784,0.0,0.0,1.5784,1.5784,1.5784,1.5784,1.5784,1.5784,1.5939,0.0,0.0,0.0,0.0,0.0,0.0,1.7226,0.0,1.4999,1.5197,1.2271,1.0584,1.0525,0.8957,0.8088,0.8088,0.8038,0.7988,0.7988,0.7988,0.7988,0.7988,0.7988,0.7988,0.7988,0.7988,0.7988,0.7988,0.7988,0.7988,0.7988,0.7988,0.7988,0.7988,0.7988,0.7988,0.7948,0.0,0.0,0.0,0.0,0.0,0.0,0.0,0.0,0.0,0.0,0.0,0.0,0.0,0.0,0.0,0.0,0.0,0.0,0.0,0.0,0.0,0.0,0.0,0.0,0.0,0.0,0.0,0.0,1.3213,1.3213,1.3213,1.3213,1.3213,1.3213,1.3213,1.3213,1.3213,1.3213,1.3253,1.3313,0.0,1.3113,1.2998,0.0,0.0,0.0,0.0,0.0,0.0,0.0,0.0,0.0,1.34,1.3893,1.4469,1.4763,1.5057,1.5351,1.5645,1.5772,1.5784,1.5784,1.5784,1.5784,1.5784,1.5784,1.5784,1.5784,1.5784,1.5784,0.0,0.0,0.0,1.5784,1.5784,0.0,1.5784,1.5784,0.0,1.6239,0.0,1.674,1.7166,1.7393,0.0,0.0,1.7127,1.6392,1.5267,1.4214,1.3148,1.1933,1.0339,0.9509,0.9509,0.8482,0.7988,0.7988,0.7988,0.7988,0.7988,0.7988,0.7988,0.7988,0.7988,0.7988,0.7988,0.7988,0.7988,0.7988,0.7988,0.7988,0.7988,0.7988,0.7988,0.7965,0.0,0.0,0.0,0.0,0.0,0.0,0.0,0.0,0.0,0.0,0.0,0.0,0.0,0.0,0.0,0.0,0.0,0.0,0.0,0.0,0.0,0.0,0.0,0.0,0.0,0.0,0.0,0.0,0.0,0.0,0.0,1.2752,1.2812,1.2812,1.2812,1.2812,1.2812,1.2812,0.0,0.0,0.0,0.0,0.0,0.0,0.0,0.0,0.0,0.0,0.0,0.0,0.0,1.3413,1.3748,1.4113,1.4583,1.4921,0.0,1.5464,1.5752,1.5784,1.5784,1.5784,1.5784,1.5784,1.5784,1.5784,1.5784,1.5784,1.5784,0.0,1.5784,1.5784,0.0,0.0,0.0,0.0,1.5784,1.5784,1.5985,0.0,1.6607,0.0,1.7347,1.7488,1.7582,0.0,1.7582,1.7187,1.6285,1.5436,1.4497,1.3484,1.1909,1.0722,0.9998,0.8676,0.7988,0.7988,0.7988,0.7988,0.7988,0.7988,0.7988,0.7988,0.0,0.7988,0.7988,0.7988,0.7988,0.7988,0.7988,0.7988,0.7988,0.7988,0.7988,0.7968,0.0,0.0,0.0,0.0,0.0,0.0,0.0,0.0,0.0,0.0,0.0,0.0,0.0,0.0,0.0,0.0,0.0,0.0,0.0,0.0,0.0,0.0,0.0,0.0,0.0,0.0,0.0,0.0,0.0,0.0,0.0,0.0,0.0,0.0,0.0,0.0,0.0,0.0,0.0,0.0,0.0,0.0,0.0,0.0,0.0,0.0,0.0,0.0,0.0,0.0,1.36,1.366,1.4041,1.4342,1.4636,1.4981,1.5224,1.5504,1.5758,1.5784,1.5784,1.5784,1.5784,1.5784,1.5784,1.5784,1.5784,1.5784,0.0,1.5784,1.5784,1.5784,1.5784,1.5784,0.0,1.5784,1.5784,1.5784,1.5997,1.6633,1.6707,1.6934,1.7522,1.7582,1.7582,1.7582,1.7582,1.7582,1.7582,1.6248,1.5221,1.4752,1.3147,1.1598,0.9998,0.8676,0.7988,0.7988,0.7988,0.7988,0.7988,0.7988,0.7988,0.7988,0.7988,0.7988,0.7988,0.7988,0.7988,0.7988,0.7988,0.7988,0.7988,0.7988,0.7988,0.7971,0.0,0.0,0.0,0.0,0.0,0.0,0.0,0.0,0.0,0.0,0.0,0.0,0.0,0.0,0.0,0.0,0.0,0.0,0.0,0.0,0.0,0.0,0.0,0.0,0.0,0.0,0.0,0.0,0.0,0.0,0.0,0.0,0.0,0.0,0.0,0.0,0.0,0.0,0.0,0.0,0.0,0.0,0.0,0.0,0.0,0.0,0.0,0.0,0.0,0.0,1.36,1.37,1.4275,1.4649,1.4988,1.5237,1.5524,1.5718,1.5764,1.5784,1.5784,1.5784,1.5784,1.5784,1.5784,1.5784,0.0,0.0,1.5784,1.5784,1.5784,1.5784,1.5784,1.5784,1.5784,1.5784,1.5784,1.5784,1.5997,0.0,1.6707,1.6934,1.7522,1.7582,0.0,0.0,1.7582,1.7582,1.7582,1.7146,1.6119,1.4441,1.2855,1.135,0.9998,0.8676,0.7988,0.7988,0.7988,0.7988,0.7988,0.7988,0.7988,0.7988,0.7988,0.0,0.7988,0.7988,0.7988,0.7988,0.7988,0.7988,0.7988,0.7988,0.7988,0.7985,0.0,0.0,0.0,0.0,0.0,0.0,0.0,0.0,0.0,0.0,1.2305,1.2305,0.0,0.0,0.0,0.0,0.0,0.0,0.0,0.0,0.0,0.0,0.0,0.0,0.0,0.0,1.2151,1.1844,0.0,0.0,0.0,1.1864,1.2004,0.0,0.0,0.0,0.0,0.0,0.0,0.0,0.0,0.0,0.0,0.0,0.0,0.0,0.0,0.0,0.0,0.0,1.3874,1.3948,1.4382,1.4723,1.5068,1.5311,1.5605,1.5784,1.5784,1.5784,1.5784,1.5784,1.5784,1.5784,1.5784,0.0,0.0,0.0,1.5784,1.5784,1.5784,1.5784,0.0,1.5784,1.5784,1.5784,1.5784,1.5784,1.5992,1.6426,1.6613,1.6881,1.7367,1.7548,1.7582,1.7582,1.7582,1.7582,1.7582,1.7161,1.6529,1.5581,1.3834,1.2668,1.2037,1.0043,0.9019,0.9019,0.8333,0.7988,0.7988,0.7988,0.7988,0.7988,0.7988,0.7988,0.7988,0.7988,0.7988,0.7988,0.7988,0.7988,0.7988,0.7988,0.7988,0.7988,0.0,0.0,0.0,0.0,0.0,0.0,0.0,1.2305,1.2305,1.2305,1.2305,1.2305,1.2305,1.2305,0.0,0.0,0.0,0.0,0.0,0.0,0.0,0.0,0.0,0.0,0.0,0.0,0.0,1.1575,1.1784,0.0,0.0,0.0,0.0,0.0,1.2171,1.2305,0.0,0.0,0.0,0.0,0.0,0.0,0.0,0.0,0.0,0.0,0.0,0.0,0.0,0.0,1.4088,1.4148,1.4502,1.4776,1.5075,1.5384,1.5651,1.5784,1.5784,1.5784,1.5784,1.5784,1.5784,1.5784,1.5784,1.5784,0.0,1.5784,1.5784,1.5784,1.5784,1.5784,1.5784,0.0,1.5784,1.5784,1.5784,1.5784,1.5939,0.0,1.6526,0.0,1.7172,1.7467,0.0,1.7582,1.7582,1.7582,1.7582,1.7021,1.6707,1.6707,1.4887,1.3926,1.3926,1.1307,0.9998,0.9998,0.8627,0.7988,0.7988,0.7988,0.7988,0.7988,0.7988,0.7988,0.7988,0.7988,0.7988,0.7988,0.7988,0.7988,0.7988,0.7988,0.7988,0.7988,0.0,0.0,0.0,0.0,0.0,0.0,0.0,1.2305,1.2305,1.2305,1.2305,1.2305,1.2305,1.2305,0.0,0.0,0.0,0.0,0.0,0.0,0.0,0.0,0.0,0.0,0.0,0.0,0.0,1.2225,1.1984,0.0,0.0,0.0,0.0,0.0,0.0,1.2305,1.2305,0.0,0.0,0.0,0.0,0.0,0.0,0.0,0.0,0.0,0.0,0.0,0.0,0.0,0.0,1.4188,1.4794,1.4988,1.5115,1.5625,0.0,0.0,1.5784,1.5784,1.5784,1.5784,1.5784,1.5784,1.5784,0.0,1.5784,1.5784,1.5784,1.5784,1.5784,1.5784,1.5784,1.5784,0.0,1.5784,1.5784,1.5784,1.5939,1.6239,0.0,0.0,1.7172,1.7467,1.7582,1.7582,1.7582,1.7582,1.7582,1.7021,1.6707,1.6707,1.4887,1.3926,1.3926,1.1307,0.9998,0.9998,0.8627,0.7988,0.7988,0.7988,0.7988,0.7988,0.7988,0.7988,0.0,0.7988,0.7988,0.7988,0.7988,0.7988,0.7988,0.7988,0.7988,0.7988,0.0,0.0,0.0,0.0,0.0,0.0,0.0,1.2305,1.2305,1.2305,1.2305,1.2305,1.2305,1.2305,1.2305,0.0,0.0,0.0,0.0,0.0,0.0,0.0,0.0,0.0,0.0,0.0,1.2218,1.2044,1.196,0.0,0.0,0.0,0.0,0.0,0.0,1.2305,1.2305,0.0,0.0,0.0,0.0,0.0,0.0,0.0,0.0,0.0,0.0,0.0,0.0,0.0,0.0,0.0,1.4821,1.5008,0.0,0.0,1.5784,1.5784,1.5784,1.5784,1.5784,1.5784,1.5784,1.5784,1.5784,0.0,1.5784,1.5784,1.5784,1.5784,1.5784,1.5784,1.5784,1.5784,0.0,0.0,1.5784,1.5784,1.5872,1.5992,1.642,0.0,0.0,0.0,1.7582,1.7582,1.7582,1.7582,1.7582,1.7021,1.6707,1.6707,1.5635,1.5045,1.5045,1.2425,1.1121,1.1116,0.9801,0.8775,0.8038,0.8825,0.8775,0.7988,0.7988,0.7988,0.0,0.7988,0.7988,0.7988,0.7988,0.7988,0.7988,0.7988,0.7988,0.7988,0.0,0.0,0.0,0.0,0.0,0.0,1.2305,1.2305,1.2305,1.2305,1.2305,1.2305,1.2305,1.2305,1.2305,1.2305,0.0,0.0,0.0,0.0,0.0,0.0,0.0,0.0,0.0,0.0,1.2204,1.2033,1.1946,1.1804,0.0,0.0,1.1953,1.204,0.0,0.0,0.0,0.0,0.0,0.0,0.0,0.0,0.0,0.0,0.0,0.0,0.0,0.0,0.0,0.0,0.0,0.0,0.0,0.0,0.0,0.0,1.5784,1.5784,1.5784,1.5784,1.5784,1.5784,1.5784,1.5784,0.0,0.0,1.5784,1.5784,1.5784,1.5784,1.5784,1.5784,1.5784,0.0,0.0,1.5784,1.5784,1.5784,1.5784,1.5784,0.0,1.6707,0.0,1.7241,1.7582,1.7582,1.7582,1.7582,1.7582,1.7021,1.6707,1.6707,1.6084,1.5784,1.5784,1.359,1.2285,1.1896,1.0974,0.985,0.8627,0.9558,0.946,0.8581,0.8187,0.7988,0.0,0.7988,0.7988,0.7988,0.7988,0.7988,0.7988,0.7988,0.7988,0.7988,0.0,0.0,0.0,0.0,0.0,0.0,0.0,1.2305,1.2305,1.2305,1.2305,1.2305,1.2305,1.2305,1.2305,1.2305,0.0,0.0,0.0,0.0,0.0,0.0,0.0,0.0,0.0,0.0,1.2305,1.2298,1.2047,1.2011,1.2285,1.2004,1.206,1.2298,0.0,0.0,0.0,0.0,0.0,0.0,0.0,0.0,0.0,0.0,0.0,0.0,0.0,0.0,0.0,0.0,0.0,0.0,0.0,1.473,1.5122,0.0,1.5784,1.5784,1.5784,1.5784,1.5784,1.5784,1.5784,1.5784,0.0,0.0,1.5784,1.5784,1.5784,1.5784,1.5784,1.5784,1.5784,1.5784,0.0,0.0,1.5784,1.5784,1.5784,0.0,0.0,1.6707,1.6707,1.7241,1.7582,1.7582,1.7582,0.0,1.7582,1.7021,1.6707,1.6707,1.6084,1.5784,1.5784,1.4513,1.3199,1.1896,1.1896,1.1214,0.9998,0.9998,0.9998,0.9899,0.8581,0.7988,0.0,0.7988,0.7988,0.7988,0.7988,0.7988,0.7988,0.7988,0.7988,0.7988,0.0,0.0,0.0,0.0,0.0,0.0,0.0,1.2305,1.2305,1.2305,1.2305,1.2305,1.2305,1.2305,1.2305,1.2305,0.0,0.0,0.0,0.0,0.0,0.0,0.0,0.0,0.0,0.0,1.2305,1.2305,1.2204,1.2211,1.2298,1.2204,1.2218,1.2305,1.2305,1.2305,0.0,0.0,0.0,0.0,0.0,0.0,0.0,0.0,0.0,0.0,0.0,0.0,0.0,0.0,0.0,0.0,0.0,0.0,0.0,1.5364,1.5671,1.5784,1.5784,1.5784,1.5784,1.5784,1.5784,1.5784,1.5784,1.5784,1.5784,1.5784,1.5784,1.5784,1.5784,1.5784,1.5784,1.5784,1.5784,0.0,0.0,0.0,0.0,1.6106,1.6653,1.7088,0.0,0.0,1.7582,1.7582,1.7582,1.7582,1.7582,1.7021,1.6707,1.6707,1.6084,1.5784,1.5784,1.4555,1.3247,1.1901,1.2813,1.2134,1.0047,1.1843,1.1697,0.9998,0.9558,0.8825,0.7988,0.7988,0.7988,0.7988,0.7988,0.7988,0.7988,0.7988,0.7988,0.7988,0.0,0.0,0.0,0.0,0.0,0.0,0.0,1.2305,1.2305,1.2305,1.2305,1.2305,1.2305,1.2305,1.2305,1.2305,0.0,0.0,0.0,0.0,0.0,0.0,0.0,0.0,0.0,1.2305,1.2305,1.2305,1.2305,1.2305,1.2305,1.2305,1.2305,1.2305,1.2305,1.2305,0.0,0.0,0.0,0.0,0.0,0.0,1.2311,0.0,0.0,0.0,0.0,0.0,0.0,0.0,0.0,0.0,0.0,0.0,0.0,0.0,1.5438,1.5691,1.5751,1.5784,1.5784,1.5784,1.5784,0.0,0.0,1.5784,1.5784,1.5784,1.5784,1.5784,1.5784,1.5784,1.5784,1.5784,1.5784,0.0,0.0,0.0,0.0,1.6386,0.0,0.0,0.0,1.7582,1.7582,1.7582,1.7582,1.7535,1.7474,1.6967,1.6653,1.6547,1.6079,1.5784,1.5784,1.4997,1.3974,1.2673,1.3974,1.3488,1.1551,1.3151,1.2764,1.0681,1.0194,0.9217,0.0,0.7988,0.7988,0.7988,0.7988,0.7988,0.7988,0.7988,0.7988,0.7988,0.0,0.0,0.0,0.0,0.0,0.0,0.0,0.0,0.0,0.0,1.2305,1.2305,1.2305,1.2305,1.2305,0.0,0.0,0.0,0.0,0.0,0.0,0.0,0.0,0.0,0.0,1.2305,1.2305,1.2305,1.2305,1.2305,1.2305,1.2305,1.2305,1.2305,1.2305,1.2305,1.2305,1.2305,1.2305,1.2305,1.2305,1.2305,0.0,0.0,0.0,0.0,0.0,0.0,0.0,0.0,0.0,0.0,0.0,0.0,0.0,0.0,0.0,0.0,0.0,1.5764,1.5784,1.5784,1.5784,0.0,0.0,1.5784,0.0,1.5784,1.5784,1.5784,1.5784,1.5784,1.5784,1.5784,0.0,0.0,0.0,1.5818,0.0,0.0,1.7052,0.0,1.7555,1.7582,1.7582,1.7582,1.7562,1.7435,1.7213,1.6847,1.6553,1.6328,1.5985,1.5784,1.5784,1.5784,1.5146,1.3926,1.5194,1.5146,1.3926,1.3974,1.3295,0.0,1.0681,0.9361,0.8137,0.8038,0.7988,0.7988,0.7988,0.7988,0.7988,0.7988,0.7988,0.7988,0.0,0.0,0.0,0.0,0.0,0.0,0.0,0.0,0.0,0.0,0.0,1.2305,1.2305,1.2305,0.0,0.0,0.0,0.0,0.0,0.0,0.0,0.0,0.0,0.0,0.0,1.2305,1.2305,1.2305,1.2305,1.2305,1.2305,1.2305,1.2305,1.2305,1.2305,1.2305,1.2305,1.2305,1.2305,1.2305,1.2305,1.2305,0.0,0.0,0.0,0.0,1.35,1.3834,0.0,0.0,0.0,0.0,0.0,0.0,0.0,0.0,1.483,1.513,1.5418,0.0,1.5784,1.5784,1.5784,1.5784,0.0,0.0,0.0,0.0,0.0,0.0,0.0,0.0,0.0,1.5784,0.0,1.5784,1.5784,0.0,0.0,1.7052,1.7353,1.7508,1.7575,1.7582,1.7582,1.7582,1.7427,1.7273,1.7206,1.6703,1.6346,1.6279,1.5985,1.5784,1.5784,1.5784,1.5146,1.3926,1.5194,1.5146,1.3926,1.4902,1.4657,1.3343,1.2042,1.073,0.946,0.8432,0.7988,0.7988,0.7988,0.7988,0.7988,0.7988,0.7988,0.7988,0.0,0.0,0.0,0.0,0.0,0.0,0.0,0.0,0.0,0.0,0.0,0.0,0.0,0.0,0.0,0.0,0.0,0.0,0.0,0.0,0.0,0.0,0.0,0.0,1.2305,1.2305,1.2305,1.2305,1.2305,1.2305,1.2305,1.2305,1.2305,1.2305,1.2305,1.2305,1.2305,1.2305,1.2305,1.2305,1.2305,0.0,0.0,0.0,0.0,0.0,1.37,1.3948,0.0,1.4088,1.4088,1.4088,0.0,0.0,0.0,0.0,1.4636,1.4856,1.5284,1.5611,1.5784,1.5784,1.5784,1.5784,1.5784,0.0,0.0,0.0,0.0,0.0,0.0,0.0,0.0,0.0,1.5784,0.0,0.0,0.0,1.7018,1.7186,1.746,1.7582,0.0,1.7582,1.7582,1.7582,1.7367,1.7139,1.7005,1.6513,1.6213,1.6072,1.5912,1.5784,1.5784,1.5784,1.5439,1.48,1.5486,1.5439,1.48,1.5486,1.5092,1.3824,1.2479,1.117,0.9903,0.8528,0.7988,0.7988,0.7988,0.7988,0.7988,0.7988,0.7988,0.7988,0.0,0.0,0.0,0.0,0.0,0.0,0.0,0.0,0.0,0.0,0.0,0.0,0.0,0.0,0.0,0.0,0.0,0.0,0.0,0.0,0.0,0.0,0.0,1.2305,1.2305,1.2305,1.2305,1.2305,1.2305,1.2305,1.2305,1.2305,1.2305,1.2305,1.2305,1.2305,1.2305,1.2305,1.2305,1.2305,1.2351,0.0,0.0,0.0,0.0,0.0,0.0,0.0,0.0,1.4088,1.4088,1.4088,1.4088,0.0,0.0,0.0,0.0,0.0,1.5184,1.5538,1.5724,1.5771,1.5784,1.5784,1.5784,0.0,0.0,0.0,0.0,0.0,0.0,1.5784,0.0,0.0,0.0,0.0,1.6299,1.6857,1.7219,1.7266,1.7481,0.0,1.7582,1.7582,1.7582,1.7582,1.732,1.7025,1.672,1.6386,1.6086,1.5791,1.5784,1.5784,1.5784,1.5784,1.5784,1.5784,1.5784,1.5784,1.5784,1.5784,1.5194,1.4118,0.0,0.0,1.0194,0.8627,0.7988,0.7988,0.7988,0.7988,0.7988,0.7988,0.7988,0.7988,0.0,0.0,0.0,0.0,0.0,0.0,0.0,0.0,0.0,0.0,0.0,0.0,0.0,0.0,0.0,0.0,0.0,0.0,0.0,0.0,0.0,0.0,1.2305,1.2305,1.2305,1.2305,1.2305,1.2305,1.2305,1.2305,1.2305,1.2305,1.2305,1.2305,1.2305,1.2305,1.2305,1.2305,1.2305,1.2325,1.2616,0.0,0.0,0.0,0.0,0.0,0.0,0.0,0.0,1.4088,1.4088,1.4088,1.4088,0.0,0.0,0.0,0.0,0.0,1.4981,1.5244,1.5524,1.5718,1.5784,1.5784,1.5784,0.0,0.0,0.0,0.0,0.0,0.0,1.5784,1.5784,0.0,0.0,1.6306,0.0,0.0,1.7293,1.7482,0.0,1.7582,1.7582,1.7582,1.7582,1.7582,1.7081,1.6754,1.6707,1.6192,1.5831,1.5784,1.5784,1.5784,1.5784,1.5784,1.5784,1.5784,1.5784,1.5784,1.5784,1.5784,1.5683,1.5384,0.0,1.1799,1.1409,0.9019,0.7988,0.7988,0.7988,0.7988,0.7988,0.7988,0.7988,0.7988,0.0,0.0,0.0,0.0,0.0,0.0,0.0,0.0,0.0,0.0,0.0,0.0,0.0,0.0,0.0,0.0,0.0,0.0,0.0,0.0,0.0,0.0,1.2305,1.2305,1.2305,1.2305,1.2305,1.2305,1.2305,1.2305,1.2305,1.2305,1.2305,1.2305,1.2305,1.2305,1.2305,1.2305,1.2392,1.2589,0.0,0.0,0.0,0.0,0.0,0.0,0.0,0.0,0.0,0.0,1.4088,1.4088,1.4088,0.0,0.0,0.0,0.0,0.0,1.4881,1.5109,1.5271,1.5718,1.5784,1.5784,1.5784,0.0,0.0,0.0,0.0,0.0,0.0,0.0,1.5879,1.6046,0.0,1.7436,1.7052,1.7849,1.8247,0.0,0.0,1.7582,1.7582,1.7582,1.7515,1.7414,1.6947,1.664,1.648,1.6066,1.5784,1.5784,1.5784,1.5784,1.5784,1.5784,1.5784,1.5784,1.5784,1.5784,1.5784,1.5784,1.5784,1.5683,0.0,1.2576,1.175,0.985,0.8676,0.7988,0.7988,0.7988,0.7988,0.7988,0.7988,0.7988,0.0,0.0,0.0,0.0,0.0,0.0,0.0,0.0,0.0,0.0,0.0,0.0,0.0,0.0,0.0,0.0,0.0,0.0,0.0,0.0,1.2305,1.2305,1.2305,1.2305,1.2305,1.2305,1.2305,1.2305,1.2305,1.2305,1.2305,1.2305,1.2305,1.2305,1.2305,1.2305,1.2305,1.2378,1.2576,1.2797,0.0,0.0,0.0,0.0,0.0,0.0,0.0,0.0,0.0,0.0,0.0,0.0,0.0,0.0,0.0,1.4168,1.4188,1.4315,1.4948,1.5109,1.519,1.5705,0.0,0.0,0.0,0.0,0.0,0.0,0.0,0.0,0.0,1.6062,0.0,1.707,1.8293,1.8909,1.8246,1.9265,1.9576,1.8251,1.8094,1.7943,1.7635,1.7582,1.7514,1.7226,1.6874,1.658,1.6286,1.5992,1.5784,1.5784,1.5784,1.5784,1.5784,1.5784,1.5784,1.5784,1.5784,1.5784,1.5784,1.5784,1.5784,1.573,1.4459,1.3343,1.2237,1.0632,0.941,0.8432,0.8137,0.7988,0.7988,0.7988,0.7988,0.7988,0.0,0.0,0.0,0.0,0.0,0.0,0.0,0.0,0.0,0.0,0.0,0.0,0.0,0.0,0.0,0.0,0.0,0.0,0.0,0.0,1.2305,1.2305,1.2305,1.2305,1.2305,1.2305,1.2305,1.2305,1.2305,1.2305,1.2305,1.2305,1.2305,1.2305,1.2305,1.2305,1.2318,1.2636,1.2764,1.2837,1.3353,0.0,0.0,0.0,0.0,0.0,0.0,0.0,0.0,0.0,0.0,0.0,0.0,0.0,1.4142,1.4409,1.4489,1.4616,1.5204,1.5364,1.5438,1.5752,1.5784,0.0,1.5784,1.5784,0.0,1.5784,0.0,0.0,0.0,1.6756,1.8062,1.9593,2.0187,2.0548,2.0851,0.0,2.1041,1.9627,1.9472,1.8961,1.774,1.7582,1.7514,1.7226,1.6874,1.658,1.6286,1.5992,1.5784,1.5784,1.5784,1.5784,1.5784,1.5784,1.5784,1.5784,1.5784,1.5784,1.5784,1.5784,1.5784,1.573,1.4459,1.383,1.3536,1.1019,0.9948,0.9756,0.8482,0.7988,0.7988,0.7988,0.7988,0.7988,0.0,0.0,0.0,0.0,0.0,0.0,0.0,0.0,0.0,0.0,0.0,0.0,0.0,0.0,0.0,0.0,0.0,0.0,0.0,0.0,1.2305,1.2305,1.2305,1.2305,1.2305,1.2305,1.2305,1.2305,1.2305,1.2305,1.2305,1.2305,1.2305,1.2305,1.2305,1.2305,1.2318,1.2656,1.2898,1.3073,1.344,1.3713,0.0,0.0,0.0,0.0,0.0,0.0,0.0,0.0,1.4088,1.4088,0.0,0.0,1.4142,1.4436,1.4522,1.4649,1.5237,1.5975,1.6574,1.6911,1.7537,0.0,0.0,1.6433,1.6763,1.5967,1.5784,0.0,0.0,0.0,1.9186,2.0225,2.1203,2.1752,2.1562,2.2322,2.2466,2.1092,2.0135,1.9428,1.8916,1.7929,1.7239,1.6894,1.66,1.6306,1.6012,1.5892,1.5784,1.5784,1.5784,1.5784,1.5784,1.5784,1.5784,1.5784,1.5784,1.5784,1.5784,1.5784,1.5784,1.5784,1.5289,1.4609,1.3776,1.194,1.073,0.985,0.8531,0.7988,0.7988,0.7988,0.7988,0.7988,0.0,0.0,0.0,0.0,0.0,0.0,0.0,0.0,0.0,0.0,0.0,0.0,0.0,0.0,0.0,0.0,0.0,0.0,0.0,1.2305,1.2305,1.2305,1.2305,1.2305,1.2305,1.2305,1.2305,1.2305,1.2305,1.2305,1.2305,1.2305,1.2305,1.2305,1.2305,1.2351,1.2496,1.2804,1.3066,1.3333,1.362,1.3908,0.0,0.0,0.0,0.0,0.0,0.0,0.0,0.0,1.4088,0.0,0.0,0.0,0.0,0.0,1.4974,1.5462,1.5982,1.702,1.7963,1.8218,0.0,0.0,1.7429,1.763,1.7994,1.7163,1.6976,1.7343,1.8634,0.0,0.0,0.0,2.2548,2.3123,2.2971,2.3741,2.384,2.2508,2.1499,2.0538,1.9679,1.8877,1.8117,1.7313,1.7016,1.6711,1.6407,1.6015,1.5784,1.5784,1.5784,1.5784,1.5784,1.5784,1.5784,1.5784,1.5784,1.5784,1.5784,1.5784,1.5784,1.5784,1.5784,1.5289,1.4411,1.306,1.1556,0.985,0.8531,0.7988,0.7988,0.7988,0.7988,0.7988,0.0,0.0,0.0,0.0,0.0,0.0,0.0,0.0,0.0,0.0,0.0,0.0,0.0,0.0,0.0,0.0,0.0,0.0,0.0,1.2305,1.2305,1.2305,1.2305,1.2305,1.2305,1.2305,1.2305,1.2305,1.2305,1.2305,1.2305,1.2305,1.2305,1.2305,1.2305,1.2509,1.2804,1.308,1.334,1.3626,1.3968,1.413,1.4088,0.0,0.0,0.0,0.0,0.0,0.0,0.0,1.413,1.4088,0.0,0.0,0.0,0.0,1.6041,1.7281,1.7594,1.8596,1.9542,1.9542,0.0,0.0,1.9807,1.9542,1.9488,1.9497,1.9497,1.9898,2.1069,2.1293,0.0,2.4038,2.4414,2.468,2.5567,2.5693,2.5226,2.389,2.3692,2.2617,1.9878,2.0469,2.0318,1.8622,1.8253,1.798,1.7707,1.648,1.5784,1.5784,1.5784,1.5784,1.5784,1.5784,1.5784,1.5784,1.5784,1.5784,1.5784,1.5784,1.5784,1.5784,1.5784,1.5784,1.5683,1.4411,1.2372,0.9899,0.8577,0.8038,0.8041,0.8041,0.7988,0.7988,0.0,0.0,0.0,0.0,0.0,0.0,0.0,0.0,0.0,0.0,0.0,0.0,0.0,0.0,0.0,0.0,0.0,0.0,0.0,1.2305,1.2305,1.2305,1.2305,1.2305,1.2305,1.2305,1.2305,1.2305,1.2305,1.2305,1.2305,1.2305,1.2305,1.2311,1.2556,1.2703,1.2817,1.3293,1.3527,1.3708,1.4808,1.4776,1.4166,0.0,0.0,0.0,0.0,0.0,0.0,0.0,0.0,0.0,0.0,0.0,0.0,1.4921,1.6041,1.7281,1.7594,1.9177,2.0755,2.0755,0.0,0.0,0.0,2.14,0.0,0.0,2.0169,2.089,2.1248,2.1987,0.0,2.4185,2.4414,2.468,2.5567,2.5693,2.5538,2.5177,2.4254,2.3269,2.2098,2.1234,2.0385,1.955,1.8424,1.7789,1.7692,1.648,1.5784,1.5784,1.5784,1.5784,1.5784,1.5784,1.5784,1.5784,1.5784,1.5784,1.5784,1.5784,1.5784,1.5784,1.5784,1.5784,1.5683,1.4411,1.2909,1.1317,1.0925,1.019,0.941,0.941,0.8825,0.7988,0.0,0.0,0.0,0.0,0.0,0.0,0.0,0.0,0.0,0.0,1.2305,0.0,0.0,0.0,0.0,0.0,0.0,0.0,0.0,0.0,1.2305,1.2305,1.2305,1.2305,1.2305,1.2305,1.2305,1.2305,1.2305,1.2305,1.2305,1.2305,1.2365,1.2522,1.2703,1.2918,1.3126,1.3447,1.3906,1.4509,1.5374,1.5587,1.5428,0.0,0.0,0.0,0.0,0.0,0.0,0.0,0.0,0.0,0.0,0.0,0.0,1.5639,1.6832,1.8259,1.8937,2.0539,0.0,2.2031,2.2536,2.3091,2.3091,0.0,0.0,0.0,2.1489,2.2031,2.2031,2.2633,0.0,2.4053,2.4307,2.4668,2.5371,2.5577,2.5625,2.5488,2.4754,2.3839,2.285,2.2209,2.1544,2.0712,1.9703,1.891,1.8457,1.7217,1.6339,1.5825,1.5784,1.5784,1.5784,1.5784,1.5784,1.5784,1.5784,1.5784,1.5784,1.5784,1.5784,1.5784,1.5784,1.5784,1.5683,1.4411,1.344,1.2624,1.2091,1.1409,1.0681,1.0194,0.9509,0.8726,0.0,0.0,0.0,0.0,0.0,0.0,0.0,0.0,0.0,0.0,1.2305,1.2305,0.0,0.0,0.0,0.0,0.0,0.0,0.0,0.0,1.2305,1.2305,1.2305,1.2305,1.2305,1.2305,1.2305,1.2305,1.2305,1.2305,1.2305,1.2331,1.2522,1.279,1.2844,1.3133,1.3606,1.3749,1.4516,1.5737,1.5902,1.6519,1.7293,1.7423,0.0,0.0,0.0,0.0,0.0,0.0,0.0,0.0,1.4699,1.549,1.6807,1.6894,1.8252,1.9898,2.098,2.2173,2.3091,2.3091,2.3091,0.0,2.3091,2.3091,2.3091,2.3091,0.0,2.3091,2.3091,2.3091,2.3237,2.3721,2.4111,2.4512,2.4951,2.5361,2.5469,2.5059,2.5057,2.4401,2.269,2.3311,2.3264,2.2016,2.1518,2.08,1.9716,1.8411,1.7178,1.6015,1.5872,1.5784,1.5784,1.5784,1.5784,1.5784,1.5784,1.5784,1.5784,1.5784,1.5784,1.5784,1.5784,1.5784,1.573,1.4561,1.407,1.3974,1.2721,1.2188,1.1945,1.0779,1.0288,0.9998,0.0,0.0,0.0,0.0,0.0,0.0,0.0,0.0,0.0,0.0,0.0,0.0,0.0,0.0,0.0,0.0,0.0,0.0,0.0,0.0,1.2305,1.2305,1.2305,1.2305,1.2305,1.2305,1.2305,1.2305,1.2305,1.2305,1.2305,1.2583,1.2723,1.2804,1.324,1.348,1.3654,1.4764,1.5437,1.5861,1.7568,1.79,1.7415,1.831,1.8069,0.0,0.0,0.0,0.0,0.0,0.0,0.0,1.669,1.7251,1.8027,1.807,1.9404,2.098,2.1248,2.2173,0.0,2.3091,2.3091,2.3091,2.3091,2.3091,2.3091,2.3091,2.3091,2.3091,2.3091,2.3091,2.3237,2.3721,2.3867,2.4072,2.4492,2.4639,2.4668,2.457,2.456,2.4293,2.3592,2.3657,2.3508,2.285,2.19,2.1203,2.0935,1.8864,1.7544,1.7318,1.6339,1.5784,1.5784,1.5784,1.5784,1.5784,1.5784,1.5784,1.5784,1.5784,1.5784,1.5784,1.5784,1.5784,1.5784,1.5486,1.5391,1.5343,1.5051,1.437,1.344,1.3151,1.2377,1.1317,0.0,0.0,0.0,0.0,0.0,0.0,0.0,0.0,0.0,0.0,0.0,0.0,0.0,0.0,0.0,0.0,0.0,0.0,0.0,0.0,0.0,0.0,1.2305,1.2305,1.2305,1.2305,1.2371,1.2549,1.2549,1.2549,1.2556,1.271,1.2938,1.3193,1.3467,1.368,1.3903,1.5189,1.5985,1.6601,1.831,1.8957,1.8948,1.9559,1.9392,1.8948,1.9559,0.0,0.0,0.0,0.0,0.0,0.0,0.0,1.8946,1.9169,2.0112,2.119,2.1931,0.0,0.0,2.3091,0.0,2.3091,2.3091,2.3091,2.3091,2.3091,2.3091,2.3091,2.3091,2.3091,2.3169,2.3437,2.3652,2.3867,2.4082,2.4287,2.4346,2.4141,2.4111,2.3945,2.3516,2.3477,2.3379,2.311,2.2536,2.1889,2.1337,1.9534,1.8319,1.7738,1.648,1.5784,1.5784,1.5784,1.5784,1.5784,1.5784,1.5784,1.5784,1.5784,1.5784,1.5784,1.5784,1.5784,1.5784,1.5784,1.5784,1.5784,1.5784,1.5391,1.4752,1.4118,1.344,1.2673,0.0,0.0,0.0,0.0,0.0,0.0,0.0,0.0,0.0,0.0,0.0,0.0,0.0,0.0,0.0,0.0,0.0,0.0,0.0,0.0,0.0,0.0,1.2305,1.2325,1.2378,1.2378,1.2525,1.2864,1.2864,1.2891,1.2938,1.2938,1.3166,1.3606,1.366,1.3854,1.4166,1.5421,1.6478,1.7423,1.8758,1.9805,2.0605,2.0605,2.0605,2.0605,2.0605,2.004,1.9283,1.9283,0.0,0.0,0.0,0.0,1.983,2.0347,2.075,2.1346,2.2703,0.0,2.3091,2.3091,2.3091,0.0,2.3091,2.3091,2.3091,2.3091,2.3091,2.3091,2.3091,2.3091,2.3091,2.3091,2.3437,2.3682,2.3682,2.3984,2.4062,2.3721,2.3682,2.3535,2.313,2.3091,2.3091,2.3091,2.3091,2.2677,2.1658,2.026,1.9039,1.8048,1.6574,1.5784,1.5784,1.5784,1.5784,1.5784,1.5784,1.5784,1.5784,1.5784,1.5784,1.5784,1.5784,1.5784,1.5784,1.5784,1.5784,1.5784,1.5784,1.5784,1.5683,1.4609,1.4214,1.4022,0.0,0.0,0.0,0.0,0.0,0.0,0.0,0.0,0.0,0.0,1.1657,0.0,0.0,0.0,0.0,0.0,0.0,0.0,0.0,0.0,0.0,0.0,1.2305,1.2425,1.2717,1.2723,1.2878,1.3153,1.3153,1.328,1.3487,1.3487,1.3527,1.3613,1.3915,1.4048,1.4208,1.6239,1.718,1.7496,1.955,2.0479,2.0605,2.0605,2.0605,2.0605,2.0605,2.0527,2.0401,2.0401,2.0401,0.0,0.0,0.0,2.1067,2.1533,2.1958,2.2374,2.294,0.0,2.3091,0.0,2.3091,2.3091,0.0,0.0,2.3091,0.0,2.3091,2.3091,2.3091,2.3091,2.3091,2.3091,2.314,2.3179,2.3179,2.3227,2.3247,2.3188,2.3179,2.3159,2.3101,2.3091,2.3091,2.3091,2.3091,2.3047,2.2862,2.0719,1.9451,1.9268,1.7023,1.5784,1.5784,1.5784,1.5784,1.5784,1.5784,1.5784,1.5784,1.5784,1.5784,1.5784,1.5784,1.5784,1.5784,1.5784,1.5784,1.5784,1.5784,1.5784,1.5784,1.5635,1.554,1.5343,0.0,0.0,0.0,0.0,0.0,0.0,0.0,0.0,0.0,0.0,0.0,1.1279,0.0,0.0,0.0,0.0,0.0,0.0,0.0,0.0,0.0,0.0,0.0,1.2273,1.1072,1.2361,1.2824,1.2491,1.3118,1.356,1.3895,1.3895,1.3895,1.3901,1.4028,1.4088,1.425,1.6404,1.7302,1.7496,1.9717,2.0605,2.0605,2.0605,2.0605,2.0605,2.0605,2.0605,2.0605,2.0605,2.0605,2.0605,2.0605,0.0,0.0,0.0,2.2021,2.2305,2.2916,2.3091,2.3091,0.0,2.3091,2.3091,2.3091,2.3091,2.3091,2.3091,2.3091,2.3091,2.3091,2.3091,2.3091,2.3091,2.3091,2.3091,2.3091,2.3091,2.3091,2.3091,2.3091,2.3091,2.3091,2.3091,2.3091,2.3091,2.3091,2.3091,2.3091,2.1445,2.0531,2.0531,1.8126,1.685,1.685,1.6157,1.5784,1.5784,1.5784,1.5784,1.5784,1.5784,1.5784,1.5784,1.5784,1.5784,1.5784,1.5784,1.5784,1.5784,1.5784,1.5784,1.5784,1.5784,1.5784,1.573,0.0,0.0,0.0,0.0,0.0,0.0,0.0,0.0,0.0,0.0,0.0,0.0,0.0,0.0,0.0,0.0,0.0,0.0,0.0,0.0,0.0,0.0,0.0,0.0,0.9871,1.1549,1.2294,1.1998,1.2854,1.3563,1.4088,1.4088,1.4088,1.4088,1.4088,1.4088,1.425,1.6404,1.7302,1.7496,1.9717,2.0605,2.0605,2.0605,2.0605,2.0605,2.0605,2.0605,2.0605,2.0605,2.0605,2.0605,2.0605,2.0605,0.0,0.0,0.0,0.0,0.0,0.0,2.3091,2.3091,2.3091,2.3091,0.0,0.0,2.3091,0.0,2.3091,2.3091,2.3091,2.3091,2.3091,2.3091,2.3091,2.3091,2.3091,2.3091,2.3091,2.3091,2.3091,2.3091,2.3091,2.3091,2.3091,2.3091,2.3091,2.3091,2.3091,2.1943,2.1293,2.1293,1.9268,1.8002,1.7692,1.6433,1.5784,1.5784,1.5784,1.5784,1.5784,1.5784,1.5784,1.5784,1.5784,1.5784,1.5784,1.5784,1.5784,1.5784,1.5784,1.5784,1.5784,1.5784,1.5784,1.5784,0.0,0.0,0.0,0.0,0.0,0.0,0.0,0.0,0.0,0.0,0.0,0.0,0.0,0.0,1.2224,1.2224,0.0,0.0,0.0,0.0,0.0,0.0,0.0,0.0,0.0,1.0309,1.1005,1.2262,1.2347,1.2972,1.4088,1.4088,1.4088,1.4088,1.4088,1.4088,1.425,1.6404,1.7302,1.7496,1.9717,2.0605,2.0605,2.0605,2.0605,2.0605,2.0605,2.0605,0.0,0.0,2.0605,2.0605,2.0605,2.0605,2.0693,0.0,0.0,0.0,0.0,2.3091,0.0,2.3091,2.3091,0.0,0.0,0.0,2.3091,2.3091,2.3091,2.3091,2.3091,2.3091,2.3091,2.3091,2.3091,2.3091,2.3091,2.3091,2.3091,2.3091,2.3091,2.3091,2.3091,2.3091,2.3091,2.3091,2.3091,2.3091,2.3091,2.1943,2.1293,2.1293,2.0079,1.8864,1.7684,1.6433,1.5784,1.5784,1.5784,1.5784,1.5784,1.5784,1.5784,1.5784,1.5784,1.5784,1.5784,1.5784,1.5784,1.5784,1.5784,1.5784,1.5784,1.5784,1.5784,1.5784,0.0,0.0,0.0,0.0,0.0,0.0,0.0,0.0,0.0,0.0,0.0,0.0,0.0,1.2077,1.2305,1.2305,1.1694,0.0,0.0,0.0,0.0,0.0,0.0,0.0,0.0,1.0399,1.1427,1.1209,1.2729,1.3688,1.4088,1.4088,1.4088,1.4088,1.4088,1.4088,1.425,1.6404,1.7302,1.7496,1.9717,2.0605,2.0605,2.0605,2.0605,2.0605,2.0605,0.0,0.0,0.0,0.0,0.0,0.0,0.0,0.0,0.0,0.0,0.0,0.0,0.0,0.0,2.3091,2.3091,2.3091,2.3091,2.3091,2.3091,2.3091,2.3091,2.3091,2.3091,2.3091,2.3091,2.3091,2.3091,2.3091,2.3091,2.3091,2.3091,2.3091,2.3091,2.3091,2.3091,2.3091,2.3091,2.3091,2.3091,2.3091,2.3091,2.2677,2.2448,2.2448,2.1302,1.9716,1.7738,1.7271,1.6622,1.5784,1.5784,1.5784,1.5784,1.5784,1.5784,1.5784,1.5784,1.5784,1.5784,1.5784,1.5784,1.5784,1.5784,1.5784,1.5784,1.5784,1.5784,1.5784,0.0,0.0,0.0,0.0,0.0,0.0,0.0,0.0,0.0,0.0,0.0,0.0,0.0,0.0,1.2305,1.2305,1.1056,1.0153,0.982,0.9377,0.0,0.0,0.0,0.0,0.0,0.0,0.0,0.0,0.0,1.3597,1.4088,1.4088,1.4088,1.4088,1.4088,1.4292,1.4734,1.6527,1.7504,1.802,1.9874,2.0605,2.0605,2.0605,2.0605,0.0,0.0,0.0,0.0,0.0,0.0,0.0,0.0,0.0,0.0,0.0,0.0,0.0,2.2945,0.0,0.0,0.0,2.3091,2.3091,2.3091,0.0,2.3091,2.3091,2.3091,2.3091,2.3091,2.3091,2.3091,2.3091,2.3091,2.3091,2.3091,2.3091,2.3091,2.3091,2.3091,2.3091,2.3091,2.3091,2.3091,2.3091,2.3091,0.0,2.3091,2.3091,2.3091,2.3091,2.1933,2.0522,1.891,1.8095,1.7271,1.6433,1.6015,1.5784,1.5784,1.5784,1.5784,1.5784,1.5784,1.5784,1.5784,1.5784,1.5784,1.5784,1.5784,1.5784,1.5784,1.5784,1.5784,1.5784,0.0,0.0,0.0,0.0,0.0,0.0,0.0,0.0,0.0,0.0,0.0,0.0,0.0,0.0,0.0,1.2261,1.0464,0.9744,1.0677,0.9053,0.0,0.0,0.0,0.0,0.0,0.0,0.0,0.0,0.0,0.0,0.0,0.0,1.4062,1.4062,1.4068,1.4678,1.5805,1.6838,1.7948,1.9076,0.0,2.0605,2.0605,0.0,0.0,0.0,2.1094,2.121,0.0,2.121,0.0,0.0,0.0,0.0,0.0,0.0,0.0,0.0,0.0,0.0,0.0,0.0,2.3091,0.0,2.3091,0.0,2.3091,2.3091,2.3091,2.3091,2.3091,2.3091,2.3091,2.3091,2.3091,2.3091,2.3091,2.3091,2.3091,2.3091,2.3091,2.3091,2.3091,2.3091,2.3091,2.3091,2.3091,2.3091,2.3091,2.3091,2.3091,2.3091,2.1978,2.1337,2.1293,1.8956,1.7731,1.7692,1.6433,1.5784,1.5784,1.5784,1.5784,1.5784,1.5784,1.5784,1.5784,1.5784,1.5784,1.5784,1.5784,1.5784,1.5784,1.5784,1.5784,1.5784,0.0,0.0,0.0,0.0,0.0,0.0,0.0,0.0,0.0,0.0,0.0,0.0,0.0,0.0,1.1996,1.1279,1.0714,1.019,0.9744,0.9238,0.9106,0.9487,0.0,0.0,0.0,0.0,0.0,0.0,0.0,0.0,0.0,0.0,0.0,0.0,1.3633,1.4792,1.6588,1.7097,0.0,1.9076,2.0167,2.0605,0.0,0.0,0.0,0.0,0.0,2.1709,2.1709,0.0,2.1709,2.1689,0.0,0.0,0.0,0.0,0.0,0.0,2.2867,0.0,0.0,0.0,0.0,0.0,2.3091,2.3091,2.3091,2.3091,2.3091,2.3091,2.3091,2.3091,2.3091,2.3091,2.3091,2.3091,2.3091,2.3091,2.3091,2.3091,2.3091,2.3091,2.3091,2.3091,2.3091,0.0,2.3091,2.3091,2.3091,2.3091,2.3091,2.3091,2.2775,2.2173,2.1293,1.9761,1.8549,1.7692,1.6433,1.5784,1.5784,1.5784,1.5784,1.5784,1.5784,1.5784,1.5784,1.5784,1.5784,1.5784,1.5784,1.5784,1.5784,1.5784,1.5784,1.5784,0.0,0.0,0.0,0.0,0.0,0.0,0.0,0.0,0.0,0.0,0.0,0.0,0.0,0.0,1.207,1.1465,1.105,1.0714,1.0571,1.0158,1.0143,1.0663,0.0,0.0,0.0,0.0,0.0,0.0,0.0,0.0,0.0,0.0,0.0,0.0,0.0,0.0,0.0,0.0,0.0,0.0,2.0362,0.0,0.0,2.1064,2.119,0.0,0.0,0.0,2.2148,2.2148,2.2031,0.0,0.0,0.0,0.0,0.0,0.0,0.0,0.0,0.0,0.0,2.3091,0.0,0.0,2.3091,2.3091,2.3091,2.3091,2.3091,2.3091,2.3091,2.3091,2.3091,2.3091,2.3091,2.3091,2.3091,2.3091,2.3091,2.3091,2.3091,2.3091,2.3091,2.3091,2.3091,2.3091,2.3091,2.3091,2.3091,2.3091,2.3091,2.3091,2.3091,2.2765,2.2076,2.0845,1.9633,1.8457,1.7171,1.6292,1.5784,1.5784,1.5784,1.5784,1.5784,1.5784,1.5784,1.5784,1.5784,1.5784,1.5784,1.5784,1.5784,1.5784,1.5784,1.5784,0.0,0.0,0.0,0.0,0.0,0.0,0.0,0.0,0.0,0.0,0.0,0.0,0.0,0.0,0.0,0.0,1.1465,1.1354,1.2224,1.1465,0.0,0.0,0.0,0.0,0.0,0.0,0.0,0.0,0.0,0.0,0.0,0.0,0.0,0.0,0.0,0.0,0.0,0.0,0.0,2.0605,2.0605,2.0635,0.0,0.0,2.1298,2.1444,2.2295,2.2578,2.2578,2.2578,2.2334,0.0,0.0,0.0,0.0,0.0,2.2549,0.0,0.0,0.0,0.0,0.0,2.3091,0.0,2.3091,2.3091,2.3091,2.3091,2.3091,2.3091,2.3091,2.3091,2.3091,2.3091,2.3091,2.3091,2.3091,2.3091,2.3091,2.3091,2.3091,2.3091,2.3091,2.3091,2.3091,2.3091,2.3091,2.3091,2.3091,2.3091,2.3091,2.3091,2.3091,2.3091,2.3091,2.1889,2.0755,1.9679,1.8503,1.7217,1.6015,1.6015,1.592,1.5784,1.5784,1.5784,1.5784,1.5784,1.5784,1.5784,1.5784,1.5784,1.5784,1.5784,1.5784,1.5784,0.0,0.0,0.0,0.0,0.0,0.0,0.0,0.0,0.0,0.0,0.0,0.0,0.0,0.0,0.0,0.0,1.2114,1.2077,1.2298,1.2114,0.0,0.0,0.0,0.0,0.0,0.0,0.0,0.0,0.0,0.0,0.0,0.0,0.0,0.0,0.0,0.0,0.0,0.0,0.0,2.0605,2.0605,2.0781,2.1112,2.1592,2.1963,2.2334,2.2789,2.2974,2.2974,2.2974,2.2916,2.2847,0.0,0.0,0.0,2.2847,0.0,0.0,0.0,0.0,0.0,0.0,2.3091,0.0,2.3091,2.3091,2.3091,2.3091,2.3091,2.3091,2.3091,2.3091,2.3091,2.3091,2.3091,2.3091,2.3091,2.3091,2.3091,2.3091,2.3091,2.3091,2.3091,2.3091,2.3091,2.3091,2.3091,2.3091,2.3091,2.3091,2.3091,2.3091,2.3091,2.3091,2.3091,2.1889,2.1159,2.0935,1.9716,1.8495,1.7318,1.7318,1.6756,1.5784,1.5784,1.5784,1.5784,1.5784,1.5784,1.5784,1.5784,1.5784,1.5784,1.5784,1.5784,1.5784,0.0,0.0,0.0,0.0,0.0,0.0,0.0,0.0,0.0,0.0,0.0,0.0,0.0,0.0,0.0,0.0,0.0,0.0,0.0,0.0,0.0,0.0,0.0,0.0,0.0,0.0,0.0,0.0,0.0,0.0,0.0,0.0,0.0,0.0,0.0,0.0,0.0,0.0,1.9078,2.0605,2.0605,0.0,2.1239,2.1719,2.2148,2.2568,2.2945,2.3091,2.3091,2.3091,2.3091,0.0,2.3091,2.2955,2.2818,0.0,2.2945,2.2828,0.0,0.0,0.0,2.3091,0.0,0.0,0.0,2.3091,2.3091,2.3091,2.3091,2.3091,2.3091,2.3091,2.3091,2.3091,2.3091,2.3091,2.3091,2.3091,2.3091,2.3091,2.3091,2.3091,2.3091,2.3091,2.3091,2.3091,2.3091,2.3091,2.3091,2.3091,2.3091,2.3091,2.3091,2.3091,2.3091,2.2492,2.1898,2.1293,2.0711,1.9443,1.7692,1.7692,1.699,1.5784,1.5784,1.5784,1.5784,1.5784,1.5784,1.5784,1.5784,1.5784,1.5784,1.5784,1.5784,1.5784,1.2305,0.0,0.0,0.0,0.0,0.0,0.0,0.0,0.0,0.0,0.0,0.0,0.0,0.0,0.0,0.0,0.0,0.0,0.0,0.0,0.0,0.0,0.0,1.2305,0.0,0.0,0.0,0.0,0.0,0.0,0.0,0.0,0.0,0.0,0.0,0.0,0.0,0.0,0.0,2.0605,0.0,2.0889,2.1356,2.1748,2.2197,2.2676,2.2974,2.3091,2.3091,2.3091,2.3091,2.3091,2.3091,2.3091,0.0,0.0,0.0,0.0,0.0,0.0,0.0,0.0,0.0,2.3091,0.0,0.0,0.0,2.3091,0.0,0.0,0.0,0.0,0.0,0.0,0.0,0.0,0.0,2.3042,0.0,2.3091,2.3091,2.3091,2.3091,2.3091,2.3091,2.3091,2.3091,2.3091,2.3091,2.3091,2.3091,2.3091,2.3091,2.3091,2.3091,2.3091,2.2633,2.1667,2.1667,2.0486,1.8365,1.8141,1.7358,1.6157,1.6157,1.6015,1.5825,1.6062,1.6015,1.5784,1.5784,1.5784,1.5784,1.5784,1.5792,1.5698,1.2305,1.2305,0.0,0.0,0.0,0.0,0.0,0.0,0.0,0.0,0.0,0.0,0.0,0.0,0.0,0.0,0.0,0.0,1.2305,0.0,0.0,0.0,0.0,0.0,1.2305,0.0,0.0,0.0,0.0,0.0,0.0,0.0,0.0,0.0,1.4199,0.0,0.0,0.0,1.9701,0.0,2.0605,2.1104,0.0,2.1865,2.2373,2.3033,2.3081,2.3091,2.3091,0.0,2.3091,2.3091,0.0,2.3091,2.3091,2.3091,0.0,0.0,0.0,0.0,0.0,0.0,2.3091,0.0,2.3091,0.0,2.3091,2.3091,0.0,2.3091,0.0,0.0,0.0,0.0,0.0,0.0,2.2637,2.2867,2.3091,2.3091,2.3091,2.3091,2.3091,2.3091,2.3091,2.3091,2.3091,2.3091,2.3091,2.3091,2.3091,2.3091,2.3091,2.3091,2.3091,2.3091,2.3047,2.2906,2.2906,2.2173,2.0845,1.9761,1.8634,1.7505,1.7505,1.685,1.5872,1.7037,1.6803,1.5784,1.5784,1.5784,1.5784,1.5784,1.5665,1.5444,1.2305,1.2305,0.0,0.0,0.0,0.0,0.0,0.0,0.0,0.0,0.0,0.0,0.0,0.0,0.0,0.0,0.0,1.2305,0.0,0.0,0.0,0.0,0.0,0.0,0.0,0.0,0.0,0.0,1.2305,0.0,0.0,0.0,0.0,0.0,1.4343,0.0,1.6523,0.0,1.9822,0.0,0.0,0.0,0.0,2.1885,2.2412,2.3091,2.3091,2.3091,2.3091,0.0,2.3091,0.0,0.0,0.0,0.0,2.3091,0.0,0.0,0.0,0.0,0.0,0.0,0.0,0.0,2.3091,0.0,2.3091,0.0,0.0,0.0,0.0,0.0,0.0,0.0,2.2461,0.0,0.0,0.0,2.2818,0.0,0.0,0.0,2.3091,2.3091,2.3091,2.3091,2.3091,2.3091,2.3091,2.3091,2.3091,2.3091,2.3091,2.3091,2.3091,2.3091,2.3091,2.3091,2.3091,2.2492,2.1293,2.08,1.9898,1.8726,1.8726,1.8449,1.7987,1.8542,1.8286,1.7462,1.688,1.6156,1.5578,1.5578,1.5391,1.5189,1.2305,0.0,0.0,0.0,0.0,0.0,0.0,0.0,0.0,0.0,0.0,0.0,1.2552,1.2552,0.0,0.0,1.2552,1.2512,0.0,0.0,1.2385,0.0,0.0,0.0,0.0,0.0,0.0,0.0,0.0,0.0,0.0,0.0,0.0,0.0,0.0,1.576,1.6531,0.0,1.9893,2.0644,2.1055,2.1562,2.207,2.2187,2.2607,2.3091,2.3091,2.3091,2.3091,2.3091,2.3091,0.0,2.3091,0.0,2.3091,0.0,0.0,0.0,2.3091,0.0,0.0,0.0,0.0,0.0,0.0,0.0,0.0,0.0,0.0,0.0,0.0,0.0,0.0,0.0,0.0,2.1846,0.0,2.207,0.0,0.0,0.0,0.0,0.0,2.3091,2.3091,2.3091,2.3091,2.3091,2.3091,2.3091,2.3091,2.3091,2.3091,2.3091,2.3091,2.3091,2.3091,2.3091,2.3091,2.2633,2.18,2.1426,2.08,1.9988,1.9988,1.9807,1.9534,1.9743,1.9407,1.8669,1.7504,1.6451,1.5558,1.5381,1.509,1.4843,1.2305,1.2305,0.0,0.0,0.0,0.0,0.0,0.0,0.0,0.0,0.0,0.0,0.0,0.0,0.0,0.0,0.0,1.3053,1.279,0.0,1.2643,0.0,0.0,1.2305,0.0,0.0,0.0,0.0,0.0,0.0,0.0,0.0,0.0,0.0,1.4752,1.603,1.6548,1.8892,2.0156,2.0644,2.1055,2.1697,2.2539,0.0,2.3071,2.3091,2.3091,0.0,0.0,2.3091,2.3091,0.0,0.0,0.0,0.0,0.0,0.0,0.0,0.0,0.0,0.0,2.3091,0.0,0.0,0.0,0.0,2.3091,0.0,0.0,0.0,0.0,0.0,0.0,0.0,0.0,0.0,0.0,0.0,0.0,0.0,0.0,0.0,0.0,2.3091,2.3091,2.3091,2.3091,2.3091,2.3091,2.3091,2.3091,2.3091,2.3091,2.3091,2.3091,2.3091,2.3091,2.3091,2.3091,2.3091,2.3003,2.1845,2.1293,2.1248,2.1248,2.0576,1.9555,2.036,1.993,1.8645,1.7207,1.6409,1.5999,1.5301,1.479,1.4536,0.0,0.0,0.0,0.0,0.0,0.0,0.0,1.2723,0.0,0.0,1.3146,0.0,0.0,1.3213,1.3213,0.0,0.0,1.3166,1.306,1.3053,0.0,0.0,0.0,1.2543,0.0,0.0,0.0,0.0,0.0,0.0,0.0,0.0,0.0,0.0,0.0,1.6038,0.0,0.0,0.0,0.0,0.0,2.2168,2.2896,0.0,2.3091,2.3091,2.3091,2.3091,0.0,2.3091,2.3091,2.3091,2.3091,2.3091,2.3091,2.3091,2.3091,0.0,0.0,0.0,2.3256,2.4049,0.0,0.0,0.0,0.0,0.0,0.0,0.0,0.0,0.0,0.0,0.0,0.0,0.0,0.0,0.0,0.0,2.1621,2.2041,0.0,0.0,0.0,0.0,2.2682,2.2682,2.2935,2.3091,2.3091,2.3091,2.3091,2.3091,2.3091,2.3091,2.3091,2.3091,2.3091,2.3091,2.3091,2.3091,2.3101,2.2677,2.2492,2.2492,2.2492,2.2271,2.1871,2.1872,2.1499,2.0692,1.9174,1.837,1.7762,1.549,1.4489,1.4235,1.2305,0.0,0.0,0.0,0.0,0.0,0.0,0.0,0.0,0.0,1.346,0.0,1.352,0.0,1.352,0.0,1.352,1.3474,1.3333,1.3327,0.0,1.2965,1.2844,1.2697,0.0,0.0,0.0,0.0,0.0,1.2305,0.0,0.0,0.0,0.0,0.0,1.623,1.675,1.9126,2.04,0.0,0.0,2.2519,0.0,0.0,2.3091,2.3091,0.0,2.3091,2.3091,2.3091,2.3091,2.3091,2.3091,2.3387,2.3714,2.3714,2.3973,2.4478,2.5221,2.4893,0.0,2.521,2.4553,0.0,2.3714,0.0,2.3091,0.0,0.0,0.0,0.0,0.0,0.0,0.0,0.0,0.0,0.0,2.081,2.1103,2.1387,2.1699,2.1885,0.0,2.2129,2.2353,2.25,2.2721,2.2935,2.3091,2.3091,2.3091,2.3091,2.3091,2.3091,2.3091,2.3091,2.3091,2.3091,2.3091,2.3091,2.3091,2.3091,2.3091,2.3091,2.3091,2.3013,2.2838,2.2461,2.2041,2.1479,1.9987,1.9223,1.8665,1.5943,1.4576,1.4088,1.2345,1.2345,0.0,0.0,1.263,0.0,0.0,0.0,1.3606,0.0,1.3915,1.4088,1.4088,1.4088,1.4088,1.4088,1.4088,1.3968,1.3646,1.3626,0.0,0.0,1.2991,1.2824,1.2811,0.0,0.0,0.0,0.0,0.0,0.0,0.0,0.0,0.0,1.5307,0.0,1.7072,1.9539,2.084,2.1298,2.2178,2.2721,2.3091,2.3091,2.3091,2.3091,2.3091,2.3091,2.3091,2.3091,2.3091,2.3091,2.3091,2.3877,2.4787,2.4787,2.5588,2.6513,2.6554,2.6565,2.6513,2.6565,2.5714,0.0,0.0,0.0,2.3178,0.0,0.0,0.0,0.0,0.0,0.0,0.0,0.0,0.0,0.0,0.0,2.0605,2.0605,2.1349,2.1826,2.1826,2.1836,2.2021,2.2422,2.249,2.2685,0.0,2.3081,2.3091,2.3091,2.3091,2.3091,2.3091,2.3091,2.3091,2.3091,2.3091,2.3091,2.3091,2.3091,2.3091,2.3091,2.3091,2.2857,2.248,2.206,2.1631,2.1071,1.9647,1.9045,1.8709,1.6511,1.5054,1.4166,1.2979,1.2979,1.3046,0.0,1.3186,1.3193,0.0,0.0,0.0,0.0,1.4041,1.4088,1.4088,1.4088,1.4088,1.4088,1.4088,0.0,0.0,0.0,0.0,1.3507,1.3413,1.3313,1.3093,1.2831,1.267,1.267,0.0,0.0,1.2305,0.0,0.0,0.0,0.0,0.0,1.7072,1.9539,2.1006,2.1768,2.2295,2.2721,2.3091,0.0,2.3091,2.3091,2.3091,2.3091,2.3091,2.3091,2.3091,2.3091,2.3091,2.3877,2.4787,2.4787,2.5588,2.6678,2.7481,2.7128,2.6678,2.7493,2.6871,2.6058,0.0,0.0,0.0,0.0,0.0,0.0,0.0,0.0,0.0,0.0,0.0,0.0,0.0,0.0,0.0,2.0605,2.0811,2.0938,2.0938,2.1201,2.1405,2.1512,2.2107,2.2559,2.2666,0.0,2.3091,2.3091,2.3091,2.3091,2.3091,2.3091,2.3091,2.3091,2.3091,2.3091,2.3091,2.3091,2.3091,2.3091,2.3091,2.2857,2.248,2.206,2.1631,2.1151,2.0458,1.9678,1.8709,1.6511,1.5538,1.5179,1.3213,1.3273,0.0,1.3573,0.0,0.0,1.3814,1.3834,0.0,1.4068,1.4202,0.0,1.4275,1.4275,1.4275,1.4275,1.4162,0.0,1.4088,0.0,0.0,1.3841,1.3673,1.3527,1.336,1.3106,0.0,1.2784,0.0,0.0,1.2305,0.0,0.0,0.0,0.0,1.6782,1.7252,2.0008,2.1435,2.1934,2.2539,2.2886,0.0,2.3091,2.3091,2.3091,2.3091,2.3091,2.3091,2.3091,2.3091,2.3178,2.3681,2.4628,2.563,2.6119,2.7035,2.8091,2.8688,2.841,2.8091,2.8688,2.8028,2.7209,2.7209,2.6337,2.5546,0.0,2.4638,2.3763,0.0,0.0,0.0,0.0,0.0,0.0,0.0,0.0,0.0,0.0,2.0605,2.0605,2.0605,2.0791,2.1025,2.1181,2.1639,2.2119,0.0,0.0,2.2906,2.3091,2.3091,2.3091,2.3091,2.3091,2.3091,2.3091,2.3091,2.3091,2.3091,2.3091,2.3091,2.3091,2.3091,2.275,2.2217,2.1982,2.1514,2.0918,2.0703,2.0235,1.9481,1.777,1.6838,1.6239,1.3327,1.3527,0.0,0.0,0.0,0.0,0.0,1.4142,0.0,1.4142,0.0,1.4583,1.4583,1.4583,1.4583,1.4583,0.0,1.4142,1.4142,1.4108,1.4088,1.4088,1.3841,1.366,1.366,1.3373,1.3133,0.0,0.0,0.0,0.0,0.0,0.0,0.0,0.0,0.0,0.0,2.0737,2.1924,2.2031,2.2779,2.3091,2.3091,2.3091,2.3091,2.3091,2.3091,2.3091,2.3091,2.3091,2.3222,2.3507,2.45,2.5672,2.6883,2.7815,2.8897,2.9792,2.9792,2.9792,2.9792,2.9792,2.9067,2.8307,2.8307,2.7493,2.6719,2.6719,2.5797,2.4957,0.0,0.0,0.0,0.0,0.0,0.0,0.0,0.0,0.0,0.0,0.0,0.0,2.0605,2.0605,2.0723,2.1123,2.1161,2.1522,0.0,0.0,2.2676,2.3003,2.3062,2.3091,2.3091,2.3091,2.3091,2.3091,2.3091,2.3091,2.3091,2.3091,2.3091,2.3091,2.3091,2.2652,2.1963,2.1904,2.1407,2.0605,2.0605,2.0605,2.0489,1.9559,1.859,1.7577,1.3935,0.0,0.0,0.0,0.0,1.4442,1.4442,1.4442,1.4442,1.4442,1.4703,1.4928,1.4928,1.4928,1.4928,1.4928,1.4616,0.0,0.0,0.0,0.0,1.4088,1.4035,1.4008,1.4008,1.3721,1.35,0.0,0.0,0.0,0.0,0.0,0.0,0.0,0.0,0.0,2.0571,2.1496,0.0,2.2441,2.2896,2.3091,2.3091,2.3091,2.3091,2.3091,2.3091,2.3091,2.3091,2.3091,2.3714,2.4542,2.4745,2.6191,2.7844,2.8044,2.8897,2.9792,2.9792,2.9792,2.9792,2.9792,2.9663,2.9495,2.9495,2.8648,2.7804,2.7804,2.6953,2.5922,2.4957,0.0,0.0,0.0,0.0,0.0,0.0,0.0,0.0,0.0,0.0,2.0605,0.0,2.0605,2.0635,2.0713,2.1025,2.1259,0.0,0.0,2.2549,0.0,2.2916,0.0,0.0,0.0,2.3091,2.3091,2.3091,2.3091,2.3091,2.3091,2.3091,2.3091,2.3091,2.2818,2.2373,2.2031,2.1407,2.0605,2.0605,2.0605,2.0566,2.0401,2.0196,1.9717,1.4282,0.0,0.0,0.0,0.0,0.0,0.0,1.4877,1.4923,1.477,1.5003,1.519,1.519,1.519,1.519,1.519,1.4923,1.4689,1.4529,1.4389,1.4249,1.4095,1.4088,1.4088,1.4088,1.3948,1.376,1.36,0.0,0.0,0.0,0.0,0.0,0.0,0.0,1.8336,0.0,0.0,0.0,2.2549,2.2925,2.3091,2.3091,2.3091,2.3091,2.3091,2.3091,2.3091,2.3091,2.3091,2.3844,2.4914,2.5504,2.6778,2.8215,2.8806,2.9365,2.9792,2.9792,2.9792,2.9792,2.9792,2.9792,2.9792,2.9792,2.9365,2.8976,2.8976,2.8108,2.6994,2.588,2.4696,0.0,0.0,0.0,0.0,0.0,0.0,2.0605,0.0,0.0,0.0,0.0,0.0,0.0,0.0,0.0,0.0,0.0,0.0,2.2009,0.0,0.0,0.0,2.3091,0.0,2.3091,2.3091,2.3091,2.3091,2.3091,2.3091,2.3091,2.3091,2.3091,2.2857,2.2461,2.1816,2.1162,2.0605,2.0605,2.0605,2.0605,2.0605,2.0605,2.0362,0.0,1.4616,0.0,0.0,1.5062,1.5102,1.5102,1.5304,1.5384,1.5142,1.5311,1.5491,1.5491,1.5491,1.5491,1.5491,1.5224,1.493,1.4636,1.4556,1.4389,1.4102,1.4088,1.4088,1.4088,1.4088,1.3975,0.0,0.0,0.0,0.0,0.0,0.0,0.0,0.0,0.0,0.0,0.0,2.2178,2.2676,2.2964,2.3091,2.3091,2.3091,2.3091,2.3091,2.3091,2.3091,2.3091,2.3091,2.3844,2.4999,2.6141,2.725,2.8307,2.9456,2.9792,2.9792,2.9792,2.9792,2.9792,2.9792,2.9792,2.9792,2.9792,2.9792,2.9792,2.9792,2.8897,2.7936,2.7302,2.6433,0.0,0.0,0.0,0.0,0.0,0.0,0.0,0.0,0.0,0.0,2.0895,0.0,0.0,0.0,0.0,0.0,2.1074,0.0,0.0,0.0,0.0,2.2672,2.3091,0.0,2.3091,2.3091,2.3091,2.3091,2.3091,2.3091,2.3091,2.3091,2.3091,2.2857,2.2451,2.1689,2.1113,2.0742,2.0644,2.0605,2.0605,2.0605,2.0605,2.0479,0.0,0.0,0.0,0.0,0.0,1.5357,1.5357,1.5605,1.5685,1.5391,1.5611,1.5744,1.5744,1.5744,1.5744,1.5744,1.5524,1.5237,1.4988,1.4669,1.4389,1.4102,1.4088,1.4088,1.4088,1.4088,1.4075,0.0,0.0,1.3895,0.0,0.0,0.0,0.0,0.0,0.0,0.0,2.1381,2.2344,2.3042,2.3081,2.3091,2.3091,2.3091,2.3091,2.3091,2.3091,2.3091,2.3091,2.3091,2.3844,2.4999,2.6141,2.725,2.8307,2.9456,2.9792,2.9792,2.9792,2.9792,2.9792,2.9792,2.9792,2.9792,2.9792,2.9792,2.9792,2.9792,2.8897,2.8386,2.9326,2.7455,2.612,0.0,0.0,0.0,0.0,0.0,2.1886,2.1886,0.0,0.0,2.1773,2.1116,0.0,0.0,2.0605,0.0,0.0,0.0,0.0,2.1934,2.2314,2.2672,2.3091,2.3091,2.3091,2.3091,2.3091,2.3091,2.3091,2.3091,2.3091,2.3091,2.3091,2.2857,2.248,2.2012,2.1562,2.1093,2.0723,2.0605,2.0605,2.0605,2.0605,2.0605,0.0,0.0,0.0,0.0,0.0,0.0,0.0,1.5752,1.5738,1.5671,1.5711,1.5784,1.5784,1.5784,1.5784,1.5784,1.5678,1.5531,1.5244,1.495,1.4656,1.4362,1.4182,1.4088,1.4088,1.4088,1.4088,0.0,0.0,0.0,0.0,0.0,0.0,0.0,0.0,1.828,1.9366,2.1405,2.2607,2.3091,2.3091,2.3091,2.3091,2.3091,2.3091,2.3091,2.3091,2.3091,2.3091,2.3091,2.3844,2.4872,2.5336,2.6696,2.8176,2.8648,2.9275,2.9792,2.9792,2.9792,2.9792,2.9792,2.9792,2.9792,2.9792,2.9792,2.9792,2.9792,2.9443,2.9275,2.9702,2.8907,2.8237,2.8344,0.0,0.0,0.0,0.0,0.0,2.2888,0.0,2.1593,0.0,2.1155,0.0,0.0,0.0,0.0,0.0,0.0,0.0,2.1865,0.0,2.2461,2.3091,2.3091,2.3091,2.3091,2.3091,2.3091,2.3091,2.3091,2.3091,2.3091,2.3091,2.2857,2.25,2.2334,2.1855,2.1181,2.1035,2.0801,2.0605,2.0605,2.0605,2.0605,1.5484,0.0,1.5585,0.0,1.5784,1.5784,1.5784,1.5784,1.5784,1.5784,1.5784,1.5784,1.5784,1.5784,1.5784,1.5784,1.5784,1.5705,1.5418,1.5204,1.4923,1.4536,1.4322,0.0,1.4088,1.4088,1.4088,1.4088,1.4088,0.0,0.0,0.0,0.0,0.0,1.686,1.827,1.8892,2.1451,2.2711,2.3091,2.3091,2.3091,2.3091,2.3091,2.3091,2.3091,2.3091,2.3091,2.3091,2.3091,2.3627,2.4372,2.4702,2.5859,2.7267,2.7924,2.8688,2.9365,2.9702,2.9792,2.9792,2.9792,2.9792,2.9792,2.9792,2.9792,2.9792,2.9792,2.9792,2.9792,2.9792,2.9792,2.9666,2.9252,0.0,0.0,0.0,2.4968,0.0,2.395,2.2776,2.2103,2.2403,2.1336,0.0,0.0,0.0,0.0,0.0,0.0,0.0,0.0,0.0,0.0,2.3091,2.3091,2.3091,2.3091,2.3091,2.3091,2.3091,2.3091,2.3091,2.3091,2.3091,2.2925,2.2685,2.2568,2.2158,2.1541,2.1298,2.1045,2.0742,2.0654,2.0605,2.0605,1.5771,1.5778,1.5778,1.5784,1.5784,1.5784,1.5784,1.5784,1.5784,1.5784,1.5784,1.5784,1.5784,1.5784,1.5784,1.5784,1.5784,1.5705,1.5418,1.5391,1.513,0.0,0.0,1.4382,1.4095,1.4088,1.4088,1.4088,0.0,0.0,1.3606,0.0,1.3913,1.4596,1.6954,1.8411,1.9226,2.153,2.2711,2.3091,2.3091,2.3091,2.3091,2.3091,2.3091,2.3091,2.3091,2.3091,2.3091,2.3091,2.3091,2.3299,2.4457,2.483,2.5284,2.747,2.8124,2.8386,2.9495,2.9792,2.9792,2.9792,2.9792,2.9792,2.9792,2.9792,2.9792,2.9792,2.9792,2.9792,2.9792,2.9792,2.9792,2.9779,0.0,0.0,0.0,2.6137,0.0,2.5028,2.322,2.2403,2.3368,2.1707,0.0,0.0,0.0,0.0,0.0,0.0,0.0,2.1855,2.1885,0.0,2.3091,2.3091,2.3091,2.3091,2.3091,2.3091,2.3091,2.3091,2.3091,2.3091,2.3091,2.3091,2.3052,2.2643,2.251,2.2412,2.1522,2.119,2.1132,2.0772,2.0605,2.0605,1.5784,1.5784,1.5784,1.5784,1.5784,1.5784,1.5784,1.5784,1.5784,1.5784,1.5784,1.5784,1.5784,1.5784,1.5784,0.0,1.5784,1.5744,0.0,1.5504,1.5311,1.5124,1.493,1.4683,1.4389,1.4382,1.4282,1.4088,0.0,0.0,0.0,1.4148,1.4342,1.4623,1.749,1.8877,1.9287,2.183,2.2974,2.3091,2.3091,2.3091,2.3091,2.3091,2.3091,2.3091,2.3091,2.3091,2.3091,2.3091,2.3091,2.3178,2.3507,2.4168,2.5073,2.6584,2.7522,2.8347,2.9495,2.9792,2.9792,2.9792,2.9792,2.9792,2.9792,2.9792,2.9792,2.9792,2.9792,2.9792,2.9792,2.9792,2.9792,2.9792,2.9302,0.0,2.7742,0.0,2.6618,2.6087,2.485,2.4192,2.4492,2.2702,0.0,0.0,0.0,0.0,0.0,0.0,0.0,0.0,2.1885,0.0,2.3091,2.3091,2.3091,2.3091,2.3091,2.3091,2.3091,2.3091,2.3091,2.3091,2.3091,2.3091,2.3081,2.2955,2.2773,2.248,2.2207,2.1707,2.1181,2.1074,2.083,2.0605,1.5784,1.5784,1.5784,1.5784,1.5784,1.5784,1.5784,1.5784,1.5784,1.5784,1.5784,1.5784,1.5784,1.5784,0.0,1.5784,1.5784,1.5784,1.5784,1.5658,1.5511,1.5398,1.5224,1.499,1.4696,1.4689,0.0,1.4459,1.4459,1.4459,1.4422,1.4603,1.4743,1.4952,1.7302,1.8722,1.9399,2.1522,2.2677,2.3091,2.3091,2.3091,2.3091,2.3091,2.3091,2.3091,2.3091,2.3091,2.3091,2.3091,2.3091,2.3091,2.3091,2.3594,2.4382,2.5515,2.6625,2.7735,2.8858,2.9495,2.9792,2.9792,2.9792,2.9792,2.9792,2.9792,2.9792,2.9792,2.9792,2.9792,2.9792,2.9792,2.9792,2.9792,2.949,2.9051,2.8499,0.0,2.7394,0.0,0.0,0.0,0.0,2.3514,2.2403,0.0,0.0,0.0,0.0,0.0,0.0,2.1865,2.2041,2.2451,2.3091,2.3091,2.3091,2.3091,2.3091,2.3091,2.3091,2.3091,2.3091,2.3091,2.3091,2.3091,2.3091,2.3091,2.2945,2.2691,2.2578,2.2187,2.1658,2.1543,2.1299,2.1104,1.5784,1.5784,1.5784,0.0,1.5784,1.5784,1.5784,1.5784,1.5784,1.5784,1.5784,1.5784,1.5784,1.5784,1.5784,1.5784,0.0,0.0,1.5784,1.5784,1.5712,1.5438,1.5424,1.5291,1.5042,1.5035,1.5028,1.5008,1.5008,1.5008,1.5008,1.5028,1.5182,1.5444,1.6699,1.8092,1.9579,2.08,2.1987,2.3091,2.3091,2.3091,2.3091,2.3091,2.3091,2.3091,2.3091,2.3091,2.3091,2.3091,2.3091,2.3091,2.3091,2.3091,2.3343,2.4542,2.5672,2.676,2.7896,2.8976,2.9792,2.9792,2.9792,2.9792,2.9792,2.9792,2.9792,2.9792,2.9792,2.9792,2.9792,2.9792,2.9792,2.9792,2.9792,2.9591,2.8963,2.8448,2.7896,0.0,0.0,0.0,2.5111,2.4181,2.3184,0.0,0.0,0.0,0.0,0.0,2.1473,2.1914,2.2305,2.2672,2.3091,2.3091,2.3091,2.3091,2.3091,2.3091,2.3091,2.3091,2.3091,2.3091,2.3091,2.3091,2.3091,2.3091,2.3091,2.3052,2.2705,2.2539,2.2461,2.207,2.1904,2.1885,0.0,0.0,1.5784,1.5784,1.5784,1.5784,1.5784,1.5784,1.5784,1.5784,1.5784,1.5784,1.5784,1.5784,1.5784,1.5784,1.5784,1.5784,1.5784,1.5784,1.5751,1.5732,1.5732,1.5591,1.5297,1.5297,1.519,1.5008,1.5008,1.5008,1.5015,1.519,1.5331,1.545,1.6953,1.8287,1.9579,2.08,2.1987,2.3091,2.3091,2.3091,2.3091,2.3091,2.3091,2.3091,2.3091,2.3091,2.3091,2.3091,2.3091,2.3091,2.3091,2.3091,2.3474,2.5515,2.6307,2.6924,2.887,2.9573,2.9792,2.9792,2.9792,2.9792,2.9792,2.9792,2.9792,2.9792,2.9792,2.9792,2.9792,2.9792,2.9792,2.9792,2.9792,2.9591,2.8963,2.8448,2.7896,0.0,2.6617,2.6129,2.6129,2.5252,2.4228,0.0,0.0,0.0,2.1271,2.1814,2.2256,2.2353,2.2461,2.2672,2.3091,2.3091,2.3091,2.3091,2.3091,2.3091,2.3091,2.3091,2.3091,2.3091,2.3091,2.3091,2.3091,2.3091,2.3091,2.3081,2.2984,2.275,2.25,2.2402,2.2158,2.1885,1.5784,1.5784,1.5784,1.5784,1.5784,1.5784,1.5784,1.5784,1.5784,1.5784,1.5784,1.5784,1.5784,1.5784,1.5784,1.5784,1.5784,1.5784,1.5784,1.5784,1.5784,1.5784,1.5784,1.5711,1.5598,1.5591,1.5518,1.5357,1.5357,1.5357,1.5364,1.5518,1.5591,1.5598,1.6451,1.7809,1.9542,2.0215,2.1489,2.3091,2.3091,2.3091,2.3091,2.3091,2.3091,2.3091,2.3091,2.3091,2.3091,2.3091,2.3091,2.3091,2.3091,2.3091,2.343,2.5221,2.6099,2.6771,2.7971,2.904,2.9792,2.9792,2.9792,2.9792,2.9792,2.9792,2.9792,2.9792,2.9792,2.9792,2.9792,2.9792,2.9792,2.9792,2.9792,2.9679,2.9365,2.8837,2.8373,2.8072,2.7318,2.6964,2.7216,2.6508,2.5528,2.4288,2.3908,0.0,2.1848,2.2256,2.2755,2.3272,2.2942,2.3116,2.3877,2.3343,2.3091,2.3091,2.3091,2.3091,2.3091,2.3091,2.3091,2.3091,2.3091,2.3091,2.3091,2.3091,2.3091,2.3091,2.3091,2.2955,2.275,2.275,2.2656,2.2461,1.5784,1.5784,1.5784,1.5784,1.5784,1.5784,1.5784,1.5784,1.5784,1.5784,1.5784,1.5784,1.5784,1.5784,1.5784,1.5784,1.5784,1.5784,1.5784,1.5784,1.5784,1.5784,1.5784,1.5784,1.5784,1.5784,1.5784,1.5784,1.5784,1.5784,1.5784,1.5784,1.5784,1.5784,1.5784,1.707,1.9222,1.9405,2.0809,2.2862,2.3047,2.3091,2.3091,2.3091,2.3091,2.3091,2.3091,2.3091,2.3091,2.3091,2.3091,2.3091,2.3091,2.3091,2.3309,2.4253,2.5336,2.6307,2.6637,2.8251,2.9792,2.9792,2.9792,2.9792,2.9792,2.9792,2.9792,2.9792,2.9792,2.9792,2.9792,2.9792,2.9792,2.9792,2.9792,2.9792,2.9792,0.0,2.8888,2.8888,2.8034,2.7595,2.8059,2.7682,2.6797,2.5347,2.5138,2.4421,2.2852,2.2814,2.3374,2.451,2.3609,2.3551,2.4542,2.3594,2.3091,2.3091,2.3091,2.3091,2.3091,2.3091,2.3091,2.3091,2.3091,2.3091,2.3091,2.3091,2.3091,2.3091,2.3091,2.3091,2.3091,2.3091,2.3091,2.3091,1.5784,1.5784,1.5784,1.5784,1.5784,1.5784,1.5784,1.5784,1.5784,1.5784,1.5784,1.5784,1.5784,1.5784,1.5784,1.5784,1.5784,1.5784,1.5784,1.5784,1.5784,1.5784,1.5784,1.5784,1.5784,1.5784,1.5784,1.5784,1.5784,1.5784,1.5784,1.5784,1.5784,1.5784,1.5784,1.6615,1.8056,1.9093,2.0305,2.1667,2.2677,2.3091,2.3091,2.3091,2.3091,2.3091,2.3091,2.3091,2.3091,2.3091,2.3091,2.3091,2.3091,2.3091,2.3135,2.3299,2.4168,2.5452,2.7348,2.8819,2.9792,2.9792,2.9792,2.9792,2.9792,2.9792,2.9792,2.9792,2.9792,2.9792,2.9792,2.9792,2.9792,2.9792,2.9792,2.9792,2.9792,0.0,2.8888,2.8888,2.836,2.8009,2.8097,2.8034,2.7533,2.6439,2.5835,2.504,2.3991,2.4273,2.4977,2.6113,2.4147,2.3178,2.3343,2.3178,2.3091,2.3091,2.3091,2.3091,2.3091,2.3091,2.3091,2.3091,2.3091,2.3091,2.3091,2.3091,2.3091,2.3091,2.3091,2.3091,2.3091,2.3091,2.3091,2.3091,1.5784,1.5784,1.5784,1.5784,1.5784,1.5784,1.5784,1.5784,1.5784,1.5784,1.5784,1.5784,1.5784,1.5784,1.5784,1.5784,1.5784,1.5784,1.5784,1.5784,1.5784,1.5784,1.5784,1.5784,1.5784,1.5784,1.5784,1.5784,1.5784,1.5784,1.5784,1.5784,1.5784,1.5784,1.5784,1.6527,1.7777,1.9001,2.0215,2.1426,2.2633,2.3091,2.3091,2.3091,2.3091,2.3091,2.3091,2.3091,2.3091,2.3091,2.3091,2.3091,2.3091,2.3091,2.3091,2.3091,2.392,2.5284,2.751,2.8466,2.9028,2.9663,2.9792,2.9792,2.9792,2.9792,2.9792,2.9792,2.9792,2.9792,2.9792,2.9792,2.9792,2.9792,2.9792,0.0,2.9792,2.9566,2.939,2.939,2.89,2.8674,2.8976,2.8737,2.8225,2.7463,2.7112,2.6519,2.548,2.5594,2.6213,2.7331,2.5797,2.4638,2.4006,2.343,2.3091,2.3091,2.3091,2.3091,2.3091,2.3091,2.3091,2.3091,2.3091,2.3091,2.3091,2.3091,2.3091,2.3091,2.3091,2.3091,2.3091,2.3091,2.3091,2.3091,1.5784,1.5784,1.5784,1.5784,1.5784,1.5784,1.5784,1.5784,1.5784,1.5784,1.5784,1.5784,1.5784,1.5784,1.5784,1.5784,1.5784,1.5784,1.5784,1.5784,1.5784,1.5784,1.5784,1.5784,1.5784,1.5784,1.5784,1.5784,1.5784,1.5784,1.5784,1.5784,1.5784,1.5784,1.5784,1.6339,1.7365,1.8856,2.0034,2.1025,2.2492,2.3091,2.3091,2.3091,2.3091,2.3091,2.3091,2.3091,2.3091,2.3091,2.3091,2.3091,2.3091,2.3091,2.3091,2.3091,2.3714,2.483,2.6808,2.7711,2.8295,2.9197,2.9585,2.9792,2.9792,2.9792,2.9792,2.9792,2.9792,2.9792,2.9792,2.9792,2.9792,2.9792,0.0,2.9792,2.9792,2.9792,2.9792,2.9792,2.9402,2.9302,2.9754,2.939,2.8933,2.8521,2.8255,2.7723,2.6924,2.6883,2.7371,2.8478,2.7452,2.6337,2.521,2.4049,2.3637,2.3897,2.3637,2.3507,2.3507,2.3507,2.3343,2.3091,2.3091,2.3091,2.3091,2.3091,2.3091,2.3091,2.3091,2.3091,2.3091,2.3091,2.3091,2.3091,1.5784,1.5784,1.5784,1.5784,1.5784,1.5784,1.5784,1.5784,1.5784,1.5784,1.5784,1.5784,1.5784,1.5784,1.5784,1.5784,1.5784,1.5784,1.5784,1.5784,1.5784,1.5784,1.5784,1.5784,1.5784,1.5784,1.5784,1.5784,1.5784,1.5784,1.5784,1.5784,1.5784,1.5784,1.5784,1.5825,1.6109,1.8488,1.9534,1.9861,2.2183,2.3091,2.3091,2.3091,2.3091,2.3091,2.3091,2.3091,2.3091,2.3091,2.3091,2.3091,2.3091,2.3091,2.3091,2.3091,2.3178,2.3507,2.4702,2.6521,2.8136,2.8215,2.9028,2.9792,2.9792,2.9792,2.9792,2.9792,2.9792,2.9792,2.9792,2.9792,2.9792,2.9792,0.0,0.0,2.9792,2.9792,2.9792,2.9792,2.9754,2.9741,2.9792,2.9754,2.9703,2.9663,2.8688,2.8056,2.7976,2.7964,2.8518,2.9624,2.8557,2.7441,2.6389,2.5252,2.521,2.6235,2.5168,2.466,2.466,2.466,2.4092,2.3091,2.3091,2.3091,2.3091,2.3091,2.3091,2.3091,2.3091,2.3091,2.3091,2.3091,2.3091,2.3091,1.5784,1.5784,1.5784,1.5784,1.5784,1.5784,1.5784,1.5784,1.5784,1.5784,1.5784,1.5784,1.5784,1.5784,1.5784,1.5784,1.5784,1.5784,1.5784,1.5784,1.5784,1.5784,1.5784,1.5784,1.5784,1.5784,1.5784,1.5784,1.5784,1.5784,1.5784,1.5784,1.5784,1.5784,1.5784,1.5784,1.5967,1.8442,1.9497,1.9724,2.2138,2.3091,2.3091,2.3091,2.3091,2.3091,2.3091,2.3091,2.3091,2.3091,2.3091,2.3091,2.3091,2.3091,2.3091,2.3091,2.3091,2.3178,2.3637,2.4872,2.6397,2.7763,2.8426,2.8937,2.9624,2.9792,2.9792,2.9792,2.9792,2.9792,2.9792,2.9792,2.9792,2.9792,0.0,2.9792,2.9792,2.9792,2.9792,2.9792,2.9792,2.9792,2.9792,2.9792,2.9792,2.9792,2.9404,2.9157,2.9157,2.9157,2.9365,2.9792,2.9365,2.8609,2.7481,2.6419,2.6058,2.6472,2.6058,2.5839,2.5839,2.5839,2.521,2.4168,2.4168,2.3757,2.3135,2.3877,2.4168,2.4168,2.4168,2.4168,2.4092,2.3343,2.3091,2.3091,1.5784,1.5784,1.5784,1.5784,1.5784,1.5784,1.5784,1.5784,1.5784,1.5784,1.5784,1.5784,1.5784,1.5784,1.5784,1.5784,1.5784,1.5784,1.5784,1.5784,1.5784,1.5784,1.5784,1.5784,1.5784,1.5784,1.5784,1.5784,1.5784,1.5784,1.5784,1.5784,1.5784,1.5784,1.5784,1.5784,1.592,1.8033,1.9131,1.9679,2.1721,2.2765,2.3091,2.3091,2.3091,2.3091,2.3091,2.3091,2.3091,2.3091,2.3091,2.3091,2.3091,2.3091,2.3091,2.3091,2.3091,2.3091,2.3091,2.3681,2.4702,2.6603,2.7591,2.8307,2.9106,2.9534,2.9792,2.9792,2.9792,2.9792,2.9792,2.9792,2.9792,2.9792,2.9792,2.9792,2.9792,2.9792,2.9792,2.9792,2.9792,2.9792,2.9792,2.9792,2.9792,2.9792,2.9792,2.9792,2.9792,2.9792,2.9792,2.9792,2.9792,2.9404,2.8636,2.7533,2.7168,2.7516,2.7168,2.7005,2.7005,2.7005,2.6213,2.483,2.5168,2.467,2.3714,2.4882,2.5336,2.5336,2.5336,2.5336,2.521,2.4049,2.3627,2.3594,1.5784,1.5784,1.5784,1.5784,1.5784,1.5784,1.5784,1.5784,1.5784,1.5784,1.5784,1.5784,1.5784,1.5784,1.5784,1.5784,1.5784,1.5784,1.5784,1.5784,1.5784,1.5784,1.5784,1.5784,1.5784,1.5784,1.5784,1.5784,1.5784,1.5784,1.5784,1.5784,1.5784,1.5784,1.5784,1.5784,1.5872,1.7178,1.8411,1.9579,2.08,2.2031,2.3101,2.3091,2.3091,2.3091,2.3091,2.3091,2.3091,2.3091,2.3091,2.3091,2.3091,2.3091,2.3091,2.3091,2.3091,2.3091,2.3091,2.3091,2.3387,2.45,2.6438,2.8084,2.8096,2.8976,2.9792,2.9792,2.9792,2.9792,2.9792,2.9792,2.9792,2.9792,2.9792,2.9792,2.9792,2.9792,2.9792,2.9792,2.9792,2.9792,2.9792,2.9792,2.9792,2.9792,2.9792,2.9792,2.9792,2.9792,2.9792,2.9792,2.9792,2.9792,2.9792,2.8688,2.8676,2.9792,2.8636,2.8124,2.8124,2.8124,2.6889,2.4872,2.6016,2.5891,2.4914,2.6047,2.6513,2.6513,2.6513,2.6513,2.6348,2.521,2.483,2.467,1.5784,1.5784,1.5784,1.5784,1.5784,1.5784,1.5784,1.5784,1.5784,1.5784,1.5784,1.5784,1.5784,1.5784,1.5784,1.5784,1.5784,1.5784,1.5784,1.5784,1.5784,1.5784,1.5784,1.5784,1.5784,1.5784,1.5784,1.5784,1.5784,1.5784,1.5784,1.5784,1.5784,1.5784,1.5784,1.5784,1.5872,1.7178,1.7917,1.8411,2.0486,2.1525,2.1933,2.2775,2.3091,2.3091,2.3091,2.3091,2.3091,2.3091,2.3091,2.3091,2.3091,2.3091,2.3091,2.3091,2.3091,2.3091,2.3091,2.3091,2.3387,2.45,2.5284,2.6191,2.7763,2.8347,2.8819,2.9624,2.9792,2.9792,2.9792,2.9792,2.9792,2.9792,2.9792,2.9792,2.9792,2.9792,2.9792,2.9792,2.9792,2.9792,2.9792,2.9792,2.9792,2.9792,2.9792,2.9792,2.9792,2.9792,2.9792,2.9792,2.9792,2.9792,2.9792,2.9456,2.9456,2.9792,2.9456,2.9275,2.9275,2.9275,2.8478,2.7134,2.7481,2.6994,2.6099,2.7157,2.7602,2.7602,2.7602,2.7602,2.7481,2.6378,2.5975,2.5922,1.5784,1.5784,1.5784,1.5784,1.5784,1.5784,1.5784,1.5784,1.5784,1.5784,1.5784,1.5784,1.5784,1.5784,1.5784,1.5784,1.5784,1.5784,1.5784,1.5784,1.5784,1.5784,1.5784,1.5784,1.5784,1.5784,1.5784,1.5784,1.5784,1.5784,1.5784,1.5784,1.5784,1.5784,1.5784,1.5784,1.5825,1.6615,1.7225,1.7824,1.9268,2.044,2.1382,2.212,2.2677,2.3091,2.3091,2.3091,2.3091,2.3091,2.3091,2.3091,2.3091,2.3091,2.3091,2.3091,2.3091,2.3091,2.3091,2.3091,2.3256,2.3963,2.4457,2.5157,2.6479,2.7145,2.7654,2.8331,2.8831,2.9118,2.9118,2.9495,2.9792,2.9792,2.9792,2.9792,2.9792,2.9792,2.9792,2.9792,2.9792,2.9792,2.9792,2.9792,2.9792,2.9792,2.9792,2.9792,2.9792,2.9792,2.9792,2.9792,2.9792,2.9792,2.9792,2.9792,2.9792,2.9792,2.9792,2.9792,2.9792,2.9792,2.9197,2.8136,2.8597,2.8148,2.7209,2.8319,2.8767,2.8767,2.8767,2.8767,2.8648,2.7533,2.7128,2.7087,1.5872,1.5824,1.5858,1.5832,1.5784,1.5784,1.5784,1.5784,1.5784,1.5784,1.5784,1.5784,1.5784,1.5784,1.5784,1.5784,1.5784,1.5784,1.5784,1.5784,1.5784,1.5784,1.5784,1.5784,1.5784,1.5784,1.5784,1.5784,1.5784,1.5784,1.5784,1.5784,1.5784,1.5784,1.5784,1.5784,1.5784,1.5784,1.648,1.7552,1.7645,1.9085,2.1159,2.1248,2.2031,2.3091,2.3091,2.3091,2.3091,2.3091,2.3091,2.3091,2.3091,2.3091,2.3091,2.3091,2.3091,2.3091,2.3091,2.3091,2.3091,2.3091,2.3877,2.466,2.4787,2.5588,2.6389,2.6472,2.736,2.8096,2.8096,2.9028,2.9792,2.9792,2.9792,2.9792,2.9792,2.9792,2.9792,2.9792,2.9792,2.9792,2.9792,2.9792,2.9792,2.9792,2.9792,2.9792,2.9792,2.9792,2.9792,2.9792,2.9792,2.9792,2.9792,2.9792,2.9792,2.9792,2.9792,2.9792,2.9792,2.9792,2.9236,2.8295,2.9365,2.9197,2.8347,2.9365,2.9792,2.9792,2.9792,2.9792,2.9663,2.8636,2.8255,2.8096,1.6219,1.6179,1.6106,1.5872,1.5784,1.5784,1.5784,1.5784,1.5784,1.5784,1.5784,1.5784,1.5784,1.5784,1.5784,1.5784,1.5784,1.5784,1.5784,1.5784,1.5784,1.5784,1.5784,1.5784,1.5784,1.5784,1.5784,1.5784,1.5784,1.5784,1.5784,1.5784,1.5784,1.5784,1.5784,1.5784,1.5784,1.5784,1.5967,1.6292,1.7318,1.8596,1.9988,2.0935,2.2031,2.3091,2.3091,2.3091,2.3091,2.3091,2.3091,2.3091,2.3091,2.3091,2.3091,2.3091,2.3091,2.3091,2.3091,2.3091,2.3091,2.3091,2.3309,2.3714,2.4585,2.4999,2.542,2.6307,2.736,2.8096,2.8096,2.9028,2.9792,2.9792,2.9792,2.9792,2.9792,2.9792,2.9792,2.9792,2.9792,2.9792,2.9792,2.9792,2.9792,2.9792,2.9792,2.9792,2.9792,2.9792,2.9792,2.9792,2.9792,2.9792,2.9792,2.9792,2.9792,2.9792,2.9792,2.9792,2.9792,2.9792,2.9663,2.9456,2.9702,2.9663,2.9456,2.9714,2.9792,2.9792,2.9792,2.9792,2.9753,2.9534,2.9443,2.9404,1.6513,1.648,1.6433,1.6273,1.6246,1.6246,1.6246,1.6246,1.6246,1.6246,1.6246,1.6246,1.6246,1.6246,1.6192,1.6052,1.6039,1.5979,1.5791,1.5784,1.5784,1.5784,1.5784,1.5784,1.5784,1.5784,1.5784,1.5784,1.5784,1.5784,1.5784,1.5784,1.5784,1.5784,1.5784,1.5784,1.5784,1.5784,1.5784,1.5879,1.6527,1.7902,1.9588,2.0215,2.1534,2.3091,2.3091,2.3091,2.3091,2.3091,2.3091,2.3091,2.3091,2.3091,2.3091,2.3091,2.3091,2.3091,2.3091,2.3091,2.3091,2.3091,2.3091,2.3266,2.3844,2.4006,2.4178,2.4766,2.5755,2.6685,2.7238,2.8227,2.9157,2.9702,2.9792,2.9792,2.9792,2.9792,2.9792,2.9792,2.9792,2.9792,2.9792,2.9792,2.9792,2.9792,2.9792,2.9792,2.9792,2.9792,2.9792,2.9792,2.9792,2.9792,2.9792,2.9792,2.9792,2.9792,2.9792,2.9792,2.9792,2.9792,2.9792,2.9792,2.9792,2.9792,2.9792,2.9792,2.9792,2.9792,2.9792,2.9792,2.9792,2.9792,2.9792,2.9792,1.6787,1.678,1.6767,1.6714,1.6707,1.6707,1.6707,1.6707,1.6707,1.6707,1.6707,1.6707,1.6707,1.6707,1.6607,1.6366,1.6348,1.6166,1.5919,1.5811,1.5784,1.5784,1.5784,1.5784,1.5784,1.5784,1.5784,1.5784,1.5784,1.5784,1.5784,1.5784,1.5784,1.5784,1.5784,1.5784,1.5784,1.5784,1.5784,1.5784,1.5784,1.7296,1.9497,1.9497,2.0998,2.3091,2.3091,2.3091,2.3091,2.3091,2.3091,2.3091,2.3091,2.3091,2.3091,2.3091,2.3091,2.3091,2.3091,2.3091,2.3091,2.3091,2.3091,2.3091,2.3091,2.3091,2.3091,2.3091,2.4006,2.5083,2.6058,2.7116,2.8187,2.9326,2.9495,2.9573,2.9753,2.9792,2.9792,2.9792,2.9792,2.9792,2.9792,2.9792,2.9792,2.9792,2.9792,2.9792,2.9792,2.9792,2.9792,2.9792,2.9792,2.9792,2.9792,2.9792,2.9792,2.9792,2.9792,2.9792,2.9792,2.9792,2.9792,2.9792,2.9792,2.9792,2.9792,2.9792,2.9792,2.9792,2.9792,2.9792,2.9792,2.9792,2.9792,2.9792,1.7186,1.7139,1.7058,1.6747,1.6707,1.6707,1.6707,1.6707,1.6707,1.6707,1.6707,1.6707,1.6707,1.6707,1.6693,1.6653,1.642,1.6301,1.6261,1.5972,1.5784,1.5784,1.5784,1.5784,1.5784,1.5784,1.5784,1.5784,1.5784,1.5784,1.5784,1.5784,1.5784,1.5784,1.5784,1.5784,1.5784,1.5784,1.5784,1.5784,1.5784,1.7296,1.9497,1.9497,2.0998,2.3091,2.3091,2.3091,2.3091,2.3091,2.3091,2.3091,2.3091,2.3091,2.3091,2.3091,2.3091,2.3091,2.3091,2.3091,2.3091,2.3091,2.3091,2.3091,2.3091,2.3091,2.3091,2.3091,2.4006,2.483,2.4999,2.5964,2.7087,2.8136,2.8347,2.8688,2.9663,2.9792,2.9792,2.9792,2.9792,2.9792,2.9792,2.9792,2.9792,2.9792,2.9792,2.9792,2.9792,2.9792,2.9792,2.9792,2.9792,2.9792,2.9792,2.9792,2.9792,2.9792,2.9792,2.9792,2.9792,2.9792,2.9792,2.9792,2.9792,2.9792,2.9792,2.9792,2.9792,2.9792,2.9792,2.9792,2.9792,2.9792,2.9792,2.9792,1.7467,1.744,1.74,1.7215,1.7194,1.7194,1.7194,1.7194,1.7194,1.7194,1.7194,1.7194,1.7194,1.7194,1.7128,1.6967,1.668,1.6446,1.6335,1.5999,1.5784,1.5784,1.5784,1.5784,1.5784,1.5784,1.5784,1.5784,1.5784,1.5784,1.5784,1.5784,1.5784,1.5784,1.5784,1.5784,1.5784,1.5784,1.5784,1.5784,1.5784,1.7296,1.9497,1.9497,2.0998,2.3091,2.3091,2.3091,2.3091,2.3091,2.3091,2.3091,2.3091,2.3091,2.3091,2.3091,2.3091,2.3091,2.3091,2.3091,2.3091,2.3091,2.3091,2.3091,2.3091,2.3091,2.3091,2.3091,2.3507,2.4039,2.466,2.521,2.6119,2.7804,2.8096,2.8518,2.9624,2.9792,2.9792,2.9792,2.9792,2.9792,2.9792,2.9792,2.9792,2.9792,2.9792,2.9792,2.9792,2.9792,2.9792,2.9792,2.9792,2.9792,2.9792,2.9792,2.9792,2.9792,2.9792,2.9792,2.9792,2.9792,2.9792,2.9792,2.9792,2.9792,2.9792,2.9792,2.9792,2.9792,2.9792,2.9792,2.9792,2.9792,2.9792,2.9792]}]]